[[{"header":{"parameterUnit":"m.s-1","parameterCategory":1,"la1":31.0,"la2":29.5877,"lo1":-88.7671,"lo2":-86.6584,"dy":0.0162,"dx":0.0185,"nx":115,"ny":88,"refTime":"2023-10-15T00:00:00:Z","depth":0,"parameterNumber":2,"parameterNumberName":"U-component_of_WINDS"},"data":[0.0,0.0,0.0,0.0,0.0,0.0,0.0,0.0,0.0,0.0,0.0,0.0,0.0,0.0,0.0,0.0,0.0,0.0,0.0,0.0,0.0,0.0,0.0,0.0,0.0,0.0,0.0,0.0,0.0,0.0,0.0,0.0,0.0,0.0,0.0,0.0,0.0,0.0,0.0,0.0,0.0,0.0,0.0,0.0,0.0,0.0,0.0,0.0,0.0,0.0,0.0,0.0,0.0,0.0,0.0,0.0,0.0,0.0,0.0,0.0,0.0,0.0,0.0,0.0,0.0,0.0,0.0,0.0,0.0,0.0,0.0,0.0,0.0,0.0,0.0,0.0,0.0,0.0,0.0,0.0,0.0,0.0,0.0,0.0,0.0,0.0,0.0,0.0,0.0,0.0,0.0,0.0,0.0,0.0,0.0,0.0,0.0,0.0,0.0,0.0,0.0,0.0,0.0,0.0,0.0,0.0,0.0,0.0,0.0,0.0,0.0,0.0,0.0,0.0,0.0,0.0,0.0,0.0,0.0,0.0,0.0,0.0,0.0,0.0,0.0,0.0,0.0,0.0,0.0,0.0,0.0,0.0,0.0,0.0,0.0,0.0,0.0,0.0,0.0,0.0,0.0,0.0,0.0,0.0,0.0,0.0,0.0,0.0,0.0,0.0,0.0,0.0,0.0,0.0,0.0,0.0,0.0,0.0,0.0,0.0,0.0,0.0,0.0,0.0,0.0,0.0,0.0,0.0,0.0,0.0,0.0,0.0,0.0,0.0,0.0,0.0,0.0,0.0,0.0,0.0,0.0,0.0,0.0,0.0,0.0,0.0,0.0,0.0,0.0,0.0,0.0,0.0,0.0,0.0,0.0,0.0,0.0,0.0,0.0,0.0,0.0,0.0,0.0,0.0,0.0,0.0,0.0,0.0,0.0,0.0,0.0,0.0,0.0,0.0,0.0,0.0,0.0,0.0,0.0,0.0,0.0,0.0,0.0,0.0,0.0,0.0,0.0,0.0,0.0,0.0,0.0,0.0,0.0,0.0,0.0,0.0,0.0,0.0,0.0,0.0,0.0,0.0,0.0,0.0,0.0,0.0,0.0,0.0,0.0,0.0,0.0,0.0,0.0,0.0,0.0,0.0,0.0,0.0,0.0,0.0,0.0,0.0,0.0,0.0,0.0,0.0,0.0,0.0,0.0,0.0,0.0,0.0,0.0,0.0,0.0,0.0,0.0,0.0,0.0,0.0,0.0,0.0,0.0,0.0,0.0,0.0,0.0,0.0,0.0,0.0,0.0,0.0,0.0,0.0,0.0,0.0,0.0,0.0,0.0,0.0,0.0,0.0,0.0,0.0,0.0,0.0,0.0,0.0,0.0,0.0,0.0,0.0,0.0,0.0,0.0,0.0,0.0,0.0,0.0,0.0,0.0,0.0,0.0,0.0,0.0,0.0,0.0,0.0,0.0,0.0,0.0,0.0,0.0,0.0,0.0,0.0,0.0,0.0,0.0,0.0,0.0,0.0,0.0,0.0,0.0,0.0,0.0,0.0,0.0,0.0,0.0,0.0,0.0,0.0,0.0,0.0,0.0,0.0,0.0,0.0,0.0,0.0,0.0,0.0,0.0,0.0,0.0,0.0,0.0,0.0,0.0,0.0,0.0,0.0,0.0,0.0,0.0,0.0,0.0,0.0,0.0,0.0,0.0,0.0,0.0,0.0,0.0,0.0,0.0,0.0,0.0,0.0,0.0,0.0,0.0,0.0,0.0,0.0,0.0,0.0,0.0,0.0,0.0,0.0,0.0,0.0,0.0,0.0,0.0,0.0,0.0,0.0,0.0,0.0,0.0,0.0,0.0,0.0,0.0,0.0,0.0,0.0,0.0,0.0,0.0,0.0,0.0,0.0,0.0,0.0,0.0,0.0,0.0,0.0,0.0,0.0,0.0,0.0,0.0,0.0,0.0,0.0,0.0,0.0,0.0,0.0,0.0,0.0,0.0,0.0,0.0,0.0,0.0,0.0,0.0,0.0,0.0,0.0,0.0,0.0,0.0,0.0,0.0,0.0,0.0,0.0,0.0,0.0,0.0,0.0,0.0,0.0,0.0,0.0,0.0,0.0,0.0,0.0,0.0,0.0,0.0,0.0,0.0,0.0,0.0,0.0,0.0,0.0,0.0,0.0,0.0,0.0,0.0,0.0,0.0,0.0,0.0,0.0,0.0,0.0,0.0,0.0,0.0,0.0,0.0,0.0,0.0,0.0,0.0,0.0,0.0,0.0,0.0,0.0,0.0,0.0,0.0,0.0,0.0,0.0,0.0,0.0,0.0,0.0,0.0,0.0,0.0,0.0,0.0,0.0,0.0,0.0,0.0,0.0,0.0,0.0,0.0,0.0,0.0,0.0,0.0,0.0,0.0,0.0,0.0,0.0,0.0,0.0,0.0,0.0,0.0,0.0,0.0,0.0,0.0,0.0,0.0,0.0,0.0,0.0,0.0,0.0,0.0,0.0,0.0,0.0,0.0,0.0,0.0,0.0,0.0,0.0,0.0,0.0,0.0,0.0,0.0,0.0,0.0,0.0,0.0,0.0,0.0,0.0,0.0,0.0,0.0,0.0,0.0,0.0,0.0,0.0,0.0,0.0,0.0,0.0,0.0,0.0,0.0,0.0,0.0,0.0,0.0,0.0,0.0,0.0,0.0,0.0,0.0,0.0,0.0,0.0,0.0,0.0,0.0,0.0,0.0,0.0,0.0,0.0,0.0,0.0,0.0,0.0,0.0,0.0,0.0,0.0,0.0,0.0,0.0,0.0,0.0,0.0,0.0,0.0,0.0,0.0,0.0,0.0,0.0,0.0,0.0,0.0,0.0,0.0,0.0,0.0,0.0,0.0,0.0,0.0,0.0,0.0,0.0,0.0,0.0,0.0,0.0,0.0,0.0,0.0,0.0,0.0,0.0,0.0,0.0,0.0,0.0,0.0,0.0,0.0,0.0,0.0,0.0,0.0,0.0,0.0,0.0,0.0,0.0,0.0,0.0,0.0,0.0,0.0,0.0,0.0,0.0,0.0,0.0,0.0,0.0,0.0,0.0,0.0,0.0,0.0,0.0,0.0,0.0,0.0,0.0,0.0,0.0,0.0,0.0,0.0,0.0,0.0,0.0,0.0,0.0,0.0,0.0,0.0,0.0,0.0,0.0,0.0,0.0,0.0,0.0,0.0,0.0,0.0,0.0,0.0,0.0,0.0,0.0,0.0,0.0,0.0,0.0,0.0,0.0,0.0,0.0,0.0,0.0,0.0,0.0,0.0,0.0,0.0,0.0,0.0,0.0,0.0,0.0,0.0,0.0,0.0,0.0,0.0,0.0,0.0,0.0,0.0,0.0,0.0,0.0,0.0,0.0,0.0,0.0,0.0,0.0,0.0,0.0,0.0,0.0,0.0,0.0,0.0,0.0,0.0,0.0,0.0,0.0,0.0,0.0,0.0,0.0,0.0,0.0,0.0,0.0,0.0,0.0,0.0,0.0,0.0,0.0,0.0,0.0,0.0,0.0,0.0,0.0,0.0,0.0,0.0,0.0,0.0,0.0,0.0,0.0,0.0,0.0,0.0,0.0,0.0,0.0,0.0,0.0,0.0,0.0,0.0,0.0,0.0,0.0,0.0,0.0,0.0,0.0,0.0,0.0,0.0,0.0,0.0,0.0,0.0,0.0,0.0,0.0,0.0,0.0,0.0,0.0,0.0,0.0,0.0,0.0,0.0,0.0,0.0,0.0,0.0,0.0,0.0,0.0,0.0,0.0,0.0,0.0,0.0,0.0,0.0,0.0,0.0,0.0,0.0,0.0,0.0,0.0,0.0,0.0,0.0,0.0,0.0,0.0,0.0,0.0,0.0,0.0,0.0,0.0,0.0,0.0,0.0,0.0,0.0,0.0,0.0,0.0,0.0,0.0,0.0,0.0,0.0,0.0,0.0,0.0,0.0,0.0,0.0,0.0,0.0,0.0,0.0,0.0,0.0,0.0,0.0,0.0,0.0,0.0,0.0,0.0,0.0,0.0,0.0,0.0,0.0,0.0,0.0,0.0,0.0,0.0,0.0,0.0,0.0,0.0,0.0,0.0,0.0,0.0,0.0,0.0,0.0,0.0,0.0,0.0,0.0,0.0,0.0,0.0,0.0,0.0,0.0,0.0,0.0,0.0,0.0,0.0,0.0,0.0,0.0,0.0,0.0,0.0,0.0,0.0,0.0,0.0,0.0,0.0,0.0,0.0,0.0,0.0,0.0,0.0,0.0,-0.4948,0.0,0.0,0.0,0.0,0.0,0.0,0.0,0.0,0.0,0.0,0.0,0.0,0.0,0.0,0.0,0.0,0.0,0.0,0.0,0.0,0.0,0.0,0.0,0.0,0.0,0.0,0.0,0.0,0.0,0.0,0.0,0.0,0.0,0.0,0.0,0.0,0.0,0.0,0.0,0.0,0.0,0.0,0.0,0.0,0.0,0.0,0.0,0.0,0.0,0.0,0.0,0.0,0.0,0.0,0.0,0.0,0.0,0.0,0.0,0.0,0.0,0.0,0.0,0.0,0.0,0.0,0.0,0.0,0.0,0.0,0.0,0.0,0.0,0.0,0.0,0.0,0.0,0.0,0.0,0.0,0.0,0.0,0.0,0.0,0.0,0.0,0.0,0.0,0.0,0.0,0.0,0.0,0.0,0.0,0.0,0.0,0.0,0.0,0.0,0.0,0.0,0.0,0.0,0.0,0.0,0.0,0.0,0.0,0.0,0.0,-0.4911,-0.4843,-0.4702,-0.4631,-0.4627,0.0,0.0,0.0,0.0,0.0,0.0,0.0,0.0,0.0,0.0,0.0,0.0,0.0,0.0,0.0,0.0,0.0,0.0,0.0,0.0,0.0,0.0,0.0,0.0,0.0,0.0,0.0,0.0,0.0,0.0,0.0,0.0,0.0,0.0,0.0,0.0,0.0,0.0,0.0,0.0,0.0,0.0,0.0,0.0,0.0,0.0,0.0,0.0,0.0,0.0,0.0,0.0,0.0,0.0,0.0,0.0,0.0,0.0,0.0,0.0,0.0,0.0,0.0,0.0,0.0,0.0,0.0,0.0,0.0,0.0,0.0,0.0,0.0,0.0,0.0,0.0,0.0,0.0,0.0,0.0,0.0,0.0,0.0,0.0,0.0,0.0,0.0,0.0,0.0,0.0,0.0,0.0,0.0,0.0,0.0,0.0,0.0,0.0,0.0,0.0,0.0,0.0,0.0,0.0,0.0,0.0,0.0,0.0,0.0,0.0,0.0,0.0,-0.4347,-0.4326,-0.4299,0.0,0.0,0.0,0.0,0.0,0.0,0.0,0.0,0.0,0.0,0.0,0.0,0.0,0.0,0.0,0.0,0.0,0.0,0.0,0.0,0.0,0.0,0.0,0.0,0.0,0.0,0.0,0.0,0.0,0.0,0.0,0.0,0.0,0.0,0.0,0.0,0.0,0.0,0.0,0.0,0.0,0.0,0.0,0.0,0.0,0.0,0.0,0.0,0.0,0.0,0.0,0.0,0.0,0.0,0.0,0.0,0.0,0.0,0.0,0.0,0.0,0.0,0.0,0.0,0.0,0.0,0.0,0.0,0.0,0.0,0.0,0.0,0.0,0.0,0.0,0.0,0.0,0.0,0.0,0.0,0.0,0.0,0.0,0.0,0.0,0.0,0.0,0.0,0.0,0.0,0.0,0.0,0.0,0.0,0.0,0.0,0.0,0.0,0.0,0.0,0.0,0.0,0.0,0.0,0.0,0.0,0.0,0.0,0.0,0.0,-0.4079,-0.4079,-0.39,0.0,-0.4131,0.0,0.0,0.0,0.0,0.0,0.0,0.0,0.0,0.0,0.0,0.0,0.0,0.0,0.0,0.0,0.0,0.0,0.0,0.0,0.0,0.0,0.0,0.0,0.0,0.0,0.0,0.0,0.0,0.0,0.0,0.0,0.0,0.0,0.0,0.0,0.0,0.0,0.0,0.0,0.0,0.0,0.0,0.0,0.0,0.0,0.0,0.0,0.0,0.0,0.0,0.0,0.0,0.0,0.0,0.0,0.0,0.0,0.0,0.0,0.0,0.0,0.0,0.0,0.0,0.0,0.0,0.0,0.0,0.0,0.0,0.0,0.0,0.0,0.0,0.0,0.0,0.0,0.0,0.0,0.0,0.0,0.0,0.0,0.0,0.0,0.0,0.0,0.0,0.0,0.0,0.0,0.0,0.0,0.0,0.0,0.0,0.0,0.0,0.0,0.0,0.0,0.0,0.0,0.0,0.0,0.0,0.0,0.0,0.0,0.0,-0.3828,-0.3758,-0.3782,-0.3868,0.0,0.0,0.0,0.0,0.0,0.0,0.0,0.0,0.0,0.0,0.0,0.0,0.0,0.0,0.0,0.0,0.0,0.0,0.0,0.0,0.0,0.0,0.0,0.0,0.0,0.0,0.0,0.0,0.0,0.0,0.0,0.0,0.0,0.0,0.0,0.0,0.0,0.0,0.0,0.0,0.0,0.0,0.0,0.0,0.0,0.0,0.0,0.0,0.0,0.0,0.0,0.0,0.0,0.0,0.0,0.0,0.0,0.0,0.0,0.0,0.0,0.0,0.0,0.0,0.0,0.0,0.0,0.0,0.0,0.0,0.0,0.0,0.0,0.0,0.0,0.0,0.0,0.0,0.0,0.0,0.0,0.0,0.0,0.0,0.0,0.0,0.0,0.0,0.0,0.0,0.0,0.0,0.0,0.0,0.0,0.0,0.0,0.0,0.0,0.0,0.0,0.0,0.0,0.0,0.0,0.0,0.0,0.0,0.0,0.0,-0.3558,-0.3422,-0.3355,-0.3491,-0.3625,-0.3627,0.0,0.0,0.0,0.0,0.0,0.0,0.0,0.0,0.0,0.0,0.0,0.0,0.0,0.0,0.0,0.0,0.0,0.0,0.0,0.0,0.0,0.0,0.0,0.0,0.0,0.0,0.0,0.0,0.0,0.0,0.0,0.0,0.0,0.0,0.0,0.0,0.0,0.0,0.0,0.0,0.0,0.0,0.0,0.0,0.0,0.0,0.0,0.0,0.0,0.0,0.0,0.0,0.0,0.0,0.0,0.0,0.0,0.0,0.0,0.0,0.0,0.0,0.0,0.0,0.0,0.0,0.0,0.0,0.0,0.0,0.0,0.0,0.0,0.0,0.0,0.0,0.0,0.0,0.0,0.0,0.0,0.0,0.0,0.0,0.0,0.0,0.0,0.0,0.0,0.0,0.0,0.0,0.0,0.0,0.0,0.0,0.0,0.0,0.0,0.0,0.0,0.0,0.0,0.0,0.0,0.0,0.0,0.0,-0.3226,-0.2889,-0.2753,-0.2753,-0.2956,-0.3092,0.0,0.0,0.0,0.0,0.0,0.0,0.0,0.0,0.0,0.0,0.0,0.0,0.0,0.0,0.0,0.0,0.0,0.0,0.0,0.0,0.0,0.0,0.0,0.0,0.0,0.0,0.0,0.0,0.0,0.0,0.0,0.0,0.0,0.0,0.0,0.0,0.0,0.0,0.0,0.0,0.0,0.0,0.0,0.0,0.0,0.0,0.0,0.0,0.0,0.0,0.0,0.0,0.0,0.0,0.0,0.0,0.0,0.0,0.0,0.0,0.0,0.0,0.0,0.0,0.0,0.0,0.0,0.0,0.0,0.0,0.0,0.0,0.0,0.0,0.0,0.0,0.0,0.0,0.0,0.0,0.0,0.0,0.0,0.0,0.0,0.0,0.0,0.0,0.0,0.0,0.0,0.0,0.0,0.0,0.0,0.0,0.0,0.0,0.0,0.0,0.0,0.0,0.0,0.0,0.0,0.0,0.0,0.0,0.0,-0.2753,-0.2619,-0.2619,-0.2686,-0.2753,-0.2822,0.0,0.0,0.0,0.0,0.0,0.0,0.0,0.0,0.0,0.0,0.0,0.0,0.0,0.0,0.0,0.0,0.0,0.0,0.0,0.0,0.0,0.0,0.0,0.0,0.0,0.0,0.0,0.0,0.0,0.0,0.0,0.0,0.0,0.0,0.0,0.0,0.0,0.0,0.0,0.0,0.0,0.0,0.0,0.0,0.0,0.0,0.0,0.0,0.0,0.0,0.0,0.0,0.0,0.0,0.0,0.0,0.0,0.0,0.0,0.0,0.0,0.0,0.0,0.0,0.0,0.0,0.0,0.0,0.0,0.0,0.0,0.0,0.0,0.0,0.0,0.0,0.0,0.0,0.0,0.0,0.0,0.0,0.0,0.0,0.0,0.0,0.0,0.0,0.0,0.0,0.0,0.0,0.0,0.0,0.0,0.0,0.0,0.0,0.0,0.0,0.0,0.0,0.0,0.0,0.0,0.0,0.0,0.0,0.0,-0.2351,0.0,-0.2284,-0.2418,-0.2487,-0.2554,0.0,0.0,0.0,0.0,0.0,0.0,0.0,0.0,0.0,0.0,0.0,0.0,0.0,0.0,0.0,0.0,0.0,0.0,0.0,0.0,0.0,0.0,0.0,0.0,0.0,0.0,0.0,0.0,0.0,0.0,0.0,0.0,0.0,0.0,0.0,0.0,0.0,0.0,0.0,0.0,0.0,0.0,0.0,0.0,0.0,0.0,0.0,0.0,0.0,0.0,0.0,0.0,0.0,0.0,0.0,0.0,0.0,0.0,0.0,0.0,0.0,0.0,0.0,0.0,0.0,0.0,0.0,0.0,0.0,0.0,0.0,0.0,0.0,0.0,0.0,0.0,0.0,0.0,0.0,0.0,0.0,0.0,0.0,0.0,0.0,0.0,0.0,0.0,0.0,0.0,0.0,0.0,0.0,0.0,0.0,0.0,0.0,0.0,0.0,0.0,0.0,0.0,0.0,0.0,0.0,0.0,0.0,0.0,-0.2225,-0.1952,-0.182,-0.1824,-0.1886,-0.2091,-0.229,0.0,0.0,0.0,0.0,0.0,0.0,0.0,0.0,0.0,0.0,0.0,0.0,0.0,0.0,0.0,0.0,0.0,0.0,0.0,0.0,0.0,0.0,0.0,0.0,0.0,0.0,0.0,0.0,0.0,0.0,0.0,0.0,0.0,0.0,0.0,0.0,0.0,0.0,0.0,0.0,0.0,0.0,0.0,0.0,0.0,0.0,0.0,0.0,0.0,0.0,0.0,0.0,0.0,0.0,0.0,0.0,0.0,0.0,0.0,0.0,0.0,0.0,0.0,0.0,0.0,0.0,0.0,0.0,0.0,0.0,0.0,0.0,0.0,0.0,0.0,0.0,0.0,0.0,0.0,0.0,0.0,0.0,0.0,0.0,0.0,0.0,0.0,0.0,0.0,0.0,0.0,0.0,0.0,0.0,0.0,0.0,0.0,0.0,0.0,0.0,0.0,0.0,0.0,0.0,0.0,0.0,0.0,0.0,0.0,-0.1732,-0.1763,-0.1708,-0.1778,-0.1818,-0.1939,0.0,0.0,0.0,0.0,0.0,0.0,0.0,0.0,0.0,0.0,0.0,0.0,0.0,0.0,0.0,0.0,0.0,0.0,0.0,0.0,0.0,0.0,0.0,0.0,0.0,0.0,0.0,0.0,0.0,0.0,0.0,0.0,0.0,0.0,0.0,0.0,0.0,0.0,0.0,0.0,0.0,0.0,0.0,0.0,0.0,0.0,0.0,0.0,0.0,0.0,0.0,0.0,0.0,0.0,0.0,0.0,0.0,0.0,0.0,0.0,0.0,0.0,0.0,0.0,0.0,0.0,0.0,0.0,0.0,0.0,0.0,0.0,0.0,0.0,0.0,0.0,0.0,0.0,0.0,0.0,0.0,0.0,0.0,0.0,0.0,0.0,0.0,0.0,0.0,0.0,0.0,0.0,0.0,0.0,0.0,0.0,0.0,0.0,0.0,0.0,0.0,0.0,0.0,0.0,0.0,0.0,0.0,0.0,0.0,-0.1517,-0.1526,-0.1603,-0.1603,-0.1578,-0.1629,-0.1683,0.0,0.0,0.0,0.0,0.0,0.0,0.0,0.0,0.0,0.0,0.0,0.0,0.0,0.0,0.0,0.0,0.0,0.0,0.0,0.0,0.0,0.0,0.0,0.0,0.0,0.0,0.0,0.0,0.0,0.0,0.0,0.0,0.0,0.0,0.0,0.0,0.0,0.0,0.0,0.0,0.0,0.0,0.0,0.0,0.0,0.0,0.0,0.0,0.0,0.0,0.0,0.0,0.0,0.0,0.0,0.0,0.0,0.0,0.0,0.0,0.0,0.0,0.0,0.0,0.0,0.0,0.0,0.0,0.0,0.0,0.0,0.0,0.0,0.0,0.0,0.0,0.0,0.0,0.0,0.0,0.0,0.0,0.0,0.0,0.0,0.0,0.0,0.0,0.0,0.0,0.0,0.0,0.0,0.0,0.0,0.0,0.0,0.0,0.0,0.0,0.0,0.0,0.0,0.0,0.0,0.0,0.0,0.0,-0.1138,-0.126,-0.1392,-0.1392,-0.139,-0.1373,0.0,0.0,0.0,0.0,0.0,0.0,0.0,0.0,0.0,0.0,0.0,0.0,0.0,0.0,0.0,0.0,0.0,0.0,0.0,0.0,0.0,0.0,0.0,0.0,0.0,0.0,0.0,0.0,0.0,0.0,0.0,0.0,0.0,0.0,0.0,0.0,0.0,0.0,0.0,0.0,0.0,0.0,0.0,0.0,0.0,0.0,0.0,0.0,0.0,0.0,0.0,0.0,0.0,0.0,0.0,0.0,0.0,0.0,0.0,0.0,0.0,0.0,0.0,0.0,0.0,0.0,0.0,0.0,0.0,0.0,0.0,0.0,0.0,0.0,0.0,0.0,0.0,0.0,0.0,0.0,0.0,0.0,0.0,0.0,0.0,0.0,0.0,0.0,0.0,0.0,0.0,0.0,0.0,0.0,0.0,0.0,0.0,0.0,0.0,0.0,0.0,0.0,0.0,0.0,0.0,0.0,0.0,0.0,0.0,-0.0778,-0.0773,-0.1002,-0.131,-0.1363,-0.1346,0.0,0.0,0.0,0.0,0.0,0.0,0.0,0.0,0.0,0.0,0.0,0.0,0.0,0.0,0.0,0.0,0.0,0.0,0.0,0.0,0.0,0.0,0.0,0.0,0.0,0.0,0.0,0.0,0.0,0.0,0.0,0.0,0.0,0.0,0.0,0.0,0.0,0.0,0.0,0.0,0.0,0.0,0.0,0.0,0.0,0.0,0.0,0.0,0.0,0.0,0.0,0.0,0.0,0.0,0.0,0.0,0.0,0.0,0.0,0.0,0.0,0.0,0.0,0.0,0.0,0.0,0.0,0.0,0.0,0.0,0.0,0.0,0.0,0.0,0.0,0.0,0.0,0.0,0.0,0.0,0.0,0.0,0.0,0.0,0.0,0.0,0.0,0.0,0.0,0.0,0.0,0.0,0.0,0.0,0.0,0.0,0.0,0.0,0.0,0.0,0.0,0.0,0.0,0.0,0.0,0.0,0.0,0.0,-0.0962,-0.0324,0.0081,-0.0162,-0.0971,-0.1019,-0.1071,0.0,0.0,0.0,0.0,0.0,0.0,0.0,0.0,0.0,0.0,0.0,0.0,0.0,0.0,0.0,0.0,0.0,0.0,0.0,0.0,0.0,0.0,0.0,0.0,0.0,0.0,0.0,0.0,0.0,0.0,0.0,0.0,0.0,0.0,0.0,0.0,0.0,0.0,0.0,0.0,0.0,0.0,0.0,0.0,0.0,0.0,0.0,0.0,0.0,0.0,0.0,0.0,0.0,0.0,0.0,0.0,0.0,0.0,0.0,0.0,0.0,0.0,0.0,0.0,0.0,0.0,0.0,0.0,0.0,0.0,0.0,0.0,0.0,0.0,0.0,0.0,0.0,0.0,0.0,0.0,0.0,0.0,0.0,0.0,0.0,0.0,0.0,0.0,0.0,0.0,0.0,0.0,0.0,0.0,0.0,0.0,0.0,0.0,0.0,0.0,0.0,0.0,0.0,0.0,0.0,0.0,0.0,0.0,-0.0577,0.0252,0.1011,0.0842,-0.0336,-0.0484,-0.0703,0.0,0.0,0.0,0.0,0.0,0.0,0.0,0.0,0.0,0.0,0.0,0.0,0.0,0.0,0.0,0.0,0.0,0.0,0.0,0.0,0.0,0.0,0.0,0.0,0.0,0.0,0.0,0.0,0.0,0.0,0.0,0.0,0.0,0.0,0.0,0.0,0.0,0.0,0.0,0.0,0.0,0.0,0.0,0.0,0.0,0.0,0.0,0.0,0.0,0.0,0.0,0.0,0.0,0.0,0.0,0.0,0.0,0.0,0.0,0.0,0.0,0.0,0.0,0.0,0.0,0.0,0.0,0.0,0.0,0.0,0.0,0.0,0.0,0.0,0.0,0.0,0.0,0.0,0.0,0.0,0.0,0.0,0.0,0.0,0.0,0.0,0.0,0.0,0.0,0.0,0.0,0.0,0.0,0.0,0.0,0.0,0.0,0.0,0.0,0.0,0.0,0.0,0.0,0.0,0.0,0.0,0.0,0.0,0.0922,0.1095,0.1348,0.1264,0.1011,0.0328,-0.0081,0.0,0.0,0.0,0.0,0.0,0.0,0.0,0.0,0.0,0.0,0.0,0.0,0.0,0.0,0.0,0.0,0.0,0.0,0.0,0.0,0.0,0.0,0.0,0.0,0.0,0.0,0.0,0.0,0.0,0.0,0.0,0.0,0.0,0.0,0.0,0.0,0.0,0.0,0.0,0.0,0.0,0.0,0.0,0.0,0.0,0.0,0.0,0.0,-0.3889,0.0,0.0,0.0,0.0,0.0,0.0,0.0,0.0,0.0,0.0,0.0,0.0,0.0,0.0,0.0,0.0,0.0,0.0,0.0,0.0,0.0,0.0,0.0,0.0,0.0,0.0,0.0,0.0,0.0,0.0,0.0,0.0,0.0,0.0,0.0,0.0,0.0,0.0,0.0,0.0,0.0,0.0,0.0,0.0,0.0,0.0,0.0,0.0,0.0,0.0,0.0,0.0,0.0,0.0,0.0,0.0,0.0,0.0,0.0,0.1382,0.1409,0.1396,0.1395,0.1408,0.0941,0.0499,0.0,0.0,0.0,0.0,0.0,0.0,0.0,0.0,0.0,0.0,0.0,0.0,0.0,0.0,0.0,0.0,0.0,0.0,0.0,0.0,0.0,0.0,0.0,0.0,0.0,0.0,0.0,0.0,0.0,0.0,0.0,0.0,0.0,0.0,0.0,0.0,0.0,0.0,0.0,0.0,0.0,0.0,0.0,0.0,0.0,0.0,0.0,0.0,0.0,0.0,0.0,0.0,0.0,0.0,0.0,0.0,0.0,0.0,0.0,0.0,0.0,0.0,0.0,0.0,0.0,0.0,0.0,0.0,0.0,0.0,0.0,0.0,0.0,0.0,0.0,0.0,0.0,0.0,0.0,0.0,0.0,0.0,0.0,0.0,0.0,0.0,0.0,0.0,0.0,0.0,0.0,0.0,0.0,0.0,0.0,0.0,0.0,0.0,0.0,0.0,0.0,0.0,0.0,0.0,0.0,0.0,0.0,0.1053,0.1433,0.1484,0.1463,0.137,0.1393,0.1435,0.1035,0.0331,0.0,0.0,0.0,0.0,0.0,0.0,0.0,0.0,0.0,0.0,0.0,0.0,0.0,0.0,0.0,0.0,0.0,0.0,0.0,0.0,0.0,0.0,0.0,0.0,0.0,0.0,0.0,0.0,0.0,0.0,0.0,0.0,0.0,0.0,0.0,0.0,0.0,0.0,-0.2585,-0.2638,0.0,0.0,0.0,0.0,0.0,0.0,0.0,0.0,-0.2987,0.0,0.0,0.0,0.0,0.0,0.0,0.0,0.0,0.0,0.0,0.0,0.0,0.0,0.0,0.0,0.0,0.0,0.0,0.0,0.0,0.0,0.0,0.0,0.0,0.0,0.0,0.0,0.0,0.0,0.0,0.0,0.0,0.0,0.0,0.0,0.0,0.0,0.0,0.0,0.0,0.0,0.0,0.0,0.0,0.0,0.0,0.0,0.0,0.0,0.0,0.0,0.0,0.0,0.0,0.0,0.0,0.1339,0.1453,0.1483,0.1612,0.1514,0.1514,0.1517,0.1392,0.1359,0.1148,0.0,0.0,0.0,0.0,0.0,0.0,0.0,0.0,0.0,0.0,0.0,0.0,0.0,0.0,0.0,0.0,0.0,0.0,0.0,0.0,0.0,0.0,0.0,0.0,0.0,0.0,0.0,0.0,0.0,0.0,0.0,0.0,0.0,0.0,0.0,0.0,0.0,0.0,0.0,-0.2023,-0.2102,0.0,0.0,0.0,0.0,0.0,0.0,0.0,0.0,-0.2976,0.0,0.0,0.0,0.0,0.0,0.0,0.0,0.0,0.0,0.0,0.0,0.0,0.0,0.0,0.0,0.0,0.0,0.0,0.0,0.0,0.0,0.0,0.0,0.0,0.0,0.0,0.0,0.0,0.0,0.0,0.0,0.0,0.0,0.0,0.0,0.0,0.0,0.0,0.0,0.0,0.0,0.0,0.0,0.0,0.0,0.0,0.0,0.0,0.0,0.0,0.0,0.0,0.0,0.0,0.0,0.1459,0.1582,0.1519,0.1548,0.1534,0.1534,0.1549,0.1521,0.149,0.0,0.0,0.0,0.0,0.0,0.0,0.0,0.0,0.0,0.0,0.0,0.0,0.0,0.0,0.0,0.0,0.0,0.0,0.0,0.0,0.0,0.0,0.0,0.0,0.0,0.0,0.0,0.0,0.0,0.0,0.0,0.0,0.0,0.0,0.0,0.0,0.0,0.0,0.0,0.0,-0.1771,-0.1861,-0.186,0.0,0.0,0.0,0.0,0.0,0.0,-0.2728,-0.2726,0.0,0.0,0.0,0.0,0.0,0.0,0.0,0.0,0.0,0.0,0.0,0.0,0.0,0.0,0.0,0.0,0.0,0.0,0.0,0.0,0.0,0.0,0.0,0.0,0.0,0.0,0.0,0.0,0.0,0.0,0.0,0.0,0.0,0.0,0.0,0.0,0.0,0.0,0.0,0.0,0.0,0.0,0.0,0.0,0.0,0.0,0.0,0.0,0.0,0.0,0.0,0.0,0.0,0.0,0.0,0.1498,0.1618,0.1549,0.1578,0.1557,0.1555,0.1579,0.1551,0.1524,0.0,0.0,0.0,0.0,0.0,0.0,0.0,0.0,0.0,0.0,0.0,0.0,0.0,0.0,0.0,0.0,0.0,0.0,0.0,0.0,0.0,0.0,0.0,0.0,0.0,0.0,0.0,0.0,0.0,0.0,0.0,0.0,0.0,0.0,0.0,0.0,0.0,0.0,0.0,0.0,0.0,-0.1769,-0.1769,-0.196,0.0,0.0,0.0,0.0,-0.2546,-0.2548,0.0,0.0,0.0,0.0,0.0,0.0,0.0,0.0,0.0,0.0,0.0,0.0,0.0,0.0,0.0,0.0,0.0,0.0,0.0,0.0,0.0,0.0,0.0,0.0,0.0,0.0,0.0,0.0,0.0,0.0,0.0,0.0,0.0,0.0,0.0,0.0,0.0,0.0,0.0,0.0,0.0,0.0,0.0,0.0,0.0,0.0,0.0,0.0,0.0,0.0,0.0,0.0,0.0,0.0,0.0,0.0,0.1559,0.1564,0.1581,0.1609,0.1608,0.1608,0.1611,0.1582,0.1564,0.0,0.0,0.0,0.0,0.0,0.0,0.0,0.0,0.0,0.0,0.0,0.0,0.0,0.0,0.0,0.0,0.0,0.0,0.0,0.0,0.0,0.0,0.0,0.0,0.0,0.0,0.0,0.0,0.0,0.0,0.0,0.0,0.0,0.0,0.0,0.0,0.0,0.0,0.0,0.0,0.0,-0.1615,-0.1615,-0.1893,-0.2086,0.0,0.0,-0.242,-0.267,-0.2672,0.0,0.0,0.0,0.0,0.0,0.0,0.0,0.0,0.0,0.0,0.0,0.0,0.0,0.0,0.0,0.0,0.0,0.0,0.0,0.0,0.0,0.0,0.0,0.0,0.0,0.0,0.0,0.0,0.0,0.0,0.0,0.0,0.0,0.0,0.0,0.0,0.0,0.0,0.0,0.0,0.0,0.0,0.0,0.0,0.0,0.0,0.0,0.0,0.0,0.0,0.0,0.0,0.0,0.0,0.0,0.1553,0.1596,0.1614,0.1637,0.1665,0.1667,0.1667,0.1666,0.1638,0.1615,0.0,0.0,0.0,0.0,0.0,0.0,0.0,0.0,0.0,0.0,0.0,0.0,0.0,0.0,0.0,0.0,0.0,0.0,0.0,0.0,0.0,0.0,0.0,0.0,0.0,0.0,0.0,0.0,0.0,0.0,0.0,0.0,0.0,0.0,0.0,0.0,0.0,0.0,0.0,0.0,0.0,0.0,-0.1412,-0.1672,0.0,0.0,0.0,-0.2356,-0.244,0.0,0.0,0.0,0.0,0.0,0.0,0.0,0.0,0.0,0.0,0.0,0.0,0.0,0.0,0.0,0.0,0.0,0.0,0.0,0.0,0.0,0.0,0.0,0.0,0.0,0.0,0.0,0.0,0.0,0.0,0.0,0.0,0.0,0.0,0.0,0.0,0.0,0.0,0.0,0.0,0.0,0.0,0.0,0.0,0.0,0.0,0.0,0.0,0.0,0.0,0.0,0.0,0.0,0.0,0.0,0.0,0.0,0.1628,0.1658,0.1683,0.1703,0.1704,0.1704,0.1703,0.1683,0.0,0.0,0.0,0.0,0.0,0.0,0.0,0.0,0.0,0.0,0.0,0.0,0.0,0.0,0.0,0.0,0.0,0.0,0.0,0.0,0.0,0.0,0.0,0.0,0.0,0.0,0.0,-0.1761,0.0,0.0,0.0,0.0,0.0,0.0,0.0,0.0,0.0,0.0,0.0,0.0,0.0,0.0,-0.1358,-0.1358,-0.1534,-0.1624,0.0,0.0,-0.2223,-0.2222,-0.2309,-0.2304,0.0,0.0,0.0,0.0,0.0,0.0,0.0,0.0,0.0,0.0,0.0,0.0,0.0,0.0,0.0,0.0,0.0,0.0,0.0,0.0,0.0,0.0,0.0,0.0,0.0,0.0,0.0,0.0,0.0,0.0,0.0,0.0,0.0,0.0,0.0,0.0,0.0,0.0,0.0,0.0,0.0,0.0,0.0,0.0,0.0,0.0,0.0,0.0,0.0,0.0,0.0,0.0,0.0,0.0,0.1629,0.1659,0.1687,0.1703,0.1704,0.1704,0.1704,0.1704,0.1702,0.1688,0.0,0.0,0.0,0.0,0.0,0.0,0.0,0.0,0.0,0.0,0.0,0.0,0.0,0.0,0.0,0.0,0.0,0.0,0.0,0.0,0.0,0.0,0.0,0.0,0.0,0.0,0.0,0.0,0.0,0.0,0.0,0.0,0.0,0.0,0.0,0.0,0.0,0.0,0.0,0.0,0.0,-0.1387,-0.1387,-0.1411,-0.1518,0.0,-0.1787,-0.1877,-0.2146,-0.2235,-0.2219,-0.2175,0.0,0.0,0.0,0.0,0.0,0.0,0.0,0.0,0.0,0.0,0.0,0.0,0.0,0.0,0.0,0.0,0.0,0.0,0.0,0.0,0.0,0.0,0.0,0.0,0.0,0.0,0.0,0.0,0.0,0.0,0.0,0.0,0.0,0.0,0.0,0.0,0.0,0.0,0.0,0.0,0.0,0.0,0.0,0.0,0.0,0.0,0.0,0.0,0.0,0.0,0.0,0.0,0.0,0.1668,0.1822,0.1727,0.1742,0.1759,0.1761,0.176,0.176,0.1742,0.1727,0.0,0.0,0.0,0.0,0.0,0.0,0.0,0.0,0.0,0.0,0.0,0.0,0.0,0.0,0.0,0.0,0.0,0.0,0.0,0.0,0.0,0.0,0.0,0.0,0.0,0.0,0.0,0.0,-0.0842,-0.0842,-0.0842,0.0,0.0,0.0,0.0,0.0,0.0,0.0,0.0,0.0,0.0,-0.1446,-0.1446,-0.1472,0.0,0.0,-0.1771,-0.1864,-0.1958,-0.2051,-0.2045,-0.203,-0.1823,0.0,0.0,0.0,0.0,0.0,0.0,0.0,0.0,0.0,0.0,0.0,0.0,0.0,0.0,0.0,0.0,0.0,0.0,0.0,0.0,0.0,0.0,0.0,0.0,0.0,0.0,0.0,0.0,0.0,0.0,0.0,0.0,0.0,0.0,0.0,0.0,0.0,0.0,0.0,0.0,0.0,0.0,0.0,0.0,0.0,0.0,0.0,0.0,0.0,0.0,0.0,0.0,0.1709,0.1749,0.1767,0.1787,0.1808,0.1818,0.1822,0.1821,0.1793,0.1772,0.0,0.0,0.0,0.0,0.0,0.0,0.0,0.0,0.0,0.0,0.0,0.0,0.0,0.0,0.0,0.0,0.0,0.0,0.0,0.0,0.0,0.0,0.0,0.0,0.0,0.0,0.0,0.0,-0.0436,-0.0438,-0.0613,0.0,0.0,0.0,0.0,0.0,0.0,0.0,0.0,0.0,0.0,-0.1494,-0.1495,-0.1513,-0.1526,-0.1526,-0.1622,-0.1812,-0.1812,-0.1812,-0.1812,-0.1812,0.0,0.0,0.0,0.0,0.0,0.0,0.0,0.0,0.0,0.0,0.0,0.0,0.0,0.0,0.0,0.0,0.0,0.0,0.0,0.0,0.0,0.0,0.0,0.0,0.0,0.0,0.0,0.0,0.0,0.0,0.2687,0.0,0.0,0.0,0.0,0.0,0.0,0.0,0.0,0.0,0.0,0.0,0.0,0.0,0.0,0.0,0.0,0.0,0.0,0.0,0.0,0.0,0.0,0.1748,0.175,0.1808,0.1838,0.184,0.1868,0.1882,0.1881,0.1854,0.1824,0.1795,0.0,0.0,0.0,0.0,0.0,0.0,0.0,0.0,0.0,0.0,0.0,0.0,0.0,0.0,0.0,0.0,0.0,0.0,0.0,0.0,0.0,0.0,0.0,0.0,0.0,0.0,-0.0,-0.0,-0.019,0.0,0.0,0.0,0.0,0.0,0.0,0.0,0.0,0.0,0.0,-0.1524,-0.1525,-0.1525,-0.1525,-0.1529,-0.1528,-0.1528,-0.1527,-0.1528,-0.1528,-0.1526,0.0,0.0,0.0,0.0,0.0,0.0,0.0,0.0,0.0,0.0,0.0,0.0,0.0,0.0,0.0,0.0,0.0,0.0,0.0,0.0,0.0,0.0,0.0,0.0,0.0,0.0,0.0,0.2694,0.2696,0.0,0.0,0.0,0.0,0.0,0.0,0.0,0.0,0.0,0.0,0.0,0.3271,0.3311,0.0,0.0,0.0,0.0,0.0,0.0,0.0,0.0,0.0,0.0,0.0,0.0,0.177,0.1809,0.1829,0.1851,0.187,0.1881,0.1885,0.1885,0.1876,0.1856,0.1826,0.0,0.0,0.0,0.0,0.0,0.0,0.0,0.0,0.0,0.0,0.0,0.0,0.0,0.0,0.0,0.0,0.0,0.0,0.0,0.0,0.0,0.0,0.0,0.0,0.0,-0.0,0.0,0.0,0.0,0.0,0.0,0.0,0.0,0.0,0.0,0.0,0.0,-0.142,-0.1525,-0.1544,-0.1556,-0.1556,-0.1573,-0.1586,0.0,0.0,0.0,0.0,0.0,0.0,0.0,0.0,0.0,0.0,0.0,0.0,0.0,0.0,0.1514,0.1382,0.1558,0.1925,0.2107,0.0,0.0,0.0,0.0,0.0,0.0,0.0,0.0,0.0,0.0,0.0,0.0,0.0,0.0,0.2904,0.0,0.2948,0.0,0.0,0.0,0.0,0.0,0.0,0.0,0.0,0.3207,0.3256,0.3294,0.3438,0.348,0.0,0.3413,0.335,0.0,0.0,0.0,0.0,0.0,0.0,0.0,0.0,0.1801,0.1839,0.1861,0.1881,0.19,0.1912,0.1917,0.1917,0.1907,0.1887,0.1857,0.1837,0.1812,0.0,0.0,0.0,0.0,0.0,0.0,0.0,0.0,0.0,0.0,0.0,0.0,0.0,0.0,0.0,0.0,0.0,0.0,0.0,0.0,0.0,0.0,0.0,-0.0579,0.0,0.0,0.0,0.0,0.0,0.0,0.0,0.0,0.0,-0.1545,-0.1648,-0.1659,-0.167,-0.1599,-0.1618,-0.1618,0.0,0.0,0.0,0.0,0.0,0.0,0.0,-0.167,-0.1652,-0.1648,-0.1231,-0.0101,0.1011,0.1821,0.182,0.0,0.0,0.1863,0.1947,0.2141,0.2434,0.2626,0.2814,0.3085,0.308,0.3075,0.0,0.0,0.0,0.0,0.0,0.0,0.0,0.0,0.3052,0.3146,0.0,0.3055,0.0,0.0,0.0,0.0,0.0,0.321,0.0,0.0,0.3387,0.3418,0.3422,0.3425,0.3425,0.3424,0.3322,0.3321,0.3424,0.3425,0.0,0.0,0.0,0.0,0.0,0.0,0.1842,0.1847,0.1901,0.1931,0.1933,0.196,0.1975,0.1975,0.1947,0.1918,0.1889,0.1886,0.1872,0.1842,0.1812,0.0,0.0,0.0,0.0,0.0,0.0,0.0,0.0,0.0,0.0,0.0,0.0,0.0,0.0,0.0,0.0,0.0,0.0,0.0,0.0,-0.0974,0.0,0.0,0.0,0.0,0.0,0.0,0.0,0.0,0.0,0.0,-0.1687,-0.1703,-0.1732,-0.1762,0.0,0.0,0.0,0.0,-0.1703,-0.1703,-0.1703,-0.1703,-0.1703,-0.1705,-0.1705,-0.1706,0.0,0.0,0.1389,0.1818,0.1818,0.1709,0.2032,0.2327,0.2357,0.2232,0.2325,0.273,0.2932,0.3013,0.3066,0.3161,0.3142,0.3172,0.0,0.0,0.0,0.0,0.307,0.3098,0.3116,0.3161,0.3177,0.3181,0.3224,0.0,0.0,0.0,0.0,0.0,0.0,0.3391,0.3448,0.351,0.356,0.3604,0.3647,0.3668,0.3666,0.3553,0.3666,0.3668,0.3666,0.351,0.3207,0.0,0.0,0.0,0.0,0.1883,0.1904,0.1922,0.1941,0.1963,0.1972,0.1977,0.1977,0.1969,0.1949,0.1919,0.1918,0.1904,0.1874,0.1844,0.0,0.0,0.0,0.0,0.0,0.0,0.0,0.0,0.0,0.0,0.0,0.0,0.0,0.0,0.0,0.0,0.0,0.0,0.0,-0.1241,-0.1144,-0.1254,0.0,0.0,0.0,0.0,0.0,0.0,0.0,0.0,0.0,-0.2297,-0.1987,-0.1787,0.0,0.0,-0.2131,-0.2344,-0.2344,-0.2344,-0.2344,-0.2131,0.0,-0.2024,-0.1938,-0.173,-0.1711,-0.1617,-0.0764,0.1545,0.19,0.1915,0.2252,0.2388,0.2513,0.2939,0.282,0.2842,0.294,0.3149,0.3251,0.3339,0.3334,0.3327,0.3326,0.3194,0.3194,0.3194,0.3198,0.3232,0.3248,0.3251,0.3286,0.3303,0.3304,0.3341,0.3252,0.3256,0.3418,0.0,0.0,0.0,0.3549,0.3606,0.3642,0.3679,0.3715,0.3751,0.3768,0.3768,0.3768,0.3768,0.3768,0.3768,0.351,0.3002,0.0,0.0,0.2476,0.2136,0.1913,0.193,0.1943,0.1958,0.1976,0.1977,0.1977,0.1977,0.1977,0.1968,0.195,0.1949,0.1935,0.1905,0.1886,0.1857,0.0,0.0,0.0,0.0,0.0,0.0,0.0,0.0,0.0,0.0,0.0,0.166,0.1677,0.0,0.0,0.0,-0.064,-0.1814,-0.1814,-0.1494,0.0,0.0,0.0,0.0,0.0,0.0,0.0,-0.2437,-0.2441,-0.2552,-0.2664,-0.2441,-0.2208,-0.2398,-0.2406,-0.2532,-0.2662,0.0,-0.2775,-0.2664,-0.2553,-0.2441,-0.2332,-0.2128,-0.191,-0.1447,-0.0672,0.0113,0.1256,0.1731,0.209,0.2442,0.2576,0.2709,0.3179,0.3305,0.333,0.333,0.3442,0.354,0.3495,0.3481,0.3469,0.3441,0.344,0.3441,0.3432,0.342,0.3424,0.3429,0.3435,0.3439,0.344,0.3441,0.3441,0.344,0.3444,0.3714,0.0,0.3605,0.3659,0.3718,0.3777,0.3777,0.3778,0.3783,0.3789,0.379,0.379,0.3796,0.3797,0.38,0.3913,0.3579,0.2901,0.2858,0.2718,0.2487,0.2042,0.1935,0.1935,0.1962,0.1978,0.198,0.1977,0.1978,0.198,0.1978,0.1977,0.1977,0.1977,0.1964,0.1937,0.1932,0.1905,0.1851,0.0,0.0,0.0,0.0,0.0,0.0,0.0,0.0,0.0,0.0,0.0,0.0,0.0,0.0,0.0,-0.0538,0.0,-0.1829,-0.1827,0.0,0.0,0.0,-0.2394,-0.2694,-0.2705,-0.2735,-0.2933,0.0,0.0,-0.2943,-0.2943,-0.2912,-0.2833,-0.2855,-0.2893,-0.2937,-0.2935,-0.2943,-0.3048,-0.2939,-0.2823,-0.2458,-0.2346,-0.1996,-0.1057,0.0708,0.1651,0.13,0.1539,0.2012,0.2368,0.2601,0.2956,0.331,0.3545,0.3783,0.3777,0.3767,0.3729,0.3628,0.3602,0.3575,0.3453,0.3684,0.3685,0.3605,0.3481,0.3526,0.3572,0.3619,0.3665,0.3685,0.3685,0.3684,0.3684,0.3684,0.3814,0.3828,0.3726,0.3741,0.3781,0.3837,0.3839,0.3862,0.3909,0.3951,0.3971,0.3974,0.4019,0.3915,0.3659,0.3873,0.361,0.2619,0.2582,0.2441,0.2077,0.1962,0.1966,0.1966,0.1973,0.1987,0.2007,0.1988,0.1987,0.2008,0.1988,0.1977,0.1977,0.1977,0.1973,0.1965,0.1943,0.1924,0.1911,0.1888,0.0,0.0,0.0,0.0,0.0,0.0,0.0,0.0,0.0,0.1502,0.1085,0.0,0.033,0.0,-0.1029,-0.2074,-0.242,-0.2304,0.0,0.0,-0.2761,-0.277,-0.2792,-0.2794,-0.2918,-0.3175,-0.3178,-0.3297,-0.3532,-0.3533,-0.3541,-0.3555,-0.3413,-0.3283,-0.3531,-0.3651,-0.3533,-0.3536,-0.3302,-0.3061,-0.2713,-0.2356,-0.1777,-0.0958,0.072,0.1928,0.1829,0.1833,0.2198,0.2686,0.293,0.3172,0.3661,0.3786,0.3906,0.3901,0.3835,0.3763,0.373,0.3725,0.3717,0.3178,0.3414,0.3414,0.3259,0.3201,0.3551,0.3687,0.3721,0.3755,0.3768,0.3768,0.3768,0.3768,0.3771,0.3797,0.3809,0.3812,0.3837,0.3882,0.3936,0.3937,0.397,0.4029,0.406,0.4075,0.4075,0.3853,0.3737,0.3607,0.3326,0.3058,0.2548,0.2401,0.2266,0.2014,0.199,0.1977,0.1977,0.1989,0.2009,0.2037,0.2024,0.2017,0.2018,0.2004,0.1989,0.1977,0.1977,0.1977,0.1977,0.196,0.1945,0.1932,0.1915,0.19,0.0,0.0,0.0,0.0,0.0,0.0,0.0,0.0,0.0,0.0,0.0,-0.1026,-0.1161,-0.1876,-0.2357,-0.271,-0.271,-0.2709,-0.3061,-0.3061,-0.3186,-0.333,-0.3331,-0.346,-0.3486,-0.3609,-0.3618,-0.3883,-0.3887,-0.391,-0.397,-0.3825,-0.3664,-0.386,-0.385,-0.385,-0.3849,-0.3729,-0.3377,-0.2911,-0.2309,-0.171,-0.0991,0.0124,0.1248,0.1886,0.2016,0.2267,0.2896,0.3022,0.3265,0.3745,0.3986,0.3981,0.3948,0.3898,0.3845,0.3816,0.3809,0.3804,0.2854,0.286,0.286,0.2883,0.2916,0.3477,0.3688,0.3673,0.3673,0.3673,0.3673,0.3673,0.3797,0.3808,0.386,0.3887,0.3898,0.395,0.3999,0.4045,0.4046,0.4075,0.4124,0.4132,0.4136,0.4009,0.3755,0.3499,0.35,0.2718,0.2329,0.2458,0.2195,0.2065,0.2062,0.2013,0.1988,0.1988,0.2011,0.2039,0.2068,0.2195,0.2181,0.2031,0.2022,0.2007,0.1983,0.1978,0.1977,0.1977,0.1977,0.1964,0.1938,0.1937,0.1926,0.0,0.1894,0.0,0.0,0.0,0.0,0.0,0.0,0.0,0.0,-0.1417,-0.2247,-0.2601,-0.2606,-0.2727,-0.2961,-0.2961,-0.3082,-0.3325,-0.3327,-0.3587,-0.3886,-0.3894,-0.3914,-0.3967,-0.3973,-0.3992,-0.4034,-0.4046,-0.4067,-0.4105,-0.4108,-0.4071,-0.3996,-0.3973,-0.3973,-0.3973,-0.3849,-0.3614,-0.3022,-0.2401,-0.1776,-0.1284,-0.0514,0.0387,0.1674,0.1932,0.2191,0.2837,0.3091,0.3336,0.3802,0.392,0.403,0.3991,0.3977,0.3951,0.3891,0.3872,0.3854,0.2761,0.3045,0.3045,0.305,0.3058,0.3177,0.3254,0.3181,0.318,0.318,0.318,0.3302,0.3449,0.349,0.3501,0.3654,0.4075,0.4087,0.4098,0.4109,0.4108,0.4115,0.4128,0.4176,0.4068,0.3807,0.3717,0.3471,0.2804,0.2773,0.2627,0.2231,0.2076,0.2065,0.2063,0.0,0.0,0.0,0.2052,0.207,0.2099,0.2077,0.2073,0.209,0.2044,0.0,0.201,0.1989,0.1977,0.1977,0.1977,0.0,0.0,0.0,0.0,0.0,0.0,0.0,0.0,0.0,0.0,0.0,-0.1459,-0.1454,-0.1655,-0.2147,-0.2523,-0.2401,-0.2672,-0.3058,-0.3305,-0.3426,-0.3565,-0.3854,-0.3859,-0.3883,-0.4067,-0.4074,-0.408,-0.409,-0.4091,-0.4095,-0.4105,-0.4109,-0.4113,-0.413,-0.4125,-0.4116,-0.4098,-0.409,-0.409,-0.4093,-0.3828,-0.3581,-0.3082,-0.2569,-0.2057,-0.1805,-0.0903,0.0129,0.1034,0.1808,0.2194,0.2584,0.2968,0.3226,0.3595,0.3851,0.4104,0.4094,0.409,0.406,0.3956,0.3933,0.3929,0.2434,0.0,0.2581,0.2581,0.0,0.2581,0.2558,0.2523,0.2902,0.3028,0.3029,0.3155,0.3294,0.3319,0.3319,0.3331,0.3612,0.3612,0.3625,0.365,0.3651,0.3663,0.3688,0.3715,0.3593,0.3461,0.3353,0.3098,0.2693,0.2541,0.2399,0.2131,0.2116,0.2108,0.2109,0.2109,0.2101,0.2086,0.2086,0.2101,0.2129,0.2116,0.2108,0.2108,0.208,0.0,0.0,0.0,0.0,0.0,0.0,0.0,0.0,0.0,0.0,0.0999,0.0985,0.0122,-0.1851,-0.2346,-0.2477,-0.2495,-0.264,-0.2617,-0.2297,-0.2692,-0.2839,-0.2962,-0.3126,-0.3405,-0.3784,-0.3784,-0.3923,-0.4076,-0.408,-0.4093,-0.4119,-0.4125,-0.4125,-0.4125,-0.4125,-0.4135,-0.4166,-0.417,-0.4184,-0.421,-0.4215,-0.4213,-0.421,-0.4162,-0.4125,-0.4125,-0.3995,-0.3621,-0.3125,-0.2869,-0.2486,-0.2104,-0.1318,-0.0395,0.0395,0.1449,0.2241,0.2372,0.2637,0.3026,0.3523,0.3779,0.3901,0.4134,0.4125,0.411,0.4048,0.4037,0.4038,0.2075,0.208,0.208,0.208,0.208,0.208,0.208,0.2209,0.0,0.0,0.0,0.2968,0.2972,0.2979,0.298,0.3113,0.3121,0.312,0.3141,0.3176,0.3177,0.3194,0.3227,0.3227,0.3229,0.3095,0.2828,0.2694,0.2559,0.229,0.2155,0.2155,0.2155,0.2155,0.2155,0.2155,0.2142,0.2119,0.2117,0.2129,0.2154,0.2155,0.2143,0.2118,0.2112,0.2097,0.2073,0.2067,0.2064,0.2064,0.2064,0.1677,0.0902,-0.0,-0.038,-0.038,-0.0376,-0.0876,-0.2155,-0.2789,-0.3057,-0.3094,-0.3484,-0.3321,-0.274,-0.3019,-0.3294,-0.3548,-0.3585,-0.3865,-0.4125,-0.4125,-0.413,-0.4139,-0.4142,-0.4146,-0.4157,-0.4158,-0.4164,-0.4157,-0.4164,-0.4176,-0.4225,-0.4233,-0.4249,-0.4293,-0.4297,-0.4307,-0.4296,-0.4225,-0.4169,-0.4169,-0.4174,-0.3919,-0.3428,-0.3176,-0.2926,-0.228,-0.1748,-0.0943,-0.0135,0.0943,0.1751,0.215,0.2425,0.2812,0.3315,0.357,0.3688,0.4038,0.4027,0.4027,0.4157,0.4158,0.4149,0.2117,0.2142,0.2142,0.2142,0.2142,0.2142,0.2142,0.2138,0.2217,0.2194,0.2194,0.2194,0.2469,0.263,0.2629,0.2911,0.3209,0.321,0.3214,0.3219,0.322,0.3223,0.3227,0.3227,0.3095,0.2828,0.2695,0.2559,0.229,0.2155,0.2155,0.2155,0.2155,0.2155,0.2155,0.2155,0.2153,0.2148,0.2148,0.2151,0.2155,0.2155,0.2153,0.2147,0.2123,0.2108,0.2234,0.2079,0.2064,0.2065,0.2066,0.142,0.0129,-0.116,-0.1931,-0.1801,-0.1797,-0.2053,-0.2701,-0.2958,-0.309,-0.3096,-0.374,-0.3733,-0.308,-0.3338,-0.3597,-0.3599,-0.3867,-0.3995,-0.4125,-0.413,-0.4153,-0.4195,-0.4203,-0.4222,-0.4268,-0.4275,-0.4274,-0.4273,-0.4281,-0.4278,-0.4285,-0.429,-0.4292,-0.4304,-0.4307,-0.4307,-0.4304,-0.4294,-0.4282,-0.4282,-0.4282,-0.4151,-0.375,-0.3353,-0.2953,-0.2287,-0.2155,-0.1616,-0.0404,0.0135,0.0808,0.1885,0.2155,0.2422,0.2817,0.3086,0.3345,0.3732,0.3865,0.3869,0.4134,0.4135,0.4244,0.2142,0.2155,0.2155,0.2155,0.2155,0.2155,0.2155,0.2153,0.2125,0.2113,0.2113,0.2113,0.2253,0.24,0.2401,0.2408,0.2692,0.2691,0.2691,0.2692,0.2691,0.2691,0.2691,0.2691,0.2558,0.2425,0.2425,0.229,0.2155,0.2155,0.2155,0.2155,0.2155,0.2155,0.2155,0.2155,0.2155,0.2155,0.2155,0.2155,0.2155,0.2155,0.2155,0.2155,0.214,0.2134,0.2134,0.2121,0.1717,0.0924,0.0924,0.0264,-0.1188,-0.1836,-0.222,-0.248,-0.2202,-0.233,-0.3003,-0.3288,-0.3566,-0.3697,-0.4093,-0.4093,-0.3831,-0.3802,-0.3913,-0.3915,-0.4071,-0.4224,-0.4225,-0.4224,-0.4236,-0.4262,-0.4266,-0.4277,-0.43,-0.4307,-0.4307,-0.4307,-0.4307,-0.4307,-0.4307,-0.4307,-0.4307,-0.4307,-0.4307,-0.4307,-0.4307,-0.4307,-0.4307,-0.4307,-0.4307,-0.4171,-0.3901,-0.3632,-0.323,-0.2559,-0.229,-0.1885,-0.1212,-0.0673,0.0269,0.0943,0.1616,0.2155,0.2425,0.2558,0.2827,0.3362,0.3497,0.3497,0.3632,0.3767,0.3882,0.2155,0.2155,0.2155,0.2155,0.2155,0.2155,0.2155,0.2155,0.2155,0.2155,0.2155,0.2155,0.2155,0.2155,0.2155,0.2155,0.2155,0.2155,0.2155,0.2155,0.2155,0.2155,0.2155,0.2155,0.2155,0.2155,0.2155,0.2155,0.2155,0.2155,0.2155,0.2155,0.2155,0.2155,0.2155,0.2155,0.2155,0.2155,0.2155,0.2155,0.2155,0.2155,0.2155,0.2155,0.2155,0.2155,0.202,0.1751,0.1212,0.0135,-0.0135,-0.0943,-0.2289,-0.2266,-0.2517,-0.2779,-0.2621,-0.2618,-0.3443,-0.3745,-0.4037,-0.4307,-0.4307,-0.4307,-0.4303,-0.4266,-0.4237,-0.4243,-0.4278,-0.4303,-0.4301,-0.4303,-0.4307,-0.4307,-0.4307,-0.4304,-0.4307,-0.4307,-0.4307,-0.4307,-0.4307,-0.4307,-0.4307,-0.4307,-0.4307,-0.4307,-0.4307,-0.4307,-0.4307,-0.4307,-0.4307,-0.4307,-0.4307,-0.4172,-0.3902,-0.3767,-0.3499,-0.2828,-0.2558,-0.2289,-0.202,-0.1212,-0.0404,-0.0,0.0943,0.1616,0.1885,0.2155,0.2424,0.2826,0.296,0.2959,0.3229,0.3228,0.3362,0.2155,0.2155,0.2155,0.2155,0.2155,0.2155,0.2155,0.2155,0.2155,0.2155,0.2155,0.2155,0.2155,0.2155,0.2155,0.2155,0.2155,0.2155,0.2155,0.2155,0.2155,0.2155,0.2155,0.2155,0.2155,0.2155,0.2155,0.2155,0.2155,0.2155,0.2155,0.2155,0.2155,0.2155,0.2155,0.2156,0.2155,0.2155,0.2155,0.2155,0.2155,0.2155,0.2155,0.2155,0.2155,0.1885,0.1212,0.0539,0.0135,-0.0,-0.0673,-0.1481,-0.2694,-0.2825,-0.2956,-0.3088,-0.3082,-0.3488,-0.4163,-0.417,-0.4307,-0.4307,-0.4307,-0.4307,-0.4307,-0.4301,-0.4298,-0.4298,-0.4303,-0.4307,-0.4307,-0.4307,-0.4307,-0.4307,-0.4307,-0.4307,-0.4307,-0.4307,-0.4307,-0.4307,-0.4307,-0.4307,-0.4307,-0.4307,-0.4307,-0.4307,-0.4307,-0.4307,-0.4307,-0.4307,-0.4307,-0.4307,-0.4307,-0.4307,-0.4172,-0.4037,-0.3632,-0.3229,-0.2827,-0.2558,-0.2289,-0.202,-0.1616,-0.0539,-0.0,0.0539,0.1212,0.1616,0.2155,0.2289,0.2289,0.2558,0.2959,0.3094,0.3362,0.2155,0.2155,0.2155,0.2155,0.2155,0.2155,0.2155,0.2155,0.2155,0.2155,0.2155,0.2155,0.2155,0.2155,0.2155,0.2155,0.2155,0.2155,0.2155,0.2155,0.2155,0.2155,0.2155,0.2155,0.2155,0.2155,0.2155,0.2155,0.2155,0.2155,0.2155,0.2155,0.2155,0.2163,0.2179,0.2182,0.2053,0.1518,0.1932,0.1794,0.0964,0.1357,0.1616,0.1616,0.202,0.1616,0.0404,-0.0673,-0.1346,-0.1346,-0.1885,-0.2425,-0.2829,-0.2962,-0.323,-0.3498,-0.3767,-0.3902,-0.4307,-0.4307,-0.4307,-0.4307,-0.4307,-0.4307,-0.4307,-0.4307,-0.4307,-0.4307,-0.4307,-0.4307,-0.4307,-0.4307,-0.4307,-0.4307,-0.4307,-0.4307,-0.4307,-0.4307,-0.4307,-0.4307,-0.4307,-0.4307,-0.4307,-0.4307,-0.4307,-0.4307,-0.4307,-0.4307,-0.4307,-0.4307,-0.4307,-0.4307,-0.4307,-0.4307,-0.4307,-0.4172,-0.3902,-0.3633,-0.323,-0.2827,-0.2558,-0.229,-0.1885,-0.1346,-0.0943,-0.0404,0.0269,0.0673,0.0943,0.1346,0.202,0.2289,0.2557,0.2558,0.2692,0.2155,0.2155,0.2155,0.2155,0.2155,0.2155,0.2155,0.2155,0.2155,0.2155,0.2155,0.2155,0.2155,0.2155,0.2155,0.2155,0.2155,0.2155,0.2155,0.2155,0.2155,0.2155,0.2155,0.2155,0.2155,0.2155,0.2155,0.2155,0.2156,0.2164,0.2167,0.2168,0.2175,0.2191,0.221,0.2212,0.1667,0.0841,0.0982,0.0561,-0.028,-0.0,0.0272,0.0545,0.1226,0.0953,-0.0545,-0.1906,-0.2451,-0.2451,-0.286,-0.3133,-0.3133,-0.3257,-0.3512,-0.3903,-0.4171,-0.4307,-0.4307,-0.4307,-0.4307,-0.4307,-0.4307,-0.4307,-0.4307,-0.4307,-0.4307,-0.4307,-0.4307,-0.4307,-0.4307,-0.4307,-0.4307,-0.4307,-0.4307,-0.4307,-0.4307,-0.4307,-0.4307,-0.4307,-0.4307,-0.4307,-0.4307,-0.4307,-0.4307,-0.4307,-0.4307,-0.4307,-0.4307,-0.4307,-0.4307,-0.4307,-0.4307,-0.4307,-0.4307,-0.4307,-0.4171,-0.3901,-0.3498,-0.323,-0.2828,-0.2425,-0.229,-0.1751,-0.1616,-0.1346,-0.0808,-0.0539,-0.0,0.0673,0.1346,0.1751,0.1885,0.1885,0.1885,0.2155,0.2155,0.2155,0.2156,0.2155,0.2156,0.2157,0.2161,0.2158,0.2157,0.2159,0.2159,0.2156,0.2159,0.2161,0.2156,0.2155,0.2155,0.2155,0.2155,0.2155,0.2155,0.2155,0.2155,0.2155,0.2155,0.2159,0.2159,0.2161,0.2185,0.2198,0.22,0.2223,0.224,0.2243,0.2103,0.1403,-0.0,-0.1126,-0.1686,-0.1264,-0.1823,-0.1681,-0.112,-0.028,-0.0559,-0.1958,-0.2938,-0.3216,-0.3077,-0.3213,-0.3496,-0.3774,-0.3869,-0.3959,-0.4187,-0.4312,-0.4312,-0.4315,-0.4318,-0.4316,-0.4313,-0.4322,-0.4312,-0.4324,-0.4324,-0.4324,-0.4312,-0.4323,-0.432,-0.432,-0.4322,-0.4315,-0.4315,-0.4313,-0.4316,-0.4313,-0.4326,-0.4309,-0.4315,-0.4323,-0.4328,-0.4316,-0.4307,-0.432,-0.432,-0.4313,-0.4318,-0.4326,-0.4318,-0.4319,-0.4316,-0.4313,-0.4308,-0.4307,-0.4307,-0.4171,-0.3902,-0.3768,-0.3499,-0.3097,-0.2694,-0.2425,-0.229,-0.202,-0.202,-0.1885,-0.1481,-0.0808,-0.0135,0.0539,0.0943,0.0808,0.1077,0.1077,0.2155,0.2155,0.2155,0.2166,0.2183,0.2183,0.2194,0.2212,0.2213,0.2213,0.2213,0.2213,0.2213,0.2213,0.2213,0.2191,0.2157,0.2155,0.2155,0.2155,0.2155,0.2155,0.2155,0.2155,0.2155,0.2157,0.2174,0.2193,0.2213,0.2225,0.2229,0.223,0.2239,0.2254,0.1987,0.1137,-0.0,-0.1438,-0.2015,-0.2303,-0.2443,-0.2733,-0.2733,-0.2587,-0.1838,-0.1822,-0.2664,-0.3225,-0.3365,-0.3225,-0.3506,-0.3786,-0.3925,-0.4186,-0.4304,-0.4424,-0.4418,-0.442,-0.442,-0.442,-0.4418,-0.442,-0.4418,-0.4414,-0.442,-0.442,-0.442,-0.4418,-0.4417,-0.442,-0.4413,-0.4388,-0.4367,-0.4369,-0.4398,-0.4414,-0.4418,-0.4418,-0.442,-0.442,-0.442,-0.442,-0.4413,-0.4418,-0.442,-0.442,-0.442,-0.4416,-0.4417,-0.4418,-0.4403,-0.4375,-0.4364,-0.4352,-0.4308,-0.4307,-0.4172,-0.4171,-0.3902,-0.3632,-0.323,-0.2828,-0.2558,-0.229,-0.229,-0.2155,-0.202,-0.202,-0.1346,-0.0943,-0.0269,-0.0269,-0.0269,-0.0135,-0.0,0.2184,0.2184,0.2184,0.2196,0.2213,0.2215,0.2226,0.2245,0.2245,0.2245,0.2245,0.2245,0.2245,0.2245,0.2245,0.2225,0.2187,0.2184,0.2183,0.2184,0.2184,0.2184,0.2184,0.2184,0.2184,0.2187,0.2204,0.2226,0.2245,0.2256,0.226,0.226,0.1985,0.1713,0.1295,-0.0,-0.1303,-0.2187,-0.2481,-0.2771,-0.3063,-0.3209,-0.3355,-0.3347,-0.3009,-0.298,-0.3266,-0.3692,-0.3832,-0.3691,-0.3976,-0.4111,-0.4095,-0.4373,-0.4503,-0.4485,-0.4481,-0.4481,-0.4481,-0.4481,-0.4481,-0.4481,-0.4481,-0.4481,-0.4481,-0.4481,-0.4481,-0.4481,-0.4481,-0.4481,-0.448,-0.4465,-0.4447,-0.4435,-0.4461,-0.4481,-0.4481,-0.448,-0.4478,-0.4476,-0.4473,-0.4478,-0.4482,-0.448,-0.4478,-0.4481,-0.4481,-0.4481,-0.4481,-0.4481,-0.4473,-0.4435,-0.4427,-0.4412,-0.439,-0.4386,-0.4338,-0.4192,-0.418,-0.3773,-0.3363,-0.3096,-0.2693,-0.2424,-0.229,-0.229,-0.2155,-0.2155,-0.1885,-0.1481,-0.1346,-0.1212,-0.1346,-0.1346,-0.1077,0.2243,0.2241,0.2245,0.2242,0.2245,0.2245,0.2247,0.2252,0.2251,0.2256,0.2258,0.2251,0.2256,0.2251,0.2256,0.2248,0.2246,0.2246,0.2241,0.2237,0.2238,0.2238,0.2237,0.2236,0.2238,0.2241,0.2245,0.2247,0.2254,0.2279,0.2291,0.2152,0.1737,0.0872,-0.0,-0.1311,-0.2187,-0.248,-0.277,-0.3063,-0.2917,-0.3354,-0.3501,-0.3646,-0.3781,-0.3777,-0.3638,-0.4218,-0.4357,-0.4216,-0.4508,-0.4632,-0.4582,-0.4574,-0.4549,-0.4508,-0.4492,-0.4489,-0.4491,-0.4496,-0.4503,-0.4503,-0.4492,-0.4503,-0.4508,-0.4501,-0.4501,-0.4504,-0.4501,-0.4495,-0.4506,-0.4538,-0.4542,-0.4496,-0.4497,-0.4504,-0.4497,-0.4489,-0.4486,-0.4496,-0.4503,-0.4489,-0.4488,-0.4504,-0.451,-0.4508,-0.4506,-0.4508,-0.4512,-0.4514,-0.4493,-0.4484,-0.4482,-0.4473,-0.4474,-0.4473,-0.4405,-0.4352,-0.4335,-0.4053,-0.3636,-0.3363,-0.2961,-0.2693,-0.229,-0.229,-0.2155,-0.2155,-0.2155,-0.1885,-0.202,-0.202,-0.1885,-0.1885,-0.202,0.2245,0.2245,0.2245,0.2258,0.2275,0.2277,0.2287,0.2305,0.2305,0.2305,0.2306,0.2305,0.2305,0.2305,0.2305,0.2305,0.2305,0.2305,0.2285,0.2252,0.2247,0.2247,0.2247,0.2247,0.2257,0.2273,0.2277,0.2287,0.2303,0.2314,0.232,0.2179,0.2039,0.073,-0.146,-0.2044,-0.2481,-0.2771,-0.2917,-0.3208,-0.3644,-0.379,-0.4081,-0.4374,-0.4373,-0.4373,-0.4373,-0.4519,-0.4665,-0.4518,-0.4665,-0.4655,-0.4639,-0.4635,-0.4628,-0.4612,-0.4608,-0.4608,-0.4608,-0.4605,-0.4602,-0.4606,-0.4605,-0.4608,-0.4608,-0.4604,-0.4604,-0.4605,-0.4608,-0.4608,-0.4612,-0.4623,-0.4606,-0.4551,-0.4582,-0.4601,-0.4598,-0.4602,-0.4608,-0.4608,-0.4608,-0.4608,-0.4606,-0.4604,-0.4597,-0.4598,-0.46,-0.46,-0.4604,-0.4594,-0.4585,-0.4557,-0.4549,-0.4533,-0.4523,-0.4516,-0.4478,-0.4422,-0.4394,-0.4365,-0.3936,-0.3508,-0.3237,-0.2692,-0.2424,-0.229,-0.2155,-0.2155,-0.2155,-0.2155,-0.2155,-0.2155,-0.2155,-0.2155,-0.2155,0.2278,0.2278,0.2277,0.2288,0.2306,0.2307,0.2316,0.2332,0.2333,0.2333,0.2333,0.2333,0.2333,0.2333,0.2333,0.2333,0.2333,0.2333,0.2313,0.2282,0.2277,0.2277,0.2278,0.2278,0.2286,0.2303,0.2306,0.2315,0.2332,0.2333,0.2188,0.1898,0.1606,0.0438,-0.1752,-0.2336,-0.2772,-0.3063,-0.3208,-0.3644,-0.408,-0.4227,-0.4518,-0.4665,-0.4665,-0.4665,-0.4665,-0.4665,-0.4665,-0.4665,-0.4665,-0.4665,-0.4665,-0.4664,-0.4665,-0.4665,-0.4665,-0.4662,-0.4665,-0.4658,-0.4665,-0.4665,-0.4665,-0.4664,-0.4664,-0.4665,-0.4665,-0.4665,-0.4662,-0.4665,-0.4664,-0.4665,-0.4646,-0.4613,-0.4638,-0.4664,-0.4665,-0.4665,-0.4662,-0.4658,-0.466,-0.4665,-0.4665,-0.4665,-0.4665,-0.4665,-0.4665,-0.4665,-0.4665,-0.4661,-0.4635,-0.4616,-0.461,-0.459,-0.4563,-0.4552,-0.4544,-0.4504,-0.4465,-0.4432,-0.4129,-0.3821,-0.3399,-0.2835,-0.2425,-0.229,-0.2155,-0.2155,-0.2155,-0.2155,-0.2155,-0.2155,-0.2155,-0.2155,-0.2155,0.2332,0.2333,0.2332,0.2329,0.233,0.233,0.233,0.2333,0.2333,0.2333,0.2333,0.2333,0.2333,0.2333,0.2333,0.2333,0.2333,0.2333,0.2331,0.2326,0.2325,0.2324,0.2322,0.2322,0.2324,0.2328,0.2329,0.2331,0.2333,0.2333,0.1896,0.1314,0.0438,-0.0438,-0.146,-0.248,-0.3063,-0.3063,-0.3644,-0.408,-0.4226,-0.4518,-0.4665,-0.4665,-0.4665,-0.4665,-0.4665,-0.4665,-0.4665,-0.4665,-0.4665,-0.4665,-0.4665,-0.4665,-0.4665,-0.4665,-0.4665,-0.4665,-0.4665,-0.4665,-0.4665,-0.4665,-0.4665,-0.4665,-0.4665,-0.4665,-0.4665,-0.4665,-0.4665,-0.4665,-0.4665,-0.4665,-0.4661,-0.4664,-0.4662,-0.4665,-0.4665,-0.4665,-0.4665,-0.4665,-0.4665,-0.4665,-0.4665,-0.4665,-0.4665,-0.4665,-0.4665,-0.4665,-0.4665,-0.4665,-0.4665,-0.4657,-0.4647,-0.4638,-0.4608,-0.4606,-0.46,-0.4579,-0.4538,-0.4501,-0.4321,-0.4005,-0.3561,-0.2854,-0.2431,-0.2294,-0.2155,-0.2155,-0.2155,-0.2155,-0.2155,-0.2155,-0.2155,-0.2155,-0.2155,0.2333,0.2333,0.2333,0.2333,0.2333,0.2333,0.2333,0.2333,0.2333,0.2333,0.2333,0.2333,0.2333,0.2333,0.2333,0.2333,0.2333,0.2333,0.2333,0.2333,0.2333,0.2333,0.2333,0.2333,0.2333,0.2333,0.2333,0.2333,0.2333,0.2334,0.1897,0.1168,-0.0584,-0.1752,-0.2189,-0.2771,-0.3209,-0.3354,-0.3789,-0.4227,-0.4518,-0.4665,-0.4665,-0.4665,-0.4665,-0.4665,-0.4665,-0.4665,-0.4665,-0.4665,-0.4665,-0.4665,-0.4665,-0.4665,-0.4665,-0.4665,-0.4665,-0.4665,-0.4665,-0.4665,-0.4665,-0.4665,-0.4665,-0.4665,-0.4665,-0.4665,-0.4665,-0.4665,-0.4665,-0.4665,-0.4665,-0.4665,-0.4665,-0.4665,-0.4665,-0.4665,-0.4665,-0.4665,-0.4665,-0.4665,-0.4665,-0.4665,-0.4665,-0.4665,-0.4665,-0.4665,-0.4665,-0.4665,-0.4665,-0.4665,-0.4665,-0.4665,-0.466,-0.4662,-0.466,-0.466,-0.4654,-0.4645,-0.4612,-0.4572,-0.424,-0.391,-0.3463,-0.2885,-0.2595,-0.2316,-0.2299,-0.2155,-0.2155,-0.2155,-0.2155,-0.2155,-0.2155,-0.2155,-0.2155,0.2333,0.2333,0.2333,0.2333,0.2333,0.2333,0.2333,0.2333,0.2333,0.2333,0.2333,0.2333,0.2333,0.2333,0.2333,0.2333,0.2333,0.2333,0.2333,0.2333,0.2333,0.2333,0.2333,0.2333,0.2333,0.2333,0.2333,0.2333,0.2333,0.2335,0.1898,0.1022,-0.0876,-0.1898,-0.2336,-0.2918,-0.3355,-0.35,-0.4081,-0.4518,-0.4665,-0.4665,-0.4665,-0.4665,-0.4665,-0.4665,-0.4665,-0.4665,-0.4665,-0.4665,-0.4665,-0.4665,-0.4665,-0.4665,-0.4665,-0.4665,-0.4665,-0.4665,-0.4665,-0.4665,-0.4665,-0.4665,-0.4665,-0.4665,-0.4665,-0.4665,-0.4665,-0.4665,-0.4665,-0.4665,-0.4665,-0.4665,-0.4665,-0.4665,-0.4665,-0.4665,-0.4665,-0.4665,-0.4665,-0.4665,-0.4665,-0.4665,-0.4665,-0.4665,-0.4665,-0.4665,-0.4665,-0.4665,-0.4665,-0.4665,-0.4665,-0.4665,-0.4665,-0.4665,-0.4665,-0.4665,-0.4665,-0.4661,-0.4653,-0.462,-0.4434,-0.3955,-0.3647,-0.3202,-0.2765,-0.247,-0.2315,-0.2299,-0.2155,-0.2155,-0.2155,-0.2155,-0.2155,-0.2155,-0.2155,0.2333,0.2333,0.2333,0.2333,0.2333,0.2333,0.2333,0.2333,0.2333,0.2333,0.2333,0.2333,0.2333,0.2333,0.2333,0.2333,0.2333,0.2333,0.2333,0.2333,0.2333,0.2333,0.2333,0.2333,0.2333,0.2333,0.2333,0.2333,0.2333,0.2335,0.1898,0.1022,-0.0438,-0.1606,-0.2336,-0.3065,-0.3501,-0.3646,-0.4228,-0.4665,-0.4665,-0.4665,-0.4665,-0.4665,-0.4665,-0.4665,-0.4665,-0.4665,-0.4665,-0.4665,-0.4665,-0.4665,-0.4665,-0.4665,-0.4665,-0.4665,-0.4665,-0.4665,-0.4665,-0.4665,-0.4665,-0.4665,-0.4665,-0.4665,-0.4665,-0.4665,-0.4665,-0.4665,-0.4665,-0.4665,-0.4665,-0.4665,-0.4665,-0.4665,-0.4665,-0.4665,-0.4665,-0.4665,-0.4665,-0.4665,-0.4665,-0.4665,-0.4665,-0.4665,-0.4665,-0.4665,-0.4665,-0.4665,-0.4665,-0.4665,-0.4665,-0.4665,-0.4665,-0.4665,-0.4665,-0.4665,-0.4665,-0.4664,-0.4664,-0.4643,-0.4617,-0.429,-0.3838,-0.3531,-0.3087,-0.2639,-0.2471,-0.2317,-0.2302,-0.2155,-0.2155,-0.2155,-0.2155,-0.2155,-0.2155,0.2333,0.2333,0.2333,0.2333,0.2333,0.2333,0.2333,0.2333,0.2333,0.2333,0.2333,0.2333,0.2333,0.2333,0.2333,0.2333,0.2333,0.2333,0.2333,0.2333,0.2333,0.2333,0.2333,0.2333,0.2333,0.2333,0.2333,0.2333,0.2333,0.2189,0.1898,0.1022,-0.0292,-0.1606,-0.2336,-0.3065,-0.3501,-0.3647,-0.4228,-0.4665,-0.4665,-0.4665,-0.4665,-0.4665,-0.4665,-0.4665,-0.4665,-0.4665,-0.4665,-0.4665,-0.4665,-0.4665,-0.4665,-0.4665,-0.4665,-0.4665,-0.4665,-0.4665,-0.4665,-0.4665,-0.4665,-0.4665,-0.4665,-0.4665,-0.4665,-0.4665,-0.4665,-0.4665,-0.4665,-0.4665,-0.4665,-0.4665,-0.4665,-0.4665,-0.4665,-0.4665,-0.4665,-0.4665,-0.4665,-0.4665,-0.4665,-0.4665,-0.4665,-0.4665,-0.4665,-0.4665,-0.4665,-0.4665,-0.4665,-0.4665,-0.4665,-0.4665,-0.4665,-0.4665,-0.4665,-0.4665,-0.4665,-0.4665,-0.4665,-0.4664,-0.4639,-0.4482,-0.4168,-0.3719,-0.3276,-0.2955,-0.2632,-0.2335,-0.2319,-0.2304,-0.2155,-0.2155,-0.2155,-0.2155,-0.2155,0.2333,0.2333,0.2333,0.2333,0.2333,0.2333,0.2333,0.2333,0.2333,0.2333,0.2333,0.2333,0.2333,0.2333,0.2333,0.2333,0.2333,0.2333,0.2333,0.2333,0.2333,0.2333,0.2333,0.2333,0.2333,0.2333,0.2333,0.2333,0.2333,0.2189,0.1898,0.1168,-0.0438,-0.146,-0.2336,-0.3065,-0.3501,-0.3647,-0.4228,-0.4665,-0.4665,-0.4665,-0.4665,-0.4665,-0.4665,-0.4665,-0.4665,-0.4665,-0.4665,-0.4665,-0.4665,-0.4665,-0.4665,-0.4665,-0.4665,-0.4665,-0.4665,-0.4665,-0.4665,-0.4665,-0.4665,-0.4665,-0.4665,-0.4665,-0.4665,-0.4665,-0.4665,-0.4665,-0.4665,-0.4665,-0.4665,-0.4665,-0.4665,-0.4665,-0.4665,-0.4665,-0.4665,-0.4665,-0.4665,-0.4665,-0.4665,-0.4665,-0.4665,-0.4665,-0.4665,-0.4665,-0.4665,-0.4665,-0.4665,-0.4665,-0.4665,-0.4665,-0.4665,-0.4665,-0.4665,-0.4665,-0.4665,-0.4665,-0.4665,-0.4665,-0.4655,-0.4506,-0.4358,-0.3901,-0.3589,-0.3259,-0.2935,-0.2634,-0.233,-0.2304,-0.2155,-0.2155,-0.2155,-0.2155,-0.2155,0.2333,0.2333,0.2333,0.2333,0.2333,0.2333,0.2333,0.2333,0.2333,0.2333,0.2333,0.2333,0.2333,0.2333,0.2333,0.2333,0.2333,0.2333,0.2333,0.2333,0.2333,0.2333,0.2333,0.2333,0.2333,0.2333,0.2333,0.2333,0.2333,0.2189,0.1898,0.1022,-0.0438,-0.146,-0.2335,-0.3065,-0.3501,-0.3647,-0.4228,-0.4665,-0.4665,-0.4665,-0.4665,-0.4665,-0.4665,-0.4665,-0.4665,-0.4665,-0.4665,-0.4665,-0.4665,-0.4665,-0.4665,-0.4665,-0.4665,-0.4665,-0.4665,-0.4665,-0.4665,-0.4665,-0.4665,-0.4665,-0.4665,-0.4665,-0.4665,-0.4665,-0.4665,-0.4665,-0.4665,-0.4665,-0.4665,-0.4665,-0.4665,-0.4665,-0.4665,-0.4665,-0.4665,-0.4665,-0.4665,-0.4665,-0.4665,-0.4665,-0.4665,-0.4665,-0.4665,-0.4665,-0.4665,-0.4665,-0.4665,-0.4665,-0.4665,-0.4665,-0.4665,-0.4665,-0.4665,-0.4665,-0.4665,-0.4665,-0.4665,-0.4665,-0.4665,-0.4662,-0.4513,-0.4361,-0.3896,-0.3563,-0.3098,-0.2787,-0.2615,-0.2305,-0.2155,-0.2155,-0.2155,-0.2155,-0.2155,0.2333,0.2333,0.2333,0.2333,0.2333,0.2333,0.2333,0.2333,0.2333,0.2333,0.2333,0.2333,0.2333,0.2333,0.2333,0.2333,0.2333,0.2333,0.2333,0.2333,0.2333,0.2333,0.2333,0.2333,0.2333,0.2333,0.2333,0.2333,0.2333,0.2189,0.1898,0.1022,-0.0438,-0.1606,-0.2335,-0.3064,-0.3501,-0.3647,-0.4228,-0.4665,-0.4665,-0.4665,-0.4665,-0.4665,-0.4665,-0.4665,-0.4665,-0.4665,-0.4665,-0.4665,-0.4665,-0.4665,-0.4665,-0.4665,-0.4665,-0.4665,-0.4665,-0.4665,-0.4665,-0.4665,-0.4665,-0.4665,-0.4665,-0.4665,-0.4665,-0.4665,-0.4665,-0.4665,-0.4665,-0.4665,-0.4665,-0.4665,-0.4665,-0.4665,-0.4665,-0.4665,-0.4665,-0.4665,-0.4665,-0.4665,-0.4665,-0.4665,-0.4665,-0.4665,-0.4665,-0.4665,-0.4665,-0.4665,-0.4665,-0.4665,-0.4665,-0.4665,-0.4665,-0.4665,-0.4665,-0.4665,-0.4665,-0.4665,-0.4665,-0.4665,-0.4665,-0.4665,-0.4661,-0.451,-0.4204,-0.3876,-0.3406,-0.3082,-0.2619,-0.2304,-0.2296,-0.2155,-0.2155,-0.2155,-0.2155,0.2333,0.2333,0.2333,0.2333,0.2333,0.2333,0.2333,0.2333,0.2333,0.2333,0.2333,0.2333,0.2333,0.2333,0.2333,0.2333,0.2333,0.2333,0.2333,0.2333,0.2333,0.2333,0.2333,0.2333,0.2333,0.2333,0.2333,0.2333,0.2333,0.2335,0.1898,0.1022,-0.0438,-0.1606,-0.2335,-0.3065,-0.3501,-0.3792,-0.4374,-0.4665,-0.4665,-0.4665,-0.4665,-0.4665,-0.4665,-0.4665,-0.4665,-0.4665,-0.4665,-0.4665,-0.4665,-0.4665,-0.4665,-0.4665,-0.4665,-0.4665,-0.4665,-0.4665,-0.4665,-0.4665,-0.4665,-0.4665,-0.4665,-0.4665,-0.4665,-0.4665,-0.4665,-0.4665,-0.4665,-0.4665,-0.4665,-0.4665,-0.4665,-0.4665,-0.4665,-0.4665,-0.4665,-0.4665,-0.4665,-0.4665,-0.4665,-0.4665,-0.4665,-0.4665,-0.4665,-0.4665,-0.4665,-0.4665,-0.4665,-0.4665,-0.4665,-0.4665,-0.4665,-0.4665,-0.4665,-0.4665,-0.4665,-0.4665,-0.4665,-0.4665,-0.4665,-0.4665,-0.4665,-0.4662,-0.435,-0.4033,-0.3693,-0.3216,-0.2753,-0.2442,-0.2297,-0.2155,-0.2155,-0.2155,-0.2155,0.2333,0.2333,0.2333,0.2333,0.2333,0.2333,0.2333,0.2333,0.2333,0.2333,0.2333,0.2333,0.2333,0.2333,0.2333,0.2333,0.2333,0.2333,0.2333,0.2333,0.2333,0.2333,0.2333,0.2333,0.2333,0.2333,0.2333,0.2333,0.2333,0.2335,0.1898,0.1022,-0.0292,-0.146,-0.2335,-0.2918,-0.3355,-0.3938,-0.4374,-0.4519,-0.4665,-0.4665,-0.4665,-0.4665,-0.4665,-0.4665,-0.4665,-0.4665,-0.4665,-0.4665,-0.4665,-0.4665,-0.4665,-0.4665,-0.4665,-0.4665,-0.4665,-0.4665,-0.4665,-0.4665,-0.4665,-0.4665,-0.4665,-0.4665,-0.4665,-0.4665,-0.4665,-0.4665,-0.4665,-0.4665,-0.4665,-0.4665,-0.4665,-0.4665,-0.4665,-0.4665,-0.4665,-0.4665,-0.4665,-0.4665,-0.4665,-0.4665,-0.4665,-0.4665,-0.4665,-0.4665,-0.4665,-0.4665,-0.4665,-0.4665,-0.4665,-0.4665,-0.4665,-0.4665,-0.4665,-0.4665,-0.4665,-0.4665,-0.4665,-0.4665,-0.4665,-0.4665,-0.466,-0.4646,-0.4488,-0.4022,-0.3682,-0.335,-0.2887,-0.258,-0.2296,-0.2155,-0.2155,-0.2155,-0.2155,0.2333,0.2333,0.2333,0.2333,0.2333,0.2333,0.2333,0.2333,0.2333,0.2333,0.2333,0.2333,0.2333,0.2333,0.2333,0.2333,0.2333,0.2333,0.2333,0.2333,0.2333,0.2333,0.2333,0.2333,0.2333,0.2333,0.2333,0.2333,0.2333,0.2335,0.1898,0.1168,0.0292,-0.0876,-0.219,-0.248,-0.2917,-0.3791,-0.4081,-0.4373,-0.4665,-0.4665,-0.4665,-0.4665,-0.4665,-0.4665,-0.4665,-0.4665,-0.4665,-0.4665,-0.4665,-0.4665,-0.4665,-0.4665,-0.4665,-0.4665,-0.4665,-0.4665,-0.4665,-0.4665,-0.4665,-0.4665,-0.4665,-0.4665,-0.4665,-0.4665,-0.4665,-0.4665,-0.4665,-0.4665,-0.4665,-0.4665,-0.4665,-0.4665,-0.4665,-0.4665,-0.4665,-0.4665,-0.4665,-0.4665,-0.4665,-0.4665,-0.4665,-0.4665,-0.4665,-0.4665,-0.4665,-0.4665,-0.4665,-0.4665,-0.4665,-0.4665,-0.4665,-0.4665,-0.4665,-0.4665,-0.4665,-0.4665,-0.4665,-0.4665,-0.4661,-0.4654,-0.4627,-0.4469,-0.4313,-0.3994,-0.3513,-0.3048,-0.2876,-0.258,-0.2294,-0.2155,-0.2155,-0.2155,-0.2155,0.2333,0.2333,0.2333,0.2333,0.2333,0.2333,0.2333,0.2333,0.2333,0.2333,0.2333,0.2333,0.2333,0.2333,0.2333,0.2333,0.2333,0.2333,0.2333,0.2333,0.2333,0.2333,0.2333,0.2333,0.2333,0.2333,0.2333,0.2333,0.2333,0.2188,0.1896,0.1168,0.0292,-0.073,-0.2189,-0.2334,-0.2479,-0.3062,-0.3644,-0.4227,-0.4519,-0.4665,-0.4665,-0.4665,-0.4665,-0.4665,-0.4665,-0.4665,-0.4665,-0.4665,-0.4665,-0.4665,-0.4665,-0.4665,-0.4665,-0.4665,-0.4665,-0.4665,-0.4665,-0.4665,-0.4665,-0.4665,-0.4665,-0.4665,-0.4665,-0.4665,-0.4665,-0.4665,-0.4665,-0.4665,-0.4665,-0.4665,-0.4665,-0.4665,-0.4665,-0.4665,-0.4665,-0.4665,-0.4665,-0.4665,-0.4665,-0.4665,-0.4665,-0.4665,-0.4665,-0.4665,-0.4665,-0.4665,-0.4665,-0.4665,-0.4665,-0.4665,-0.4665,-0.4665,-0.4665,-0.4665,-0.4665,-0.4665,-0.4665,-0.4662,-0.4653,-0.4639,-0.446,-0.427,-0.4092,-0.3641,-0.3193,-0.2896,-0.2733,-0.2441,-0.2155,-0.2155,-0.2155,-0.2155,-0.2155,0.2333,0.2333,0.2333,0.2333,0.2333,0.2333,0.2333,0.2333,0.2333,0.2333,0.2333,0.2333,0.2333,0.2333,0.2333,0.2333,0.2333,0.2333,0.2333,0.2333,0.2333,0.2333,0.2333,0.2333,0.2333,0.2333,0.2333,0.2333,0.2333,0.2187,0.2042,0.146,0.0438,-0.073,-0.1897,-0.2335,-0.248,-0.2625,-0.3645,-0.4228,-0.4374,-0.4519,-0.4519,-0.4665,-0.4665,-0.4665,-0.4665,-0.4665,-0.4665,-0.4665,-0.4665,-0.4665,-0.4665,-0.4665,-0.4665,-0.4665,-0.4665,-0.4665,-0.4665,-0.4665,-0.4665,-0.4665,-0.4665,-0.4665,-0.4665,-0.4665,-0.4665,-0.4665,-0.4665,-0.4665,-0.4665,-0.4665,-0.4665,-0.4665,-0.4665,-0.4665,-0.4665,-0.4665,-0.4665,-0.4665,-0.4665,-0.4665,-0.4665,-0.4519,-0.4519,-0.4665,-0.4665,-0.4665,-0.4519,-0.4519,-0.4374,-0.4228,-0.4228,-0.4228,-0.4228,-0.4374,-0.4374,-0.4517,-0.4517,-0.4357,-0.4342,-0.4171,-0.3997,-0.3948,-0.3755,-0.3449,-0.2879,-0.2736,-0.2593,-0.2438,-0.2155,-0.2155,-0.2155,-0.2155,-0.2155,0.2333,0.2333,0.2333,0.2333,0.2333,0.2333,0.2333,0.2333,0.2333,0.2333,0.2333,0.2333,0.2333,0.2333,0.2333,0.2333,0.2333,0.2333,0.2333,0.2333,0.2333,0.2333,0.2333,0.2333,0.2333,0.2333,0.2333,0.2333,0.2333,0.2333,0.2189,0.2044,0.073,-0.073,-0.1752,-0.2189,-0.248,-0.2771,-0.3647,-0.3938,-0.3938,-0.4228,-0.4373,-0.4227,-0.4518,-0.4665,-0.4665,-0.4665,-0.4665,-0.4665,-0.4665,-0.4665,-0.4665,-0.4665,-0.4665,-0.4665,-0.4665,-0.4665,-0.4665,-0.4665,-0.4665,-0.4665,-0.4665,-0.4665,-0.4665,-0.4665,-0.4665,-0.4665,-0.4665,-0.4665,-0.4665,-0.4665,-0.4665,-0.4665,-0.4665,-0.4665,-0.4665,-0.4665,-0.4665,-0.4665,-0.4665,-0.4519,-0.4374,-0.4227,-0.4373,-0.4518,-0.4374,-0.4228,-0.4083,-0.3937,-0.3792,-0.3647,-0.3647,-0.3647,-0.3647,-0.3792,-0.3937,-0.393,-0.3924,-0.3902,-0.3735,-0.3707,-0.3665,-0.3489,-0.3304,-0.3003,-0.2713,-0.2577,-0.2439,-0.2295,-0.2155,-0.2155,-0.2155,-0.2155,-0.2155,0.2333,0.2333,0.2333,0.2333,0.2333,0.2333,0.2333,0.2333,0.2333,0.2333,0.2333,0.2333,0.2333,0.2333,0.2333,0.2333,0.2333,0.2333,0.2333,0.2333,0.2333,0.2333,0.2333,0.2333,0.2333,0.2333,0.2333,0.2333,0.2333,0.2333,0.2333,0.1896,0.0875,-0.0,-0.0876,-0.1752,-0.2335,-0.248,-0.3063,-0.3209,-0.3647,-0.3501,-0.3791,-0.3791,-0.408,-0.4227,-0.4227,-0.4519,-0.4665,-0.4665,-0.4665,-0.4665,-0.4665,-0.4665,-0.4665,-0.4665,-0.4665,-0.4665,-0.4665,-0.4665,-0.4665,-0.4665,-0.4665,-0.4665,-0.4665,-0.4665,-0.4665,-0.4665,-0.4665,-0.4665,-0.4665,-0.4665,-0.4665,-0.4665,-0.4665,-0.4665,-0.4665,-0.4665,-0.4519,-0.4519,-0.4373,-0.4227,-0.4081,-0.3936,-0.4081,-0.4227,-0.4083,-0.3938,-0.3791,-0.35,-0.3354,-0.3355,-0.3209,-0.3355,-0.3355,-0.3355,-0.3501,-0.349,-0.3477,-0.3304,-0.3273,-0.336,-0.3323,-0.3157,-0.2868,-0.2713,-0.2567,-0.2427,-0.229,-0.229,-0.2155,-0.2155,-0.2155,-0.2155,-0.202,0.2333,0.2333,0.2333,0.2333,0.2333,0.2333,0.2333,0.2333,0.2333,0.2333,0.2333,0.2333,0.2333,0.2333,0.2333,0.2333,0.2333,0.2333,0.2333,0.2333,0.2333,0.2333,0.2333,0.2333,0.2333,0.2333,0.2333,0.2333,0.2333,0.2333,0.2333,0.1895,0.1313,0.0584,-0.0292,-0.1022,-0.1751,-0.1896,-0.2334,-0.248,-0.3065,-0.2917,-0.2917,-0.3209,-0.3645,-0.4083,-0.4081,-0.4228,-0.4373,-0.4373,-0.4518,-0.4519,-0.4665,-0.4665,-0.4665,-0.4665,-0.4665,-0.4665,-0.4665,-0.4665,-0.4665,-0.4665,-0.4665,-0.4665,-0.4665,-0.4665,-0.4665,-0.4665,-0.4665,-0.4665,-0.4665,-0.4665,-0.4665,-0.4665,-0.4665,-0.4665,-0.4518,-0.4373,-0.4374,-0.4228,-0.4081,-0.3936,-0.379,-0.3646,-0.3645,-0.3645,-0.35,-0.35,-0.3354,-0.3209,-0.2917,-0.2917,-0.2917,-0.3063,-0.3063,-0.3063,-0.2913,-0.2889,-0.2875,-0.299,-0.2956,-0.3046,-0.301,-0.2722,-0.2574,-0.2428,-0.229,-0.229,-0.229,-0.2155,-0.2155,-0.2155,-0.1885,-0.1751,-0.1616,0.2333,0.2333,0.2333,0.2333,0.2333,0.2333,0.2333,0.2333,0.2333,0.2333,0.2333,0.2333,0.2333,0.2333,0.2333,0.2333,0.2333,0.2333,0.2333,0.2333,0.2333,0.2333,0.2333,0.2333,0.2333,0.2333,0.2333,0.2333,0.2333,0.2333,0.2333,0.2333,0.1895,0.1313,0.0146,-0.0,-0.0438,-0.1168,-0.1898,-0.2044,-0.2336,-0.2335,-0.2334,-0.2625,-0.3209,-0.3646,-0.3646,-0.3791,-0.3937,-0.3936,-0.408,-0.4227,-0.4518,-0.4518,-0.4519,-0.4519,-0.4665,-0.4665,-0.4665,-0.4665,-0.4665,-0.4665,-0.4665,-0.4665,-0.4665,-0.4665,-0.4665,-0.4665,-0.4665,-0.4665,-0.4665,-0.4665,-0.4519,-0.4519,-0.4519,-0.4374,-0.4228,-0.4081,-0.3937,-0.3937,-0.3647,-0.3501,-0.3354,-0.3209,-0.3209,-0.3209,-0.3063,-0.2917,-0.2917,-0.277,-0.2625,-0.2625,-0.2625,-0.2625,-0.2625,-0.2479,-0.2326,-0.2305,-0.2425,-0.2543,-0.2514,-0.2478,-0.2452,-0.2299,-0.2158,-0.1886,-0.202,-0.2155,-0.1751,-0.1481,-0.202,-0.2155,-0.1751,-0.1212,-0.0673,0.2333,0.2333,0.2333,0.2333,0.2333,0.2333,0.2333,0.2333,0.2333,0.2333,0.2333,0.2333,0.2333,0.2333,0.2333,0.2333,0.2333,0.2333,0.2333,0.2333,0.2333,0.2333,0.2333,0.2333,0.2333,0.2333,0.2333,0.2333,0.2333,0.2333,0.2333,0.2333,0.2187,0.175,0.0875,0.0438,-0.0146,-0.0438,-0.073,-0.1022,-0.146,-0.1605,-0.1751,-0.2189,-0.2625,-0.2917,-0.2917,-0.3209,-0.3354,-0.3353,-0.3498,-0.379,-0.3937,-0.3937,-0.3937,-0.3937,-0.4084,-0.4229,-0.4084,-0.3938,-0.4081,-0.4374,-0.4665,-0.4665,-0.4665,-0.4665,-0.4665,-0.4665,-0.4373,-0.4373,-0.4227,-0.4083,-0.3938,-0.3792,-0.3792,-0.3792,-0.3647,-0.3646,-0.3646,-0.35,-0.3355,-0.3063,-0.277,-0.2771,-0.2772,-0.2625,-0.2625,-0.2625,-0.2479,-0.2479,-0.2479,-0.2333,-0.2333,-0.2333,-0.2333,-0.2182,-0.2169,-0.2148,-0.2267,-0.2243,-0.2215,-0.205,-0.2037,-0.1888,-0.1617,-0.1481,-0.1346,-0.1077,-0.0808,-0.0808,-0.1077,-0.1212,-0.0808,0.0135,0.0943,0.2333,0.2333,0.2333,0.2333,0.2333,0.2333,0.2333,0.2333,0.2333,0.2333,0.2333,0.2333,0.2333,0.2333,0.2333,0.2333,0.2333,0.2333,0.2333,0.2333,0.2333,0.2333,0.2333,0.2333,0.2333,0.2333,0.2333,0.2333,0.2333,0.2333,0.2333,0.2333,0.2333,0.2041,0.1459,0.1167,0.073,0.0584,0.0292,-0.0,-0.0584,-0.0876,-0.1022,-0.146,-0.1897,-0.2334,-0.248,-0.2626,-0.2772,-0.2917,-0.3063,-0.3209,-0.3355,-0.3501,-0.3501,-0.3501,-0.3501,-0.3501,-0.3209,-0.3355,-0.3646,-0.4083,-0.4227,-0.4228,-0.4228,-0.4228,-0.4228,-0.4081,-0.4081,-0.3936,-0.3936,-0.3501,-0.3501,-0.3501,-0.3501,-0.3501,-0.3354,-0.3354,-0.3208,-0.3063,-0.2917,-0.2625,-0.2333,-0.2334,-0.248,-0.2334,-0.2042,-0.2042,-0.2042,-0.2187,-0.2187,-0.2187,-0.2187,-0.2187,-0.2036,-0.1883,-0.187,-0.1851,-0.1829,-0.1668,-0.1647,-0.1355,-0.1485,-0.1481,-0.0943,-0.0539,-0.0269,-0.0,0.0269,0.0404,0.0269,0.0269,0.0404,0.1077,0.1885,0.2333,0.2333,0.2333,0.2333,0.2333,0.2333,0.2333,0.2333,0.2333,0.2333,0.2333,0.2333,0.2333,0.2333,0.2333,0.2333,0.2333,0.2333,0.2333,0.2333,0.2333,0.2333,0.2333,0.2333,0.2333,0.2333,0.2333,0.2333,0.2333,0.2333,0.2333,0.2333,0.2333,0.2187,0.2042,0.1897,0.1605,0.1313,0.1168,0.0876,0.0438,0.0146,-0.0,-0.0438,-0.1167,-0.1751,-0.1898,-0.2043,-0.2043,-0.2188,-0.2333,-0.277,-0.3209,-0.3501,-0.3501,-0.3355,-0.3209,-0.2917,-0.2625,-0.2771,-0.3064,-0.3354,-0.35,-0.3501,-0.3647,-0.3792,-0.3792,-0.3792,-0.3646,-0.3647,-0.3501,-0.3356,-0.3356,-0.3355,-0.3355,-0.3209,-0.2917,-0.277,-0.277,-0.2479,-0.2334,-0.2188,-0.2043,-0.2043,-0.1751,-0.1459,-0.1313,-0.1167,-0.1313,-0.1897,-0.1897,-0.1897,-0.1896,-0.2041,-0.1743,-0.1298,-0.0997,-0.0844,-0.0836,-0.0826,-0.0679,-0.0539,-0.0269,-0.0135,-0.0,0.0404,0.0943,0.1346,0.1481,0.1481,0.1615,0.1481,0.1481,0.1751,0.2425,0.2333,0.2333,0.2333,0.2333,0.2333,0.2333,0.2333,0.2333,0.2333,0.2333,0.2333,0.2333,0.2333,0.2333,0.2333,0.2333,0.2333,0.2333,0.2333,0.2333,0.2333,0.2333,0.2333,0.2333,0.2333,0.2333,0.2333,0.2333,0.2333,0.2333,0.2333,0.2333,0.2333,0.2333,0.2333,0.2334,0.2042,0.2042,0.1898,0.1752,0.146,0.1022,0.0876,0.0438,-0.0146,-0.0584,-0.073,-0.073,-0.0876,-0.1459,-0.2043,-0.2481,-0.2481,-0.2627,-0.2628,-0.2628,-0.2481,-0.2481,-0.2335,-0.2481,-0.2481,-0.248,-0.2627,-0.3064,-0.3355,-0.3501,-0.3501,-0.3355,-0.3209,-0.3064,-0.2917,-0.2772,-0.2626,-0.248,-0.248,-0.2334,-0.2188,-0.2187,-0.2042,-0.1896,-0.1751,-0.1313,-0.1314,-0.1314,-0.1022,-0.073,-0.0438,-0.0292,-0.0292,-0.0876,-0.1168,-0.1168,-0.1018,-0.0871,-0.0721,-0.0287,-0.0,0.0278,0.0276,0.0273,0.0542,0.0808,0.1077,0.1212,0.1346,0.175,0.2425,0.2558,0.2289,0.269,0.2825,0.2691,0.2558,0.2558,0.2693,0.2333,0.2333,0.2333,0.2333,0.2333,0.2333,0.2333,0.2333,0.2333,0.2333,0.2333,0.2333,0.2333,0.2333,0.2333,0.2333,0.2333,0.2333,0.2333,0.2333,0.2333,0.2333,0.2333,0.2333,0.2333,0.2333,0.2333,0.2333,0.2333,0.2333,0.2333,0.2333,0.2333,0.2333,0.2333,0.2333,0.2333,0.2187,0.2188,0.2335,0.2043,0.1898,0.1751,0.146,0.1022,0.073,0.0438,0.0438,-0.0,-0.0584,-0.1314,-0.1606,-0.1752,-0.1898,-0.219,-0.219,-0.2043,-0.1606,-0.1313,-0.1752,-0.1605,-0.1459,-0.1459,-0.1604,-0.2187,-0.248,-0.2626,-0.2627,-0.2626,-0.248,-0.2188,-0.1896,-0.1605,-0.1313,-0.1313,-0.1313,-0.1313,-0.1313,-0.1313,-0.1167,-0.0875,-0.0292,-0.0146,-0.0292,-0.0146,0.0292,0.073,0.1022,0.0876,0.0438,0.0146,-0.0,0.0145,0.0433,0.0573,0.0709,0.0979,0.1241,0.1367,0.1492,0.1753,0.1885,0.2019,0.2289,0.2557,0.2827,0.3097,0.3097,0.2961,0.3363,0.3497,0.3229,0.3096,0.2961,0.3096,0.2333,0.2333,0.2333,0.2333,0.2333,0.2333,0.2333,0.2333,0.2333,0.2333,0.2333,0.2333,0.2333,0.2333,0.2333,0.2333,0.2333,0.2333,0.2333,0.2333,0.2333,0.2333,0.2333,0.2333,0.2333,0.2333,0.2333,0.2333,0.2333,0.2333,0.2333,0.2333,0.2333,0.2333,0.2333,0.2333,0.2333,0.2333,0.2333,0.2333,0.2333,0.2187,0.2334,0.219,0.2044,0.1898,0.146,0.1168,0.1022,0.0438,-0.0,-0.0292,-0.0584,-0.0876,-0.1314,-0.146,-0.1168,-0.0438,-0.0146,-0.0438,-0.0438,-0.0146,0.0146,0.0146,-0.0292,-0.1313,-0.1605,-0.1459,-0.1313,-0.1021,-0.0729,-0.0583,-0.0292,-0.0,0.0146,0.0146,0.0146,0.0146,0.0146,0.0292,0.0438,0.0876,0.1022,0.1022,0.1313,0.1605,0.1898,0.2335,0.204,0.1603,0.1454,0.1308,0.1445,0.1574,0.1978,0.2099,0.2075,0.2325,0.2307,0.2433,0.2425,0.2692,0.2963,0.2961,0.296,0.3094,0.3229,0.3229,0.3365,0.3498,0.3632,0.3632,0.3498,0.3498,0.3498,0.2333,0.2333,0.2333,0.2333,0.2333,0.2333,0.2333,0.2333,0.2333,0.2333,0.2333,0.2333,0.2333,0.2333,0.2333,0.2333,0.2333,0.2333,0.2333,0.2333,0.2333,0.2333,0.2333,0.2333,0.2333,0.2333,0.2333,0.2333,0.2333,0.2333,0.2333,0.2333,0.2333,0.2333,0.2333,0.2333,0.2333,0.2333,0.2333,0.2333,0.2333,0.2333,0.2333,0.2334,0.2188,0.2188,0.1896,0.1898,0.1898,0.1752,0.1168,0.0876,0.0584,0.0584,0.0146,-0.0292,0.0146,0.073,0.1022,0.0876,0.073,0.1022,0.1313,0.1605,0.1313,0.0146,-0.0292,-0.0,0.0146,0.0438,0.073,0.0875,0.1167,0.1459,0.1605,0.1751,0.1751,0.1751,0.1751,0.1751,0.1898,0.2043,0.219,0.2335,0.2626,0.2918,0.3209,0.3499,0.3195,0.2753,0.2589,0.2443,0.2439,0.2701,0.2941,0.2904,0.2737,0.2855,0.2836,0.2963,0.3229,0.323,0.3365,0.3229,0.3228,0.3362,0.3632,0.3632,0.3767,0.3767,0.3901,0.3902,0.4037,0.3902,0.4037,0.2333,0.2333,0.2333,0.2333,0.2333,0.2333,0.2333,0.2333,0.2333,0.2333,0.2333,0.2333,0.2333,0.2333,0.2333,0.2333,0.2333,0.2333,0.2333,0.2333,0.2333,0.2333,0.2333,0.2333,0.2333,0.2333,0.2333,0.2333,0.2333,0.2333,0.2333,0.2333,0.2333,0.2333,0.2333,0.2333,0.2333,0.2333,0.2333,0.2333,0.2333,0.2333,0.2333,0.2333,0.2333,0.2333,0.2333,0.2334,0.2335,0.2189,0.1898,0.1752,0.1606,0.1606,0.146,0.1314,0.146,0.1898,0.2044,0.2043,0.1606,0.1898,0.2189,0.248,0.2625,0.1604,0.175,0.1896,0.2042,0.2188,0.2334,0.248,0.2625,0.2918,0.2772,0.2625,0.2771,0.2625,0.2625,0.2772,0.2772,0.2772,0.2918,0.2919,0.3209,0.3209,0.3648,0.379,0.363,0.3597,0.3571,0.3543,0.3393,0.3233,0.319,0.3152,0.3121,0.3103,0.3228,0.3362,0.3498,0.3632,0.3632,0.3632,0.3632,0.3767,0.3902,0.3902,0.4037,0.4171,0.4171,0.4307,0.4307,0.4307,0.4307,0.2333,0.2333,0.2333,0.2333,0.2333,0.2333,0.2333,0.2333,0.2333,0.2333,0.2333,0.2333,0.2333,0.2333,0.2333,0.2333,0.2333,0.2333,0.2333,0.2333,0.2333,0.2333,0.2333,0.2333,0.2333,0.2333,0.2333,0.2333,0.2333,0.2333,0.2333,0.2333,0.2333,0.2333,0.2333,0.2333,0.2333,0.2333,0.2333,0.2333,0.2333,0.2333,0.2333,0.2333,0.2333,0.2333,0.2333,0.2333,0.2333,0.2333,0.2189,0.2189,0.2189,0.2189,0.2189,0.2043,0.2043,0.2335,0.2481,0.2481,0.2335,0.248,0.2917,0.3209,0.3209,0.3354,0.3354,0.35,0.35,0.3501,0.3501,0.3501,0.3647,0.3794,0.3647,0.3501,0.3501,0.3501,0.3501,0.3501,0.3501,0.3501,0.3501,0.3501,0.3647,0.3647,0.3644,0.3641,0.3625,0.3861,0.3961,0.3917,0.3744,0.3581,0.3558,0.354,0.3509,0.3505,0.3632,0.3632,0.3767,0.3902,0.4037,0.4171,0.4172,0.4171,0.4171,0.4171,0.4307,0.4307,0.4307,0.4307,0.4307,0.4307,0.4307,0.2333,0.2333,0.2333,0.2333,0.2333,0.2333,0.2333,0.2333,0.2333,0.2333,0.2333,0.2333,0.2333,0.2333,0.2333,0.2333,0.2333,0.2333,0.2333,0.2333,0.2333,0.2333,0.2333,0.2333,0.2333,0.2333,0.2333,0.2333,0.2333,0.2333,0.2333,0.2333,0.2333,0.2333,0.2333,0.2333,0.2333,0.2333,0.2333,0.2333,0.2333,0.2333,0.2333,0.2333,0.2333,0.2333,0.2333,0.2333,0.2333,0.2333,0.2333,0.2333,0.2334,0.2334,0.2334,0.2334,0.2335,0.2772,0.2918,0.2918,0.2771,0.2916,0.3354,0.35,0.3646,0.379,0.3936,0.3936,0.379,0.3646,0.3646,0.3646,0.3792,0.3792,0.3646,0.3646,0.3646,0.3646,0.3646,0.3646,0.3646,0.3646,0.3646,0.3791,0.3936,0.4079,0.4217,0.421,0.4173,0.426,0.4203,0.4153,0.41,0.4205,0.4187,0.4062,0.404,0.4038,0.4037,0.4037,0.4037,0.4171,0.4307,0.4307,0.4307,0.4307,0.4307,0.4307,0.4307,0.4307,0.4307,0.4307,0.4307,0.4307,0.4307]},{"header":{"parameterUnit":"m.s-1","parameterCategory":1,"la1":31.0,"la2":29.5877,"lo1":-88.7671,"lo2":-86.6584,"dy":0.0162,"dx":0.0185,"nx":115,"ny":88,"refTime":"2023-10-15T00:00:00:Z","depth":0,"parameterNumber":3,"parameterNumberName":"V-component_of_WINDS"},"data":[0.0,0.0,0.0,0.0,0.0,0.0,0.0,0.0,0.0,0.0,0.0,0.0,0.0,0.0,0.0,0.0,0.0,0.0,0.0,0.0,0.0,0.0,0.0,0.0,0.0,0.0,0.0,0.0,0.0,0.0,0.0,0.0,0.0,0.0,0.0,0.0,0.0,0.0,0.0,0.0,0.0,0.0,0.0,0.0,0.0,0.0,0.0,0.0,0.0,0.0,0.0,0.0,0.0,0.0,0.0,0.0,0.0,0.0,0.0,0.0,0.0,0.0,0.0,0.0,0.0,0.0,0.0,0.0,0.0,0.0,0.0,0.0,0.0,0.0,0.0,0.0,0.0,0.0,0.0,0.0,0.0,0.0,0.0,0.0,0.0,0.0,0.0,0.0,0.0,0.0,0.0,0.0,0.0,0.0,0.0,0.0,0.0,0.0,0.0,0.0,0.0,0.0,0.0,0.0,0.0,0.0,0.0,0.0,0.0,0.0,0.0,0.0,0.0,0.0,0.0,0.0,0.0,0.0,0.0,0.0,0.0,0.0,0.0,0.0,0.0,0.0,0.0,0.0,0.0,0.0,0.0,0.0,0.0,0.0,0.0,0.0,0.0,0.0,0.0,0.0,0.0,0.0,0.0,0.0,0.0,0.0,0.0,0.0,0.0,0.0,0.0,0.0,0.0,0.0,0.0,0.0,0.0,0.0,0.0,0.0,0.0,0.0,0.0,0.0,0.0,0.0,0.0,0.0,0.0,0.0,0.0,0.0,0.0,0.0,0.0,0.0,0.0,0.0,0.0,0.0,0.0,0.0,0.0,0.0,0.0,0.0,0.0,0.0,0.0,0.0,0.0,0.0,0.0,0.0,0.0,0.0,0.0,0.0,0.0,0.0,0.0,0.0,0.0,0.0,0.0,0.0,0.0,0.0,0.0,0.0,0.0,0.0,0.0,0.0,0.0,0.0,0.0,0.0,0.0,0.0,0.0,0.0,0.0,0.0,0.0,0.0,0.0,0.0,0.0,0.0,0.0,0.0,0.0,0.0,0.0,0.0,0.0,0.0,0.0,0.0,0.0,0.0,0.0,0.0,0.0,0.0,0.0,0.0,0.0,0.0,0.0,0.0,0.0,0.0,0.0,0.0,0.0,0.0,0.0,0.0,0.0,0.0,0.0,0.0,0.0,0.0,0.0,0.0,0.0,0.0,0.0,0.0,0.0,0.0,0.0,0.0,0.0,0.0,0.0,0.0,0.0,0.0,0.0,0.0,0.0,0.0,0.0,0.0,0.0,0.0,0.0,0.0,0.0,0.0,0.0,0.0,0.0,0.0,0.0,0.0,0.0,0.0,0.0,0.0,0.0,0.0,0.0,0.0,0.0,0.0,0.0,0.0,0.0,0.0,0.0,0.0,0.0,0.0,0.0,0.0,0.0,0.0,0.0,0.0,0.0,0.0,0.0,0.0,0.0,0.0,0.0,0.0,0.0,0.0,0.0,0.0,0.0,0.0,0.0,0.0,0.0,0.0,0.0,0.0,0.0,0.0,0.0,0.0,0.0,0.0,0.0,0.0,0.0,0.0,0.0,0.0,0.0,0.0,0.0,0.0,0.0,0.0,0.0,0.0,0.0,0.0,0.0,0.0,0.0,0.0,0.0,0.0,0.0,0.0,0.0,0.0,0.0,0.0,0.0,0.0,0.0,0.0,0.0,0.0,0.0,0.0,0.0,0.0,0.0,0.0,0.0,0.0,0.0,0.0,0.0,0.0,0.0,0.0,0.0,0.0,0.0,0.0,0.0,0.0,0.0,0.0,0.0,0.0,0.0,0.0,0.0,0.0,0.0,0.0,0.0,0.0,0.0,0.0,0.0,0.0,0.0,0.0,0.0,0.0,0.0,0.0,0.0,0.0,0.0,0.0,0.0,0.0,0.0,0.0,0.0,0.0,0.0,0.0,0.0,0.0,0.0,0.0,0.0,0.0,0.0,0.0,0.0,0.0,0.0,0.0,0.0,0.0,0.0,0.0,0.0,0.0,0.0,0.0,0.0,0.0,0.0,0.0,0.0,0.0,0.0,0.0,0.0,0.0,0.0,0.0,0.0,0.0,0.0,0.0,0.0,0.0,0.0,0.0,0.0,0.0,0.0,0.0,0.0,0.0,0.0,0.0,0.0,0.0,0.0,0.0,0.0,0.0,0.0,0.0,0.0,0.0,0.0,0.0,0.0,0.0,0.0,0.0,0.0,0.0,0.0,0.0,0.0,0.0,0.0,0.0,0.0,0.0,0.0,0.0,0.0,0.0,0.0,0.0,0.0,0.0,0.0,0.0,0.0,0.0,0.0,0.0,0.0,0.0,0.0,0.0,0.0,0.0,0.0,0.0,0.0,0.0,0.0,0.0,0.0,0.0,0.0,0.0,0.0,0.0,0.0,0.0,0.0,0.0,0.0,0.0,0.0,0.0,0.0,0.0,0.0,0.0,0.0,0.0,0.0,0.0,0.0,0.0,0.0,0.0,0.0,0.0,0.0,0.0,0.0,0.0,0.0,0.0,0.0,0.0,0.0,0.0,0.0,0.0,0.0,0.0,0.0,0.0,0.0,0.0,0.0,0.0,0.0,0.0,0.0,0.0,0.0,0.0,0.0,0.0,0.0,0.0,0.0,0.0,0.0,0.0,0.0,0.0,0.0,0.0,0.0,0.0,0.0,0.0,0.0,0.0,0.0,0.0,0.0,0.0,0.0,0.0,0.0,0.0,0.0,0.0,0.0,0.0,0.0,0.0,0.0,0.0,0.0,0.0,0.0,0.0,0.0,0.0,0.0,0.0,0.0,0.0,0.0,0.0,0.0,0.0,0.0,0.0,0.0,0.0,0.0,0.0,0.0,0.0,0.0,0.0,0.0,0.0,0.0,0.0,0.0,0.0,0.0,0.0,0.0,0.0,0.0,0.0,0.0,0.0,0.0,0.0,0.0,0.0,0.0,0.0,0.0,0.0,0.0,0.0,0.0,0.0,0.0,0.0,0.0,0.0,0.0,0.0,0.0,0.0,0.0,0.0,0.0,0.0,0.0,0.0,0.0,0.0,0.0,0.0,0.0,0.0,0.0,0.0,0.0,0.0,0.0,0.0,0.0,0.0,0.0,0.0,0.0,0.0,0.0,0.0,0.0,0.0,0.0,0.0,0.0,0.0,0.0,0.0,0.0,0.0,0.0,0.0,0.0,0.0,0.0,0.0,0.0,0.0,0.0,0.0,0.0,0.0,0.0,0.0,0.0,0.0,0.0,0.0,0.0,0.0,0.0,0.0,0.0,0.0,0.0,0.0,0.0,0.0,0.0,0.0,0.0,0.0,0.0,0.0,0.0,0.0,0.0,0.0,0.0,0.0,0.0,0.0,0.0,0.0,0.0,0.0,0.0,0.0,0.0,0.0,0.0,0.0,0.0,0.0,0.0,0.0,0.0,0.0,0.0,0.0,0.0,0.0,0.0,0.0,0.0,0.0,0.0,0.0,0.0,0.0,0.0,0.0,0.0,0.0,0.0,0.0,0.0,0.0,0.0,0.0,0.0,0.0,0.0,0.0,0.0,0.0,0.0,0.0,0.0,0.0,0.0,0.0,0.0,0.0,0.0,0.0,0.0,0.0,0.0,0.0,0.0,0.0,0.0,0.0,0.0,0.0,0.0,0.0,0.0,0.0,0.0,0.0,0.0,0.0,0.0,0.0,0.0,0.0,0.0,0.0,0.0,0.0,0.0,0.0,0.0,0.0,0.0,0.0,0.0,0.0,0.0,0.0,0.0,0.0,0.0,0.0,0.0,0.0,0.0,0.0,0.0,0.0,0.0,0.0,0.0,0.0,0.0,0.0,0.0,0.0,0.0,0.0,0.0,0.0,0.0,0.0,0.0,0.0,0.0,0.0,0.0,0.0,0.0,0.0,0.0,0.0,0.0,0.0,0.0,0.0,0.0,0.0,0.0,0.0,0.0,0.0,0.0,0.0,0.0,0.0,0.0,0.0,0.0,0.0,0.0,0.0,0.0,0.0,0.0,0.0,0.0,0.0,0.0,0.0,0.0,0.0,0.0,0.0,0.0,0.0,0.0,0.0,0.0,0.0,0.0,0.0,0.0,0.0,0.0,0.0,0.0,0.0,0.0,0.0,0.0,0.0,0.0,0.0,0.0,0.0,0.0,0.0,0.0,0.0,0.0,0.0,0.0,0.0,0.0,0.0,0.0,0.0,0.0,0.0,0.0,0.0,0.0,0.0,0.0,0.0,0.0,0.0,0.0,0.0,0.0,0.0,-2.6376,0.0,0.0,0.0,0.0,0.0,0.0,0.0,0.0,0.0,0.0,0.0,0.0,0.0,0.0,0.0,0.0,0.0,0.0,0.0,0.0,0.0,0.0,0.0,0.0,0.0,0.0,0.0,0.0,0.0,0.0,0.0,0.0,0.0,0.0,0.0,0.0,0.0,0.0,0.0,0.0,0.0,0.0,0.0,0.0,0.0,0.0,0.0,0.0,0.0,0.0,0.0,0.0,0.0,0.0,0.0,0.0,0.0,0.0,0.0,0.0,0.0,0.0,0.0,0.0,0.0,0.0,0.0,0.0,0.0,0.0,0.0,0.0,0.0,0.0,0.0,0.0,0.0,0.0,0.0,0.0,0.0,0.0,0.0,0.0,0.0,0.0,0.0,0.0,0.0,0.0,0.0,0.0,0.0,0.0,0.0,0.0,0.0,0.0,0.0,0.0,0.0,0.0,0.0,0.0,0.0,0.0,0.0,0.0,0.0,0.0,-2.8961,-2.8557,-2.7729,-2.7305,-2.7286,0.0,0.0,0.0,0.0,0.0,0.0,0.0,0.0,0.0,0.0,0.0,0.0,0.0,0.0,0.0,0.0,0.0,0.0,0.0,0.0,0.0,0.0,0.0,0.0,0.0,0.0,0.0,0.0,0.0,0.0,0.0,0.0,0.0,0.0,0.0,0.0,0.0,0.0,0.0,0.0,0.0,0.0,0.0,0.0,0.0,0.0,0.0,0.0,0.0,0.0,0.0,0.0,0.0,0.0,0.0,0.0,0.0,0.0,0.0,0.0,0.0,0.0,0.0,0.0,0.0,0.0,0.0,0.0,0.0,0.0,0.0,0.0,0.0,0.0,0.0,0.0,0.0,0.0,0.0,0.0,0.0,0.0,0.0,0.0,0.0,0.0,0.0,0.0,0.0,0.0,0.0,0.0,0.0,0.0,0.0,0.0,0.0,0.0,0.0,0.0,0.0,0.0,0.0,0.0,0.0,0.0,0.0,0.0,0.0,0.0,0.0,0.0,-2.8657,-2.8106,-2.7933,0.0,0.0,0.0,0.0,0.0,0.0,0.0,0.0,0.0,0.0,0.0,0.0,0.0,0.0,0.0,0.0,0.0,0.0,0.0,0.0,0.0,0.0,0.0,0.0,0.0,0.0,0.0,0.0,0.0,0.0,0.0,0.0,0.0,0.0,0.0,0.0,0.0,0.0,0.0,0.0,0.0,0.0,0.0,0.0,0.0,0.0,0.0,0.0,0.0,0.0,0.0,0.0,0.0,0.0,0.0,0.0,0.0,0.0,0.0,0.0,0.0,0.0,0.0,0.0,0.0,0.0,0.0,0.0,0.0,0.0,0.0,0.0,0.0,0.0,0.0,0.0,0.0,0.0,0.0,0.0,0.0,0.0,0.0,0.0,0.0,0.0,0.0,0.0,0.0,0.0,0.0,0.0,0.0,0.0,0.0,0.0,0.0,0.0,0.0,0.0,0.0,0.0,0.0,0.0,0.0,0.0,0.0,0.0,0.0,0.0,-3.047,-3.047,-2.9627,0.0,-2.8057,0.0,0.0,0.0,0.0,0.0,0.0,0.0,0.0,0.0,0.0,0.0,0.0,0.0,0.0,0.0,0.0,0.0,0.0,0.0,0.0,0.0,0.0,0.0,0.0,0.0,0.0,0.0,0.0,0.0,0.0,0.0,0.0,0.0,0.0,0.0,0.0,0.0,0.0,0.0,0.0,0.0,0.0,0.0,0.0,0.0,0.0,0.0,0.0,0.0,0.0,0.0,0.0,0.0,0.0,0.0,0.0,0.0,0.0,0.0,0.0,0.0,0.0,0.0,0.0,0.0,0.0,0.0,0.0,0.0,0.0,0.0,0.0,0.0,0.0,0.0,0.0,0.0,0.0,0.0,0.0,0.0,0.0,0.0,0.0,0.0,0.0,0.0,0.0,0.0,0.0,0.0,0.0,0.0,0.0,0.0,0.0,0.0,0.0,0.0,0.0,0.0,0.0,0.0,0.0,0.0,0.0,0.0,0.0,0.0,0.0,-3.0621,-3.061,-3.0253,-2.9887,0.0,0.0,0.0,0.0,0.0,0.0,0.0,0.0,0.0,0.0,0.0,0.0,0.0,0.0,0.0,0.0,0.0,0.0,0.0,0.0,0.0,0.0,0.0,0.0,0.0,0.0,0.0,0.0,0.0,0.0,0.0,0.0,0.0,0.0,0.0,0.0,0.0,0.0,0.0,0.0,0.0,0.0,0.0,0.0,0.0,0.0,0.0,0.0,0.0,0.0,0.0,0.0,0.0,0.0,0.0,0.0,0.0,0.0,0.0,0.0,0.0,0.0,0.0,0.0,0.0,0.0,0.0,0.0,0.0,0.0,0.0,0.0,0.0,0.0,0.0,0.0,0.0,0.0,0.0,0.0,0.0,0.0,0.0,0.0,0.0,0.0,0.0,0.0,0.0,0.0,0.0,0.0,0.0,0.0,0.0,0.0,0.0,0.0,0.0,0.0,0.0,0.0,0.0,0.0,0.0,0.0,0.0,0.0,0.0,0.0,-3.0634,-3.063,-3.0637,-3.0642,-3.0626,-3.0645,0.0,0.0,0.0,0.0,0.0,0.0,0.0,0.0,0.0,0.0,0.0,0.0,0.0,0.0,0.0,0.0,0.0,0.0,0.0,0.0,0.0,0.0,0.0,0.0,0.0,0.0,0.0,0.0,0.0,0.0,0.0,0.0,0.0,0.0,0.0,0.0,0.0,0.0,0.0,0.0,0.0,0.0,0.0,0.0,0.0,0.0,0.0,0.0,0.0,0.0,0.0,0.0,0.0,0.0,0.0,0.0,0.0,0.0,0.0,0.0,0.0,0.0,0.0,0.0,0.0,0.0,0.0,0.0,0.0,0.0,0.0,0.0,0.0,0.0,0.0,0.0,0.0,0.0,0.0,0.0,0.0,0.0,0.0,0.0,0.0,0.0,0.0,0.0,0.0,0.0,0.0,0.0,0.0,0.0,0.0,0.0,0.0,0.0,0.0,0.0,0.0,0.0,0.0,0.0,0.0,0.0,0.0,0.0,-3.069,-3.0704,-3.0697,-3.0697,-3.0698,-3.0704,0.0,0.0,0.0,0.0,0.0,0.0,0.0,0.0,0.0,0.0,0.0,0.0,0.0,0.0,0.0,0.0,0.0,0.0,0.0,0.0,0.0,0.0,0.0,0.0,0.0,0.0,0.0,0.0,0.0,0.0,0.0,0.0,0.0,0.0,0.0,0.0,0.0,0.0,0.0,0.0,0.0,0.0,0.0,0.0,0.0,0.0,0.0,0.0,0.0,0.0,0.0,0.0,0.0,0.0,0.0,0.0,0.0,0.0,0.0,0.0,0.0,0.0,0.0,0.0,0.0,0.0,0.0,0.0,0.0,0.0,0.0,0.0,0.0,0.0,0.0,0.0,0.0,0.0,0.0,0.0,0.0,0.0,0.0,0.0,0.0,0.0,0.0,0.0,0.0,0.0,0.0,0.0,0.0,0.0,0.0,0.0,0.0,0.0,0.0,0.0,0.0,0.0,0.0,0.0,0.0,0.0,0.0,0.0,0.0,-3.0697,-3.0709,-3.0709,-3.0703,-3.0697,-3.071,0.0,0.0,0.0,0.0,0.0,0.0,0.0,0.0,0.0,0.0,0.0,0.0,0.0,0.0,0.0,0.0,0.0,0.0,0.0,0.0,0.0,0.0,0.0,0.0,0.0,0.0,0.0,0.0,0.0,0.0,0.0,0.0,0.0,0.0,0.0,0.0,0.0,0.0,0.0,0.0,0.0,0.0,0.0,0.0,0.0,0.0,0.0,0.0,0.0,0.0,0.0,0.0,0.0,0.0,0.0,0.0,0.0,0.0,0.0,0.0,0.0,0.0,0.0,0.0,0.0,0.0,0.0,0.0,0.0,0.0,0.0,0.0,0.0,0.0,0.0,0.0,0.0,0.0,0.0,0.0,0.0,0.0,0.0,0.0,0.0,0.0,0.0,0.0,0.0,0.0,0.0,0.0,0.0,0.0,0.0,0.0,0.0,0.0,0.0,0.0,0.0,0.0,0.0,0.0,0.0,0.0,0.0,0.0,0.0,-3.073,0.0,-3.0735,-3.0725,-3.0739,-3.0734,0.0,0.0,0.0,0.0,0.0,0.0,0.0,0.0,0.0,0.0,0.0,0.0,0.0,0.0,0.0,0.0,0.0,0.0,0.0,0.0,0.0,0.0,0.0,0.0,0.0,0.0,0.0,0.0,0.0,0.0,0.0,0.0,0.0,0.0,0.0,0.0,0.0,0.0,0.0,0.0,0.0,0.0,0.0,0.0,0.0,0.0,0.0,0.0,0.0,0.0,0.0,0.0,0.0,0.0,0.0,0.0,0.0,0.0,0.0,0.0,0.0,0.0,0.0,0.0,0.0,0.0,0.0,0.0,0.0,0.0,0.0,0.0,0.0,0.0,0.0,0.0,0.0,0.0,0.0,0.0,0.0,0.0,0.0,0.0,0.0,0.0,0.0,0.0,0.0,0.0,0.0,0.0,0.0,0.0,0.0,0.0,0.0,0.0,0.0,0.0,0.0,0.0,0.0,0.0,0.0,0.0,0.0,0.0,-3.0857,-3.0817,-3.0864,-3.0923,-3.0841,-3.0867,-3.0813,0.0,0.0,0.0,0.0,0.0,0.0,0.0,0.0,0.0,0.0,0.0,0.0,0.0,0.0,0.0,0.0,0.0,0.0,0.0,0.0,0.0,0.0,0.0,0.0,0.0,0.0,0.0,0.0,0.0,0.0,0.0,0.0,0.0,0.0,0.0,0.0,0.0,0.0,0.0,0.0,0.0,0.0,0.0,0.0,0.0,0.0,0.0,0.0,0.0,0.0,0.0,0.0,0.0,0.0,0.0,0.0,0.0,0.0,0.0,0.0,0.0,0.0,0.0,0.0,0.0,0.0,0.0,0.0,0.0,0.0,0.0,0.0,0.0,0.0,0.0,0.0,0.0,0.0,0.0,0.0,0.0,0.0,0.0,0.0,0.0,0.0,0.0,0.0,0.0,0.0,0.0,0.0,0.0,0.0,0.0,0.0,0.0,0.0,0.0,0.0,0.0,0.0,0.0,0.0,0.0,0.0,0.0,0.0,0.0,-3.173,-3.2296,-3.2592,-3.2569,-3.2019,-3.1699,0.0,0.0,0.0,0.0,0.0,0.0,0.0,0.0,0.0,0.0,0.0,0.0,0.0,0.0,0.0,0.0,0.0,0.0,0.0,0.0,0.0,0.0,0.0,0.0,0.0,0.0,0.0,0.0,0.0,0.0,0.0,0.0,0.0,0.0,0.0,0.0,0.0,0.0,0.0,0.0,0.0,0.0,0.0,0.0,0.0,0.0,0.0,0.0,0.0,0.0,0.0,0.0,0.0,0.0,0.0,0.0,0.0,0.0,0.0,0.0,0.0,0.0,0.0,0.0,0.0,0.0,0.0,0.0,0.0,0.0,0.0,0.0,0.0,0.0,0.0,0.0,0.0,0.0,0.0,0.0,0.0,0.0,0.0,0.0,0.0,0.0,0.0,0.0,0.0,0.0,0.0,0.0,0.0,0.0,0.0,0.0,0.0,0.0,0.0,0.0,0.0,0.0,0.0,0.0,0.0,0.0,0.0,0.0,0.0,-3.309,-3.3285,-3.3379,-3.3379,-3.2853,-3.244,-3.2104,0.0,0.0,0.0,0.0,0.0,0.0,0.0,0.0,0.0,0.0,0.0,0.0,0.0,0.0,0.0,0.0,0.0,0.0,0.0,0.0,0.0,0.0,0.0,0.0,0.0,0.0,0.0,0.0,0.0,0.0,0.0,0.0,0.0,0.0,0.0,0.0,0.0,0.0,0.0,0.0,0.0,0.0,0.0,0.0,0.0,0.0,0.0,0.0,0.0,0.0,0.0,0.0,0.0,0.0,0.0,0.0,0.0,0.0,0.0,0.0,0.0,0.0,0.0,0.0,0.0,0.0,0.0,0.0,0.0,0.0,0.0,0.0,0.0,0.0,0.0,0.0,0.0,0.0,0.0,0.0,0.0,0.0,0.0,0.0,0.0,0.0,0.0,0.0,0.0,0.0,0.0,0.0,0.0,0.0,0.0,0.0,0.0,0.0,0.0,0.0,0.0,0.0,0.0,0.0,0.0,0.0,0.0,0.0,-3.4766,-3.3961,-3.3565,-3.3565,-3.3506,-3.3096,0.0,0.0,0.0,0.0,0.0,0.0,0.0,0.0,0.0,0.0,0.0,0.0,0.0,0.0,0.0,0.0,0.0,0.0,0.0,0.0,0.0,0.0,0.0,0.0,0.0,0.0,0.0,0.0,0.0,0.0,0.0,0.0,0.0,0.0,0.0,0.0,0.0,0.0,0.0,0.0,0.0,0.0,0.0,0.0,0.0,0.0,0.0,0.0,0.0,0.0,0.0,0.0,0.0,0.0,0.0,0.0,0.0,0.0,0.0,0.0,0.0,0.0,0.0,0.0,0.0,0.0,0.0,0.0,0.0,0.0,0.0,0.0,0.0,0.0,0.0,0.0,0.0,0.0,0.0,0.0,0.0,0.0,0.0,0.0,0.0,0.0,0.0,0.0,0.0,0.0,0.0,0.0,0.0,0.0,0.0,0.0,0.0,0.0,0.0,0.0,0.0,0.0,0.0,0.0,0.0,0.0,0.0,0.0,0.0,-3.5655,-3.5441,-3.5318,-3.5308,-3.47,-3.4251,0.0,0.0,0.0,0.0,0.0,0.0,0.0,0.0,0.0,0.0,0.0,0.0,0.0,0.0,0.0,0.0,0.0,0.0,0.0,0.0,0.0,0.0,0.0,0.0,0.0,0.0,0.0,0.0,0.0,0.0,0.0,0.0,0.0,0.0,0.0,0.0,0.0,0.0,0.0,0.0,0.0,0.0,0.0,0.0,0.0,0.0,0.0,0.0,0.0,0.0,0.0,0.0,0.0,0.0,0.0,0.0,0.0,0.0,0.0,0.0,0.0,0.0,0.0,0.0,0.0,0.0,0.0,0.0,0.0,0.0,0.0,0.0,0.0,0.0,0.0,0.0,0.0,0.0,0.0,0.0,0.0,0.0,0.0,0.0,0.0,0.0,0.0,0.0,0.0,0.0,0.0,0.0,0.0,0.0,0.0,0.0,0.0,0.0,0.0,0.0,0.0,0.0,0.0,0.0,0.0,0.0,0.0,0.0,-3.6726,-3.7088,-3.709,-3.7109,-3.7097,-3.5903,-3.5062,0.0,0.0,0.0,0.0,0.0,0.0,0.0,0.0,0.0,0.0,0.0,0.0,0.0,0.0,0.0,0.0,0.0,0.0,0.0,0.0,0.0,0.0,0.0,0.0,0.0,0.0,0.0,0.0,0.0,0.0,0.0,0.0,0.0,0.0,0.0,0.0,0.0,0.0,0.0,0.0,0.0,0.0,0.0,0.0,0.0,0.0,0.0,0.0,0.0,0.0,0.0,0.0,0.0,0.0,0.0,0.0,0.0,0.0,0.0,0.0,0.0,0.0,0.0,0.0,0.0,0.0,0.0,0.0,0.0,0.0,0.0,0.0,0.0,0.0,0.0,0.0,0.0,0.0,0.0,0.0,0.0,0.0,0.0,0.0,0.0,0.0,0.0,0.0,0.0,0.0,0.0,0.0,0.0,0.0,0.0,0.0,0.0,0.0,0.0,0.0,0.0,0.0,0.0,0.0,0.0,0.0,0.0,0.0,-3.7808,-3.8573,-3.86,-3.8604,-3.8553,-3.7008,-3.5774,0.0,0.0,0.0,0.0,0.0,0.0,0.0,0.0,0.0,0.0,0.0,0.0,0.0,0.0,0.0,0.0,0.0,0.0,0.0,0.0,0.0,0.0,0.0,0.0,0.0,0.0,0.0,0.0,0.0,0.0,0.0,0.0,0.0,0.0,0.0,0.0,0.0,0.0,0.0,0.0,0.0,0.0,0.0,0.0,0.0,0.0,0.0,0.0,0.0,0.0,0.0,0.0,0.0,0.0,0.0,0.0,0.0,0.0,0.0,0.0,0.0,0.0,0.0,0.0,0.0,0.0,0.0,0.0,0.0,0.0,0.0,0.0,0.0,0.0,0.0,0.0,0.0,0.0,0.0,0.0,0.0,0.0,0.0,0.0,0.0,0.0,0.0,0.0,0.0,0.0,0.0,0.0,0.0,0.0,0.0,0.0,0.0,0.0,0.0,0.0,0.0,0.0,0.0,0.0,0.0,0.0,0.0,0.0,-3.8407,-3.8598,-3.8609,-3.8612,-3.86,-3.7577,-3.6933,0.0,0.0,0.0,0.0,0.0,0.0,0.0,0.0,0.0,0.0,0.0,0.0,0.0,0.0,0.0,0.0,0.0,0.0,0.0,0.0,0.0,0.0,0.0,0.0,0.0,0.0,0.0,0.0,0.0,0.0,0.0,0.0,0.0,0.0,0.0,0.0,0.0,0.0,0.0,0.0,0.0,0.0,0.0,0.0,0.0,0.0,0.0,0.0,-3.0574,0.0,0.0,0.0,0.0,0.0,0.0,0.0,0.0,0.0,0.0,0.0,0.0,0.0,0.0,0.0,0.0,0.0,0.0,0.0,0.0,0.0,0.0,0.0,0.0,0.0,0.0,0.0,0.0,0.0,0.0,0.0,0.0,0.0,0.0,0.0,0.0,0.0,0.0,0.0,0.0,0.0,0.0,0.0,0.0,0.0,0.0,0.0,0.0,0.0,0.0,0.0,0.0,0.0,0.0,0.0,0.0,0.0,0.0,0.0,-3.9585,-4.0346,-3.9976,-3.9956,-4.0327,-3.9188,-3.8141,0.0,0.0,0.0,0.0,0.0,0.0,0.0,0.0,0.0,0.0,0.0,0.0,0.0,0.0,0.0,0.0,0.0,0.0,0.0,0.0,0.0,0.0,0.0,0.0,0.0,0.0,0.0,0.0,0.0,0.0,0.0,0.0,0.0,0.0,0.0,0.0,0.0,0.0,0.0,0.0,0.0,0.0,0.0,0.0,0.0,0.0,0.0,0.0,0.0,0.0,0.0,0.0,0.0,0.0,0.0,0.0,0.0,0.0,0.0,0.0,0.0,0.0,0.0,0.0,0.0,0.0,0.0,0.0,0.0,0.0,0.0,0.0,0.0,0.0,0.0,0.0,0.0,0.0,0.0,0.0,0.0,0.0,0.0,0.0,0.0,0.0,0.0,0.0,0.0,0.0,0.0,0.0,0.0,0.0,0.0,0.0,0.0,0.0,0.0,0.0,0.0,0.0,0.0,0.0,0.0,0.0,0.0,-4.0201,-4.103,-4.2494,-4.1888,-4.1852,-4.2555,-4.1088,-3.9518,-3.7967,0.0,0.0,0.0,0.0,0.0,0.0,0.0,0.0,0.0,0.0,0.0,0.0,0.0,0.0,0.0,0.0,0.0,0.0,0.0,0.0,0.0,0.0,0.0,0.0,0.0,0.0,0.0,0.0,0.0,0.0,0.0,0.0,0.0,0.0,0.0,0.0,0.0,0.0,-3.1104,-3.1746,0.0,0.0,0.0,0.0,0.0,0.0,0.0,0.0,-3.3304,0.0,0.0,0.0,0.0,0.0,0.0,0.0,0.0,0.0,0.0,0.0,0.0,0.0,0.0,0.0,0.0,0.0,0.0,0.0,0.0,0.0,0.0,0.0,0.0,0.0,0.0,0.0,0.0,0.0,0.0,0.0,0.0,0.0,0.0,0.0,0.0,0.0,0.0,0.0,0.0,0.0,0.0,0.0,0.0,0.0,0.0,0.0,0.0,0.0,0.0,0.0,0.0,0.0,0.0,0.0,0.0,-4.0896,-4.1615,-4.2474,-4.3447,-4.3352,-4.3352,-4.345,-4.2516,-4.1521,-4.0452,0.0,0.0,0.0,0.0,0.0,0.0,0.0,0.0,0.0,0.0,0.0,0.0,0.0,0.0,0.0,0.0,0.0,0.0,0.0,0.0,0.0,0.0,0.0,0.0,0.0,0.0,0.0,0.0,0.0,0.0,0.0,0.0,0.0,0.0,0.0,0.0,0.0,0.0,0.0,-3.3083,-3.3176,0.0,0.0,0.0,0.0,0.0,0.0,0.0,0.0,-3.3187,0.0,0.0,0.0,0.0,0.0,0.0,0.0,0.0,0.0,0.0,0.0,0.0,0.0,0.0,0.0,0.0,0.0,0.0,0.0,0.0,0.0,0.0,0.0,0.0,0.0,0.0,0.0,0.0,0.0,0.0,0.0,0.0,0.0,0.0,0.0,0.0,0.0,0.0,0.0,0.0,0.0,0.0,0.0,0.0,0.0,0.0,0.0,0.0,0.0,0.0,0.0,0.0,0.0,0.0,0.0,-4.1771,-4.2646,-4.3489,-4.4328,-4.3918,-4.3918,-4.4348,-4.3548,-4.2669,0.0,0.0,0.0,0.0,0.0,0.0,0.0,0.0,0.0,0.0,0.0,0.0,0.0,0.0,0.0,0.0,0.0,0.0,0.0,0.0,0.0,0.0,0.0,0.0,0.0,0.0,0.0,0.0,0.0,0.0,0.0,0.0,0.0,0.0,0.0,0.0,0.0,0.0,0.0,0.0,-3.3801,-3.409,-3.407,0.0,0.0,0.0,0.0,0.0,0.0,-3.4658,-3.4639,0.0,0.0,0.0,0.0,0.0,0.0,0.0,0.0,0.0,0.0,0.0,0.0,0.0,0.0,0.0,0.0,0.0,0.0,0.0,0.0,0.0,0.0,0.0,0.0,0.0,0.0,0.0,0.0,0.0,0.0,0.0,0.0,0.0,0.0,0.0,0.0,0.0,0.0,0.0,0.0,0.0,0.0,0.0,0.0,0.0,0.0,0.0,0.0,0.0,0.0,0.0,0.0,0.0,0.0,0.0,-4.2903,-4.3603,-4.4367,-4.5187,-4.4582,-4.4543,-4.5207,-4.4406,-4.3645,0.0,0.0,0.0,0.0,0.0,0.0,0.0,0.0,0.0,0.0,0.0,0.0,0.0,0.0,0.0,0.0,0.0,0.0,0.0,0.0,0.0,0.0,0.0,0.0,0.0,0.0,0.0,0.0,0.0,0.0,0.0,0.0,0.0,0.0,0.0,0.0,0.0,0.0,0.0,0.0,0.0,-3.5229,-3.5229,-3.5903,0.0,0.0,0.0,0.0,-3.6415,-3.6434,0.0,0.0,0.0,0.0,0.0,0.0,0.0,0.0,0.0,0.0,0.0,0.0,0.0,0.0,0.0,0.0,0.0,0.0,0.0,0.0,0.0,0.0,0.0,0.0,0.0,0.0,0.0,0.0,0.0,0.0,0.0,0.0,0.0,0.0,0.0,0.0,0.0,0.0,0.0,0.0,0.0,0.0,0.0,0.0,0.0,0.0,0.0,0.0,0.0,0.0,0.0,0.0,0.0,0.0,0.0,0.0,-4.4641,-4.4797,-4.5265,-4.6085,-4.6046,-4.6046,-4.6124,-4.5304,-4.4797,0.0,0.0,0.0,0.0,0.0,0.0,0.0,0.0,0.0,0.0,0.0,0.0,0.0,0.0,0.0,0.0,0.0,0.0,0.0,0.0,0.0,0.0,0.0,0.0,0.0,0.0,0.0,0.0,0.0,0.0,0.0,0.0,0.0,0.0,0.0,0.0,0.0,0.0,0.0,0.0,0.0,-3.6996,-3.6996,-3.7687,-3.8205,0.0,0.0,-3.8205,-3.8188,-3.8207,0.0,0.0,0.0,0.0,0.0,0.0,0.0,0.0,0.0,0.0,0.0,0.0,0.0,0.0,0.0,0.0,0.0,0.0,0.0,0.0,0.0,0.0,0.0,0.0,0.0,0.0,0.0,0.0,0.0,0.0,0.0,0.0,0.0,0.0,0.0,0.0,0.0,0.0,0.0,0.0,0.0,0.0,0.0,0.0,0.0,0.0,0.0,0.0,0.0,0.0,0.0,0.0,0.0,0.0,0.0,-4.4484,-4.5695,-4.6222,-4.6885,-4.7686,-4.7725,-4.7725,-4.7705,-4.6905,-4.6241,0.0,0.0,0.0,0.0,0.0,0.0,0.0,0.0,0.0,0.0,0.0,0.0,0.0,0.0,0.0,0.0,0.0,0.0,0.0,0.0,0.0,0.0,0.0,0.0,0.0,0.0,0.0,0.0,0.0,0.0,0.0,0.0,0.0,0.0,0.0,0.0,0.0,0.0,0.0,0.0,0.0,0.0,-3.806,-3.8303,0.0,0.0,0.0,-3.8522,-3.8516,0.0,0.0,0.0,0.0,0.0,0.0,0.0,0.0,0.0,0.0,0.0,0.0,0.0,0.0,0.0,0.0,0.0,0.0,0.0,0.0,0.0,0.0,0.0,0.0,0.0,0.0,0.0,0.0,0.0,0.0,0.0,0.0,0.0,0.0,0.0,0.0,0.0,0.0,0.0,0.0,0.0,0.0,0.0,0.0,0.0,0.0,0.0,0.0,0.0,0.0,0.0,0.0,0.0,0.0,0.0,0.0,0.0,-4.6612,-4.7471,-4.8193,-4.8779,-4.8798,-4.8798,-4.8779,-4.8193,0.0,0.0,0.0,0.0,0.0,0.0,0.0,0.0,0.0,0.0,0.0,0.0,0.0,0.0,0.0,0.0,0.0,0.0,0.0,0.0,0.0,0.0,0.0,0.0,0.0,0.0,0.0,-3.6657,0.0,0.0,0.0,0.0,0.0,0.0,0.0,0.0,0.0,0.0,0.0,0.0,0.0,0.0,-3.8902,-3.8902,-3.9052,-3.9146,0.0,0.0,-3.9156,-3.9136,-3.9151,-3.9073,0.0,0.0,0.0,0.0,0.0,0.0,0.0,0.0,0.0,0.0,0.0,0.0,0.0,0.0,0.0,0.0,0.0,0.0,0.0,0.0,0.0,0.0,0.0,0.0,0.0,0.0,0.0,0.0,0.0,0.0,0.0,0.0,0.0,0.0,0.0,0.0,0.0,0.0,0.0,0.0,0.0,0.0,0.0,0.0,0.0,0.0,0.0,0.0,0.0,0.0,0.0,0.0,0.0,0.0,-4.6651,-4.751,-4.831,-4.8759,-4.8798,-4.8798,-4.8798,-4.8798,-4.874,-4.8349,0.0,0.0,0.0,0.0,0.0,0.0,0.0,0.0,0.0,0.0,0.0,0.0,0.0,0.0,0.0,0.0,0.0,0.0,0.0,0.0,0.0,0.0,0.0,0.0,0.0,0.0,0.0,0.0,0.0,0.0,0.0,0.0,0.0,0.0,0.0,0.0,0.0,0.0,0.0,0.0,0.0,-3.9722,-3.9722,-4.0405,-4.0909,0.0,-4.0918,-4.0933,-4.094,-4.0935,-4.0643,-3.9843,0.0,0.0,0.0,0.0,0.0,0.0,0.0,0.0,0.0,0.0,0.0,0.0,0.0,0.0,0.0,0.0,0.0,0.0,0.0,0.0,0.0,0.0,0.0,0.0,0.0,0.0,0.0,0.0,0.0,0.0,0.0,0.0,0.0,0.0,0.0,0.0,0.0,0.0,0.0,0.0,0.0,0.0,0.0,0.0,0.0,0.0,0.0,0.0,0.0,0.0,0.0,0.0,0.0,-4.7764,-4.9107,-4.9462,-4.9872,-5.0379,-5.0418,-5.0399,-5.0399,-4.9872,-4.9462,0.0,0.0,0.0,0.0,0.0,0.0,0.0,0.0,0.0,0.0,0.0,0.0,0.0,0.0,0.0,0.0,0.0,0.0,0.0,0.0,0.0,0.0,0.0,0.0,0.0,0.0,0.0,0.0,-3.8604,-3.8604,-3.8604,0.0,0.0,0.0,0.0,0.0,0.0,0.0,0.0,0.0,0.0,-4.14,-4.142,-4.2142,0.0,0.0,-4.2698,-4.2694,-4.2709,-4.2705,-4.2568,-4.2256,-4.1757,0.0,0.0,0.0,0.0,0.0,0.0,0.0,0.0,0.0,0.0,0.0,0.0,0.0,0.0,0.0,0.0,0.0,0.0,0.0,0.0,0.0,0.0,0.0,0.0,0.0,0.0,0.0,0.0,0.0,0.0,0.0,0.0,0.0,0.0,0.0,0.0,0.0,0.0,0.0,0.0,0.0,0.0,0.0,0.0,0.0,0.0,0.0,0.0,0.0,0.0,0.0,0.0,-4.8935,-5.0087,-5.0614,-5.116,-5.1765,-5.2058,-5.2175,-5.2156,-5.1336,-5.075,0.0,0.0,0.0,0.0,0.0,0.0,0.0,0.0,0.0,0.0,0.0,0.0,0.0,0.0,0.0,0.0,0.0,0.0,0.0,0.0,0.0,0.0,0.0,0.0,0.0,0.0,0.0,0.0,-3.9958,-4.0134,-4.0132,0.0,0.0,0.0,0.0,0.0,0.0,0.0,0.0,0.0,0.0,-4.2786,-4.2806,-4.3313,-4.3704,-4.3704,-4.37,-4.3693,-4.3693,-4.3693,-4.3693,-4.3693,0.0,0.0,0.0,0.0,0.0,0.0,0.0,0.0,0.0,0.0,0.0,0.0,0.0,0.0,0.0,0.0,0.0,0.0,0.0,0.0,0.0,0.0,0.0,0.0,0.0,0.0,0.0,0.0,0.0,0.0,-3.8422,0.0,0.0,0.0,0.0,0.0,0.0,0.0,0.0,0.0,0.0,0.0,0.0,0.0,0.0,0.0,0.0,0.0,0.0,0.0,0.0,0.0,0.0,-5.0067,-5.0126,-5.1765,-5.2624,-5.2683,-5.3502,-5.3893,-5.3873,-5.3093,-5.2234,-5.1414,0.0,0.0,0.0,0.0,0.0,0.0,0.0,0.0,0.0,0.0,0.0,0.0,0.0,0.0,0.0,0.0,0.0,0.0,0.0,0.0,0.0,0.0,0.0,0.0,0.0,0.0,-4.2266,-4.3066,-4.3496,0.0,0.0,0.0,0.0,0.0,0.0,0.0,0.0,0.0,0.0,-4.3645,-4.3665,-4.3684,-4.3684,-4.3782,-4.3762,-4.3743,-4.3723,-4.3762,-4.3762,-4.3704,0.0,0.0,0.0,0.0,0.0,0.0,0.0,0.0,0.0,0.0,0.0,0.0,0.0,0.0,0.0,0.0,0.0,0.0,0.0,0.0,0.0,0.0,0.0,0.0,0.0,0.0,0.0,-3.8519,-3.8558,0.0,0.0,0.0,0.0,0.0,0.0,0.0,0.0,0.0,0.0,0.0,-4.5351,-4.5916,0.0,0.0,0.0,0.0,0.0,0.0,0.0,0.0,0.0,0.0,0.0,0.0,-5.0692,-5.1804,-5.239,-5.2995,-5.3541,-5.3854,-5.399,-5.399,-5.3717,-5.3151,-5.2292,0.0,0.0,0.0,0.0,0.0,0.0,0.0,0.0,0.0,0.0,0.0,0.0,0.0,0.0,0.0,0.0,0.0,0.0,0.0,0.0,0.0,0.0,0.0,0.0,0.0,-4.3262,0.0,0.0,0.0,0.0,0.0,0.0,0.0,0.0,0.0,0.0,0.0,-4.3375,-4.3665,-4.4211,-4.4563,-4.4563,-4.5051,-4.5421,0.0,0.0,0.0,0.0,0.0,0.0,0.0,0.0,0.0,0.0,0.0,0.0,0.0,0.0,-4.3352,-4.2204,-4.1983,-4.1987,-4.1959,0.0,0.0,0.0,0.0,0.0,0.0,0.0,0.0,0.0,0.0,0.0,0.0,0.0,0.0,-4.0266,0.0,-4.087,0.0,0.0,0.0,0.0,0.0,0.0,0.0,0.0,-4.5864,-4.6566,-4.7111,-4.7669,-4.8253,0.0,-4.8806,-4.791,0.0,0.0,0.0,0.0,0.0,0.0,0.0,0.0,-5.157,-5.2663,-5.3288,-5.3873,-5.442,-5.4752,-5.4908,-5.4888,-5.4596,-5.4049,-5.3171,-5.2605,-5.1902,0.0,0.0,0.0,0.0,0.0,0.0,0.0,0.0,0.0,0.0,0.0,0.0,0.0,0.0,0.0,0.0,0.0,0.0,0.0,0.0,0.0,0.0,0.0,-4.4254,0.0,0.0,0.0,0.0,0.0,0.0,0.0,0.0,0.0,-4.425,-4.4422,-4.4715,-4.5008,-4.5792,-4.6319,-4.6319,0.0,0.0,0.0,0.0,0.0,0.0,0.0,-4.7822,-4.7295,-4.7198,-4.7015,-4.6445,-4.6356,-4.6351,-4.6331,0.0,0.0,-4.4922,-4.4586,-4.4577,-4.4582,-4.4532,-4.4423,-4.4111,-4.4052,-4.3975,0.0,0.0,0.0,0.0,0.0,0.0,0.0,0.0,-4.3643,-4.3617,0.0,-4.3682,0.0,0.0,0.0,0.0,0.0,-4.5903,0.0,0.0,-4.8436,-4.8884,-4.8943,-4.8982,-4.8982,-4.8962,-4.9048,-4.9028,-4.8962,-4.8982,0.0,0.0,0.0,0.0,0.0,0.0,-5.2761,-5.2878,-5.4439,-5.5298,-5.5357,-5.6138,-5.6567,-5.6547,-5.5767,-5.4927,-5.4088,-5.401,-5.362,-5.2761,-5.1902,0.0,0.0,0.0,0.0,0.0,0.0,0.0,0.0,0.0,0.0,0.0,0.0,0.0,0.0,0.0,0.0,0.0,0.0,0.0,0.0,-4.4618,0.0,0.0,0.0,0.0,0.0,0.0,0.0,0.0,0.0,0.0,-4.5476,-4.5886,-4.6687,-4.7487,0.0,0.0,0.0,0.0,-4.8779,-4.8759,-4.8779,-4.8779,-4.8779,-4.8818,-4.8837,-4.8857,0.0,0.0,-4.8965,-4.9009,-4.899,-4.8935,-4.9001,-4.844,-4.6933,-4.647,-4.6289,-4.6287,-4.6274,-4.5975,-4.5267,-4.5202,-4.4929,-4.5358,0.0,0.0,0.0,0.0,-4.3897,-4.4306,-4.4559,-4.5202,-4.5436,-4.5494,-4.6098,0.0,0.0,0.0,0.0,0.0,0.0,-4.8495,-4.9313,-5.019,-5.0911,-5.1534,-5.2158,-5.245,-5.243,-5.2458,-5.243,-5.245,-5.243,-5.1815,-5.0621,0.0,0.0,0.0,0.0,-5.3932,-5.4537,-5.5044,-5.5591,-5.6216,-5.6469,-5.6606,-5.6606,-5.6372,-5.5806,-5.4966,-5.4927,-5.4517,-5.3659,-5.28,0.0,0.0,0.0,0.0,0.0,0.0,0.0,0.0,0.0,0.0,0.0,0.0,0.0,0.0,0.0,0.0,0.0,0.0,0.0,-4.7406,-4.7642,-4.7894,0.0,0.0,0.0,0.0,0.0,0.0,0.0,0.0,0.0,-4.7816,-4.7908,-4.817,0.0,0.0,-4.8801,-4.8791,-4.8791,-4.8791,-4.8791,-4.8801,0.0,-4.8806,-4.9317,-4.954,-4.8993,-4.9407,-5.0014,-5.0582,-5.1195,-5.1605,-5.1572,-5.2094,-5.2322,-5.1752,-4.9666,-4.8197,-4.8074,-4.8041,-4.7995,-4.7754,-4.7676,-4.7579,-4.756,-4.567,-4.567,-4.567,-4.5728,-4.6215,-4.6449,-4.6488,-4.6995,-4.7228,-4.7248,-4.7774,-4.8015,-4.8073,-4.8884,0.0,0.0,0.0,-5.0755,-5.1573,-5.208,-5.2606,-5.3132,-5.3638,-5.3892,-5.3892,-5.3892,-5.3892,-5.3892,-5.3892,-5.3557,-5.2864,0.0,0.0,-5.4006,-5.4352,-5.4771,-5.5279,-5.563,-5.6059,-5.6586,-5.6606,-5.6606,-5.6606,-5.6606,-5.6352,-5.5845,-5.5825,-5.5415,-5.4556,-5.401,-5.319,0.0,0.0,0.0,0.0,0.0,0.0,0.0,0.0,0.0,0.0,0.0,-4.753,-4.8017,0.0,0.0,0.0,-4.8882,-4.8892,-4.8892,-4.8883,0.0,0.0,0.0,0.0,0.0,0.0,0.0,-5.0742,-5.082,-5.0815,-5.0829,-5.082,-5.0577,-4.9923,-5.0098,-5.0425,-5.079,0.0,-5.0823,-5.0829,-5.0834,-5.082,-5.0864,-5.1303,-5.1468,-5.0995,-5.1343,-5.1836,-5.2329,-5.2882,-5.3201,-5.3264,-5.3629,-5.3936,-5.391,-5.2161,-5.0809,-5.0809,-5.0821,-5.0618,-4.9976,-4.9781,-4.9605,-4.9216,-4.9196,-4.9216,-4.9079,-4.8904,-4.8962,-4.904,-4.9118,-4.9177,-4.9196,-4.9216,-4.9216,-4.9196,-4.9255,-4.9979,0.0,-5.1554,-5.2333,-5.3171,-5.4009,-5.4009,-5.4028,-5.4106,-5.4184,-5.4203,-5.4203,-5.4281,-5.4301,-5.434,-5.4253,-5.4609,-5.5354,-5.4534,-5.4131,-5.424,-5.5021,-5.5415,-5.5415,-5.6196,-5.6645,-5.6704,-5.6626,-5.6645,-5.6704,-5.6645,-5.6606,-5.6606,-5.6606,-5.6235,-5.5454,-5.5337,-5.4556,-5.3014,0.0,0.0,0.0,0.0,0.0,0.0,0.0,0.0,0.0,0.0,0.0,0.0,0.0,0.0,0.0,-4.9274,0.0,-4.9302,-4.9243,0.0,0.0,0.0,-4.9845,-5.1414,-5.1609,-5.2194,-5.3728,0.0,0.0,-5.3904,-5.3904,-5.3338,-5.1895,-5.2285,-5.2987,-5.3787,-5.3767,-5.3904,-5.3683,-5.3826,-5.3871,-5.3615,-5.3738,-5.3791,-5.3837,-5.4116,-5.4037,-5.4164,-5.4236,-5.422,-5.4245,-5.4156,-5.4138,-5.4117,-5.4083,-5.4106,-5.4009,-5.3872,-5.3327,-5.1885,-5.1515,-5.1125,-5.268,-5.2684,-5.2703,-5.1554,-4.9781,-5.0424,-5.1086,-5.1749,-5.2411,-5.2703,-5.2703,-5.2684,-5.2684,-5.2684,-5.289,-5.3085,-5.3288,-5.3502,-5.4067,-5.4866,-5.4905,-5.5236,-5.5899,-5.6503,-5.6795,-5.6834,-5.7477,-5.7797,-5.7755,-5.7174,-5.6975,-5.7127,-5.6308,-5.5904,-5.5977,-5.6196,-5.6294,-5.6294,-5.6508,-5.6899,-5.7484,-5.6918,-5.6899,-5.7504,-5.6918,-5.6606,-5.6606,-5.6606,-5.6508,-5.6274,-5.565,-5.5103,-5.4713,-5.4068,0.0,0.0,0.0,0.0,0.0,0.0,0.0,0.0,0.0,-4.9157,-4.9734,0.0,-5.035,0.0,-5.2392,-5.2791,-5.2776,-5.2762,0.0,0.0,-5.2681,-5.2857,-5.3267,-5.3306,-5.3455,-5.3832,-5.3891,-5.3903,-5.3888,-5.3908,-5.4025,-5.4239,-5.3876,-5.3669,-5.3869,-5.39,-5.3908,-5.3947,-5.3981,-5.3897,-5.4014,-5.3972,-5.4287,-5.4894,-5.5015,-5.5201,-5.5868,-5.5986,-5.5953,-5.5912,-5.59,-5.5867,-5.5857,-5.5887,-5.586,-5.5782,-5.4846,-5.3814,-5.3346,-5.3268,-5.3151,-5.3891,-5.3896,-5.3896,-5.3279,-5.2343,-5.2419,-5.2723,-5.321,-5.3697,-5.3892,-5.3892,-5.3892,-5.3892,-5.3931,-5.4301,-5.4476,-5.4515,-5.4866,-5.5509,-5.6288,-5.6308,-5.6775,-5.7613,-5.8061,-5.8276,-5.8276,-5.878,-5.8983,-5.8972,-5.8577,-5.8357,-5.8362,-5.7899,-5.767,-5.768,-5.6977,-5.6606,-5.6606,-5.6957,-5.7543,-5.8324,-5.7953,-5.7758,-5.7777,-5.7387,-5.6957,-5.6626,-5.6606,-5.6606,-5.6606,-5.6138,-5.5689,-5.5318,-5.4849,-5.44,0.0,0.0,0.0,0.0,0.0,0.0,0.0,0.0,0.0,0.0,0.0,-5.2236,-5.319,-5.3717,-5.3991,-5.3955,-5.3955,-5.3936,-5.3897,-5.3897,-5.4027,-5.4449,-5.4468,-5.4617,-5.5026,-5.5058,-5.5194,-5.5528,-5.5587,-5.5918,-5.6775,-5.6472,-5.5896,-5.5197,-5.5061,-5.5061,-5.5041,-5.505,-5.5209,-5.5549,-5.5675,-5.597,-5.6788,-5.7011,-5.7174,-5.7625,-5.7719,-5.769,-5.7662,-5.7655,-5.7505,-5.7143,-5.7009,-5.6931,-5.6464,-5.5743,-5.4983,-5.4574,-5.4476,-5.4398,-5.4456,-5.4573,-5.4573,-5.5003,-5.5646,-5.489,-5.4445,-5.4231,-5.4231,-5.4231,-5.4231,-5.4231,-5.4301,-5.4457,-5.5197,-5.5587,-5.5743,-5.6483,-5.7184,-5.7847,-5.7866,-5.8276,-5.8977,-5.9094,-5.9152,-5.9181,-5.9276,-5.933,-5.935,-5.9293,-5.9271,-5.9265,-5.9158,-5.9124,-5.9046,-5.7641,-5.6938,-5.6938,-5.7601,-5.8382,-5.9222,-5.9158,-5.8788,-5.8148,-5.7914,-5.7465,-5.6782,-5.6645,-5.6606,-5.6606,-5.6606,-5.6255,-5.5493,-5.5474,-5.5142,0.0,-5.4225,0.0,0.0,0.0,0.0,0.0,0.0,0.0,0.0,-5.4102,-5.4172,-5.4156,-5.4254,-5.4306,-5.4236,-5.4236,-5.4268,-5.4371,-5.439,-5.4726,-5.5567,-5.5684,-5.5976,-5.6736,-5.6814,-5.7087,-5.7691,-5.7866,-5.8159,-5.8704,-5.8743,-5.8217,-5.7145,-5.6814,-5.6814,-5.6814,-5.6823,-5.7053,-5.7655,-5.788,-5.8117,-5.8853,-5.8923,-5.912,-5.9,-5.9031,-5.9061,-5.9053,-5.8981,-5.8753,-5.8,-5.7875,-5.7633,-5.7068,-5.6873,-5.6503,-5.5645,-5.5372,-5.5119,-5.7473,-5.8104,-5.8104,-5.8201,-5.8357,-5.8194,-5.731,-5.6023,-5.6003,-5.6003,-5.6003,-5.5996,-5.6398,-5.7061,-5.7237,-5.7677,-5.8276,-5.8451,-5.8607,-5.8763,-5.8743,-5.8841,-5.9035,-5.9717,-6.0058,-6.0094,-6.0765,-6.1132,-6.1166,-6.0483,-6.0157,-6.0115,-5.9436,-5.9124,-5.9085,0.0,0.0,0.0,-5.8773,-5.928,-6.01,-5.9475,-5.9358,-5.9846,-5.8519,0.0,-5.7562,-5.6957,-5.6606,-5.6606,-5.6606,0.0,0.0,0.0,0.0,0.0,0.0,0.0,0.0,0.0,0.0,0.0,-5.5723,-5.5508,-5.4174,-5.4645,-5.502,-5.4987,-5.5619,-5.601,-5.6035,-5.6008,-5.6274,-5.6901,-5.6979,-5.7329,-5.8159,-5.8256,-5.8353,-5.849,-5.8509,-5.8568,-5.8704,-5.8763,-5.8821,-5.9055,-5.8996,-5.886,-5.8607,-5.849,-5.849,-5.8529,-5.841,-5.8543,-5.8806,-5.885,-5.8909,-5.9093,-5.9114,-5.916,-5.921,-5.9171,-5.9139,-5.9182,-5.9105,-5.9092,-5.8777,-5.8761,-5.8685,-5.8548,-5.849,-5.8061,-5.658,-5.6249,-5.6191,-5.868,0.0,-5.9123,-5.9123,0.0,-5.9123,-5.8596,-5.7796,-5.7779,-5.7772,-5.7792,-5.7785,-5.8012,-5.8441,-5.8441,-5.8655,-5.905,-5.905,-5.9264,-5.9674,-5.9693,-5.9888,-6.0297,-6.0746,-6.0929,-6.0956,-6.1412,-6.168,-6.1679,-6.1256,-6.1047,-6.1037,-6.0588,-6.0373,-6.0393,-6.0393,-6.0178,-5.9749,-5.9749,-6.0159,-6.0978,-6.0607,-6.0373,-6.0373,-5.9553,0.0,0.0,0.0,0.0,0.0,0.0,0.0,0.0,0.0,0.0,-5.7218,-5.6417,-5.6133,-5.6552,-5.6553,-5.6723,-5.7152,-5.7576,-5.7088,-5.5382,-5.6049,-5.653,-5.6524,-5.7258,-5.7732,-5.7728,-5.7728,-5.7914,-5.8295,-5.8353,-5.8529,-5.8899,-5.8996,-5.8996,-5.8996,-5.8996,-5.9133,-5.9581,-5.9639,-5.9834,-6.0204,-6.0282,-6.0243,-6.0204,-5.9522,-5.8996,-5.8996,-5.8986,-5.9206,-5.9625,-5.9736,-5.9929,-6.0256,-6.0396,-6.037,-6.0389,-6.0373,-6.0388,-6.0383,-6.0392,-6.0256,-5.974,-5.9646,-5.9521,-5.9113,-5.8996,-5.8782,-5.7886,-5.773,-5.7749,-5.9417,-5.9573,-5.9553,-5.9573,-5.9573,-5.9553,-5.9573,-5.9529,0.0,0.0,0.0,-5.9105,-5.9183,-5.932,-5.9339,-5.9391,-5.9547,-5.9528,-5.9937,-6.06,-6.062,-6.0951,-6.1576,-6.1576,-6.1615,-6.1621,-6.1673,-6.1699,-6.1705,-6.1715,-6.1701,-6.1701,-6.1701,-6.1701,-6.1701,-6.1701,-6.133,-6.0666,-6.0627,-6.0978,-6.1681,-6.1701,-6.1369,-6.0646,-6.0471,-6.0061,-5.9358,-5.9183,-5.9104,-5.9104,-5.9104,-5.9117,-5.9075,-5.8476,-5.8124,-5.8085,-5.744,-5.7356,-5.8065,-5.8058,-5.8338,-5.904,-5.9077,-5.848,-5.7043,-5.7597,-5.8012,-5.8016,-5.8621,-5.8975,-5.8996,-5.8996,-5.9055,-5.9191,-5.923,-5.9289,-5.9445,-5.9464,-5.9542,-5.9445,-5.9542,-5.9717,-6.0419,-6.0536,-6.0769,-6.1393,-6.1451,-6.1588,-6.1432,-6.0419,-5.962,-5.962,-5.9698,-5.9793,-6.0371,-6.06,-6.0906,-6.1442,-6.1616,-6.1711,-6.1699,-6.1711,-6.1713,-6.1564,-6.171,-6.1342,-6.071,-6.0539,-6.0297,-5.9609,-5.9453,-5.9453,-5.9445,-5.9464,-5.9328,-6.0627,-6.1349,-6.1349,-6.1349,-6.133,-6.133,-6.133,-6.1213,-5.9744,-5.9119,-5.9119,-5.9119,-5.9519,-6.0235,-6.0216,-6.0594,-6.1224,-6.1244,-6.1322,-6.1419,-6.1439,-6.1497,-6.1576,-6.1576,-6.1621,-6.1693,-6.1718,-6.1705,-6.1715,-6.1701,-6.1701,-6.1701,-6.1701,-6.1701,-6.1701,-6.1701,-6.1642,-6.1525,-6.1505,-6.1583,-6.1701,-6.1701,-6.1642,-6.1486,-6.0783,-6.0354,-6.0212,-5.9534,-5.9104,-5.9124,-5.9163,-5.9163,-5.9101,-5.9071,-5.8992,-5.8937,-5.882,-5.8792,-5.8922,-5.891,-5.8962,-5.9079,-5.9042,-5.8925,-5.8767,-5.8792,-5.8816,-5.8835,-5.8994,-5.8986,-5.8996,-5.9055,-5.9386,-5.999,-6.0107,-6.038,-6.1042,-6.114,-6.112,-6.1101,-6.1218,-6.1179,-6.1276,-6.1354,-6.1373,-6.1549,-6.1588,-6.1588,-6.1549,-6.1412,-6.1237,-6.1237,-6.1237,-6.1285,-6.1311,-6.1412,-6.1472,-6.1637,-6.1701,-6.1697,-6.1717,-6.1699,-6.1713,-6.1709,-6.1701,-6.1632,-6.1439,-6.1446,-6.1276,-6.1019,-6.101,-6.1069,-6.1032,-6.1051,-6.0692,-6.1349,-6.1701,-6.1701,-6.1701,-6.1701,-6.1701,-6.1701,-6.1642,-6.0861,-6.051,-6.051,-6.051,-6.072,-6.1086,-6.1105,-6.13,-6.166,-6.164,-6.164,-6.166,-6.164,-6.164,-6.164,-6.164,-6.1685,-6.171,-6.171,-6.1715,-6.1701,-6.1701,-6.1701,-6.1701,-6.1701,-6.1701,-6.1701,-6.1701,-6.1701,-6.1701,-6.1701,-6.1701,-6.1701,-6.1701,-6.1701,-6.1701,-6.1291,-6.1115,-6.1115,-6.0725,-6.0522,-6.052,-6.052,-6.0546,-6.0516,-6.0089,-5.9841,-5.9792,-5.9354,-5.931,-5.9788,-6.0223,-6.0461,-6.0453,-6.0428,-6.0428,-6.0465,-6.0016,-5.9696,-5.9735,-6.0097,-6.0399,-6.0419,-6.0399,-6.0575,-6.0945,-6.1003,-6.1159,-6.149,-6.1588,-6.1588,-6.1588,-6.1588,-6.1588,-6.1588,-6.1588,-6.1588,-6.1588,-6.1588,-6.1588,-6.1588,-6.1588,-6.1588,-6.1588,-6.1588,-6.1578,-6.1576,-6.1592,-6.1634,-6.1705,-6.1715,-6.1709,-6.1707,-6.1715,-6.1698,-6.1711,-6.1717,-6.1701,-6.171,-6.1685,-6.1654,-6.1588,-6.158,-6.158,-6.1592,-6.1584,-6.1283,-6.1701,-6.1701,-6.1701,-6.1701,-6.1701,-6.1701,-6.1701,-6.1701,-6.1701,-6.1701,-6.1701,-6.1701,-6.1701,-6.1701,-6.1701,-6.1701,-6.1701,-6.1701,-6.1701,-6.1701,-6.1701,-6.1701,-6.1701,-6.1701,-6.1701,-6.1701,-6.1701,-6.1701,-6.1701,-6.1701,-6.1701,-6.1701,-6.1701,-6.1701,-6.1701,-6.1701,-6.1701,-6.1701,-6.1701,-6.1701,-6.1701,-6.1701,-6.1701,-6.1701,-6.1701,-6.1701,-6.1705,-6.1713,-6.1707,-6.1699,-6.1699,-6.1711,-6.1676,-6.1071,-6.069,-6.062,-6.004,-5.9962,-6.0625,-6.1233,-6.1586,-6.1588,-6.1588,-6.1588,-6.1529,-6.1003,-6.0594,-6.0672,-6.1179,-6.1529,-6.151,-6.1529,-6.1588,-6.1588,-6.1588,-6.1549,-6.1588,-6.1588,-6.1588,-6.1588,-6.1588,-6.1588,-6.1588,-6.1588,-6.1588,-6.1588,-6.1588,-6.1588,-6.1588,-6.1588,-6.1588,-6.1588,-6.1588,-6.1597,-6.1595,-6.1584,-6.1619,-6.1673,-6.1685,-6.1696,-6.1705,-6.1707,-6.1717,-6.1699,-6.1711,-6.1717,-6.1709,-6.1701,-6.1691,-6.1634,-6.1628,-6.1609,-6.1615,-6.1595,-6.1588,-6.1701,-6.1701,-6.1701,-6.1701,-6.1701,-6.1701,-6.1701,-6.1701,-6.1701,-6.1701,-6.1701,-6.1701,-6.1701,-6.1701,-6.1701,-6.1701,-6.1701,-6.1701,-6.1701,-6.1701,-6.1701,-6.1701,-6.1701,-6.1701,-6.1701,-6.1701,-6.1701,-6.1701,-6.1701,-6.1701,-6.1701,-6.1701,-6.1701,-6.172,-6.172,-6.174,-6.172,-6.1701,-6.1701,-6.1701,-6.1701,-6.1701,-6.1701,-6.1701,-6.1701,-6.1709,-6.1707,-6.1716,-6.1699,-6.1699,-6.1715,-6.1701,-6.1699,-6.1615,-6.153,-6.1485,-6.1368,-6.1424,-6.1461,-6.1558,-6.1588,-6.1588,-6.1588,-6.1588,-6.1588,-6.151,-6.1471,-6.1471,-6.1529,-6.1588,-6.1588,-6.1588,-6.1588,-6.1588,-6.1588,-6.1588,-6.1588,-6.1588,-6.1588,-6.1588,-6.1588,-6.1588,-6.1588,-6.1588,-6.1588,-6.1588,-6.1588,-6.1588,-6.1588,-6.1588,-6.1588,-6.1588,-6.1588,-6.1588,-6.1597,-6.1586,-6.1592,-6.1615,-6.1654,-6.1685,-6.1696,-6.1705,-6.1717,-6.1716,-6.1699,-6.1716,-6.1707,-6.1717,-6.1701,-6.1696,-6.1676,-6.1666,-6.1609,-6.1602,-6.1588,-6.1701,-6.1701,-6.1701,-6.1701,-6.1701,-6.1701,-6.1701,-6.1701,-6.1701,-6.1701,-6.1701,-6.1701,-6.1701,-6.1701,-6.1701,-6.1701,-6.1701,-6.1701,-6.1701,-6.1701,-6.1701,-6.1701,-6.1701,-6.1701,-6.1701,-6.1701,-6.1701,-6.1701,-6.1701,-6.1701,-6.1701,-6.1701,-6.1701,-6.1954,-6.2403,-6.2481,-6.272,-6.3224,-6.3232,-6.3236,-6.3098,-6.2212,-6.1697,-6.1717,-6.1705,-6.1717,-6.1717,-6.1715,-6.1704,-6.1704,-6.1709,-6.171,-6.1712,-6.1667,-6.1634,-6.16,-6.1584,-6.1595,-6.1588,-6.1588,-6.1588,-6.1588,-6.1588,-6.1588,-6.1588,-6.1588,-6.1588,-6.1588,-6.1588,-6.1588,-6.1588,-6.1588,-6.1588,-6.1588,-6.1588,-6.1588,-6.1588,-6.1588,-6.1588,-6.1588,-6.1588,-6.1588,-6.1588,-6.1588,-6.1588,-6.1588,-6.1588,-6.1588,-6.1588,-6.1588,-6.1588,-6.1588,-6.1588,-6.1588,-6.1588,-6.1597,-6.1595,-6.1612,-6.1634,-6.1654,-6.1685,-6.1715,-6.1709,-6.1704,-6.1711,-6.1717,-6.1698,-6.1715,-6.1711,-6.1704,-6.1705,-6.1696,-6.1646,-6.1666,-6.166,-6.1701,-6.1701,-6.1701,-6.1701,-6.1701,-6.1701,-6.1701,-6.1701,-6.1701,-6.1701,-6.1701,-6.1701,-6.1701,-6.1701,-6.1701,-6.1701,-6.1701,-6.1701,-6.1701,-6.1701,-6.1701,-6.1701,-6.1701,-6.1701,-6.1701,-6.1701,-6.1701,-6.1701,-6.174,-6.1974,-6.2052,-6.2091,-6.2286,-6.2735,-6.3282,-6.334,-6.3669,-6.4213,-6.4309,-6.4294,-6.412,-6.3066,-6.2402,-6.24,-6.241,-6.2395,-6.2419,-6.2393,-6.2374,-6.2374,-6.2376,-6.2382,-6.2382,-6.2141,-6.1853,-6.1615,-6.1578,-6.1588,-6.1588,-6.1588,-6.1588,-6.1588,-6.1588,-6.1588,-6.1588,-6.1588,-6.1588,-6.1588,-6.1588,-6.1588,-6.1588,-6.1588,-6.1588,-6.1588,-6.1588,-6.1588,-6.1588,-6.1588,-6.1588,-6.1588,-6.1588,-6.1588,-6.1588,-6.1588,-6.1588,-6.1588,-6.1588,-6.1588,-6.1588,-6.1588,-6.1588,-6.1588,-6.1588,-6.1588,-6.1588,-6.1588,-6.1578,-6.1576,-6.16,-6.1634,-6.1673,-6.171,-6.1715,-6.1713,-6.1697,-6.1704,-6.1713,-6.1716,-6.1699,-6.1715,-6.1704,-6.1713,-6.169,-6.1709,-6.1709,-6.1701,-6.1701,-6.1701,-6.174,-6.172,-6.174,-6.1759,-6.1896,-6.1798,-6.1779,-6.1837,-6.1818,-6.174,-6.1818,-6.1876,-6.174,-6.1701,-6.1701,-6.1701,-6.1701,-6.1701,-6.1701,-6.1701,-6.1701,-6.1701,-6.172,-6.1818,-6.1837,-6.1876,-6.2559,-6.293,-6.2989,-6.3652,-6.414,-6.4238,-6.4243,-6.4281,-6.4473,-6.4502,-6.4392,-6.4382,-6.4271,-6.4177,-6.4189,-6.414,-6.404,-6.4091,-6.4093,-6.404,-6.4067,-6.3982,-6.4026,-6.399,-6.3261,-6.2492,-6.1811,-6.1666,-6.1666,-6.1705,-6.1744,-6.1724,-6.1685,-6.1802,-6.1666,-6.1841,-6.1841,-6.1841,-6.1666,-6.1822,-6.1783,-6.1783,-6.1802,-6.1705,-6.1705,-6.1685,-6.1724,-6.1685,-6.1861,-6.1627,-6.1705,-6.1822,-6.1899,-6.1724,-6.1588,-6.1783,-6.1783,-6.1685,-6.1744,-6.1861,-6.1744,-6.1763,-6.1724,-6.1685,-6.1607,-6.1588,-6.1588,-6.1578,-6.1595,-6.1603,-6.1619,-6.166,-6.1699,-6.171,-6.1715,-6.1705,-6.1705,-6.1709,-6.1701,-6.1713,-6.1699,-6.1716,-6.1711,-6.1713,-6.1709,-6.1709,-6.1701,-6.1701,-6.1701,-6.2013,-6.252,-6.252,-6.2833,-6.334,-6.336,-6.336,-6.336,-6.336,-6.336,-6.336,-6.336,-6.2755,-6.1779,-6.1701,-6.1701,-6.1701,-6.1701,-6.1701,-6.1701,-6.1701,-6.1701,-6.1779,-6.2267,-6.2813,-6.336,-6.3711,-6.3828,-6.3848,-6.4121,-6.455,-6.5028,-6.5146,-6.5371,-6.5883,-6.5965,-6.5936,-6.5853,-6.59,-6.59,-6.5847,-6.4798,-6.4232,-6.4241,-6.4216,-6.4209,-6.4216,-6.4221,-6.4205,-6.4177,-6.3867,-6.3546,-6.3263,-6.3185,-6.3205,-6.3205,-6.3205,-6.3185,-6.3205,-6.3185,-6.3127,-6.3205,-6.3205,-6.3205,-6.3185,-6.3166,-6.3205,-6.3107,-6.2757,-6.2445,-6.2484,-6.2893,-6.3127,-6.3185,-6.3185,-6.3205,-6.3205,-6.3205,-6.3205,-6.3107,-6.3185,-6.3205,-6.3205,-6.3205,-6.3146,-6.3166,-6.3185,-6.2971,-6.2562,-6.2406,-6.2231,-6.1607,-6.1588,-6.1597,-6.1578,-6.1595,-6.1592,-6.1634,-6.1673,-6.1685,-6.1715,-6.1715,-6.1701,-6.1705,-6.1705,-6.1704,-6.1711,-6.1698,-6.1698,-6.1698,-6.1699,-6.1699,-6.254,-6.254,-6.254,-6.2872,-6.3379,-6.3418,-6.375,-6.4277,-6.4297,-6.4297,-6.4297,-6.4297,-6.4297,-6.4297,-6.4297,-6.3711,-6.2618,-6.254,-6.252,-6.254,-6.254,-6.254,-6.254,-6.254,-6.254,-6.2618,-6.3106,-6.375,-6.4277,-6.4589,-6.4726,-6.4707,-6.497,-6.5427,-6.5944,-6.6015,-6.6335,-6.68,-6.6868,-6.6817,-6.6805,-6.6798,-6.681,-6.6654,-6.5634,-6.501,-6.5035,-6.5012,-6.4985,-6.4993,-6.5015,-6.4889,-6.4636,-6.4559,-6.4393,-6.414,-6.4082,-6.4082,-6.4082,-6.4082,-6.4082,-6.4082,-6.4082,-6.4082,-6.4082,-6.4082,-6.4082,-6.4082,-6.4082,-6.4082,-6.4062,-6.3848,-6.3595,-6.3419,-6.3789,-6.4082,-6.4082,-6.4062,-6.4043,-6.4004,-6.3965,-6.4043,-6.4101,-6.4062,-6.4043,-6.4082,-6.4082,-6.4082,-6.4082,-6.4082,-6.3965,-6.3419,-6.3302,-6.3088,-6.2776,-6.2718,-6.2036,-6.1889,-6.1714,-6.1681,-6.1607,-6.1641,-6.1679,-6.1691,-6.1715,-6.1715,-6.1701,-6.1701,-6.1709,-6.1701,-6.1704,-6.1707,-6.1704,-6.1704,-6.1709,-6.4219,-6.416,-6.4277,-6.4199,-6.4297,-6.4297,-6.4336,-6.4492,-6.4472,-6.4589,-6.4648,-6.4453,-6.4589,-6.4453,-6.4609,-6.4375,-6.4316,-6.4316,-6.4179,-6.4062,-6.4082,-6.4082,-6.4062,-6.4023,-6.4101,-6.4179,-6.4277,-6.4336,-6.455,-6.5253,-6.5604,-6.5746,-6.6325,-6.6615,-6.6875,-6.6764,-6.68,-6.6829,-6.6798,-6.6805,-6.6811,-6.6791,-6.6803,-6.6775,-6.6592,-6.6514,-6.6639,-6.6585,-6.6478,-6.6546,-6.6547,-6.6244,-6.5523,-6.5407,-6.5056,-6.4471,-6.4238,-6.4199,-6.4218,-6.4296,-6.4393,-6.4393,-6.4238,-6.4393,-6.4471,-6.4374,-6.4374,-6.4413,-6.4374,-6.4276,-6.4432,-6.49,-6.4958,-6.4296,-6.4315,-6.4413,-6.4315,-6.4199,-6.416,-6.4296,-6.4393,-6.4199,-6.4179,-6.4413,-6.4491,-6.4471,-6.4432,-6.4471,-6.453,-6.4549,-6.4257,-6.4121,-6.4101,-6.3965,-6.3984,-6.3965,-6.2991,-6.2231,-6.1997,-6.184,-6.1651,-6.1607,-6.1648,-6.1679,-6.1715,-6.1715,-6.1701,-6.1701,-6.1701,-6.1709,-6.1705,-6.1705,-6.1709,-6.1709,-6.1705,-6.4297,-6.4297,-6.4297,-6.4667,-6.5155,-6.5194,-6.5487,-6.5995,-6.6014,-6.6014,-6.6034,-6.6014,-6.6014,-6.6014,-6.6014,-6.5995,-6.6014,-6.5995,-6.5429,-6.4492,-6.4336,-6.4355,-6.4355,-6.4336,-6.4628,-6.5097,-6.5194,-6.5487,-6.5956,-6.6268,-6.6444,-6.6566,-6.6746,-6.689,-6.6898,-6.6902,-6.6868,-6.6817,-6.6811,-6.6778,-6.6736,-6.6748,-6.6731,-6.6732,-6.6712,-6.6712,-6.6712,-6.6722,-6.6712,-6.6702,-6.6712,-6.6576,-6.6342,-6.6283,-6.6186,-6.5952,-6.5894,-6.5894,-6.5894,-6.5855,-6.5816,-6.5874,-6.5855,-6.5894,-6.5894,-6.5835,-6.5835,-6.5855,-6.5894,-6.5894,-6.5952,-6.6108,-6.5874,-6.5075,-6.5523,-6.5796,-6.5757,-6.5816,-6.5894,-6.5894,-6.5894,-6.5894,-6.5874,-6.5835,-6.5738,-6.5757,-6.5777,-6.5777,-6.5835,-6.5699,-6.5562,-6.5173,-6.5056,-6.4822,-6.4686,-6.4588,-6.4043,-6.3244,-6.2835,-6.2426,-6.2121,-6.1775,-6.1771,-6.166,-6.1691,-6.1715,-6.1701,-6.1701,-6.1701,-6.1701,-6.1701,-6.1701,-6.1701,-6.1701,-6.1701,-6.5234,-6.5234,-6.5214,-6.5526,-6.6034,-6.6053,-6.6327,-6.6776,-6.6795,-6.6795,-6.6795,-6.6795,-6.6795,-6.6795,-6.6795,-6.6795,-6.6795,-6.6795,-6.6229,-6.5351,-6.5214,-6.5214,-6.5234,-6.5234,-6.5468,-6.5936,-6.6034,-6.6307,-6.6776,-6.6815,-6.6839,-6.6887,-6.6895,-6.6893,-6.6891,-6.6893,-6.6837,-6.6805,-6.6778,-6.6736,-6.6711,-6.6722,-6.6702,-6.6712,-6.6712,-6.6712,-6.6712,-6.6712,-6.6712,-6.6712,-6.6712,-6.6712,-6.6712,-6.6692,-6.6712,-6.6712,-6.6712,-6.6673,-6.6712,-6.6615,-6.6712,-6.6712,-6.6712,-6.6692,-6.6692,-6.6712,-6.6712,-6.6712,-6.6673,-6.6712,-6.6692,-6.6712,-6.6439,-6.5972,-6.6322,-6.6692,-6.6712,-6.6712,-6.6673,-6.6615,-6.6634,-6.6712,-6.6712,-6.6712,-6.6712,-6.6712,-6.6712,-6.6712,-6.6712,-6.6653,-6.6283,-6.6011,-6.5933,-6.564,-6.5251,-6.5095,-6.4978,-6.4413,-6.3848,-6.338,-6.299,-6.2481,-6.2251,-6.1829,-6.171,-6.1715,-6.1701,-6.1701,-6.1701,-6.1701,-6.1701,-6.1701,-6.1701,-6.1701,-6.1701,-6.6776,-6.6795,-6.6776,-6.6697,-6.6737,-6.6737,-6.6737,-6.6795,-6.6795,-6.6795,-6.6795,-6.6795,-6.6795,-6.6795,-6.6795,-6.6795,-6.6795,-6.6795,-6.6756,-6.6619,-6.658,-6.6541,-6.6502,-6.6502,-6.6541,-6.6678,-6.6697,-6.6756,-6.6795,-6.6815,-6.6848,-6.6901,-6.6893,-6.6893,-6.6898,-6.6848,-6.6805,-6.6805,-6.6736,-6.6711,-6.6702,-6.6702,-6.6712,-6.6712,-6.6712,-6.6712,-6.6712,-6.6712,-6.6712,-6.6712,-6.6712,-6.6712,-6.6712,-6.6712,-6.6712,-6.6712,-6.6712,-6.6712,-6.6712,-6.6712,-6.6712,-6.6712,-6.6712,-6.6712,-6.6712,-6.6712,-6.6712,-6.6712,-6.6712,-6.6712,-6.6712,-6.6712,-6.6653,-6.6692,-6.6673,-6.6712,-6.6712,-6.6712,-6.6712,-6.6712,-6.6712,-6.6712,-6.6712,-6.6712,-6.6712,-6.6712,-6.6712,-6.6712,-6.6712,-6.6712,-6.6712,-6.6595,-6.6459,-6.6322,-6.5894,-6.5874,-6.5777,-6.5484,-6.49,-6.4374,-6.3799,-6.3213,-6.2711,-6.2259,-6.1886,-6.1832,-6.1701,-6.1701,-6.1701,-6.1701,-6.1701,-6.1701,-6.1701,-6.1701,-6.1701,-6.6795,-6.6795,-6.6795,-6.6795,-6.6795,-6.6795,-6.6795,-6.6795,-6.6795,-6.6795,-6.6795,-6.6795,-6.6795,-6.6795,-6.6795,-6.6795,-6.6795,-6.6795,-6.6795,-6.6795,-6.6795,-6.6795,-6.6795,-6.6795,-6.6795,-6.6795,-6.6795,-6.6795,-6.6795,-6.6834,-6.6867,-6.6904,-6.6892,-6.6891,-6.6878,-6.6817,-6.6798,-6.6791,-6.6728,-6.6722,-6.6702,-6.6712,-6.6712,-6.6712,-6.6712,-6.6712,-6.6712,-6.6712,-6.6712,-6.6712,-6.6712,-6.6712,-6.6712,-6.6712,-6.6712,-6.6712,-6.6712,-6.6712,-6.6712,-6.6712,-6.6712,-6.6712,-6.6712,-6.6712,-6.6712,-6.6712,-6.6712,-6.6712,-6.6712,-6.6712,-6.6712,-6.6712,-6.6712,-6.6712,-6.6712,-6.6712,-6.6712,-6.6712,-6.6712,-6.6712,-6.6712,-6.6712,-6.6712,-6.6712,-6.6712,-6.6712,-6.6712,-6.6712,-6.6712,-6.6712,-6.6712,-6.6712,-6.6634,-6.6673,-6.6634,-6.6634,-6.6556,-6.642,-6.5952,-6.5387,-6.4685,-6.3923,-6.3421,-6.2922,-6.2563,-6.2418,-6.1969,-6.1701,-6.1701,-6.1701,-6.1701,-6.1701,-6.1701,-6.1701,-6.1701,-6.6795,-6.6795,-6.6795,-6.6795,-6.6795,-6.6795,-6.6795,-6.6795,-6.6795,-6.6795,-6.6795,-6.6795,-6.6795,-6.6795,-6.6795,-6.6795,-6.6795,-6.6795,-6.6795,-6.6795,-6.6795,-6.6795,-6.6795,-6.6795,-6.6795,-6.6795,-6.6795,-6.6795,-6.6795,-6.6854,-6.6887,-6.6906,-6.6889,-6.6907,-6.6893,-6.6831,-6.681,-6.6783,-6.6731,-6.6702,-6.6712,-6.6712,-6.6712,-6.6712,-6.6712,-6.6712,-6.6712,-6.6712,-6.6712,-6.6712,-6.6712,-6.6712,-6.6712,-6.6712,-6.6712,-6.6712,-6.6712,-6.6712,-6.6712,-6.6712,-6.6712,-6.6712,-6.6712,-6.6712,-6.6712,-6.6712,-6.6712,-6.6712,-6.6712,-6.6712,-6.6712,-6.6712,-6.6712,-6.6712,-6.6712,-6.6712,-6.6712,-6.6712,-6.6712,-6.6712,-6.6712,-6.6712,-6.6712,-6.6712,-6.6712,-6.6712,-6.6712,-6.6712,-6.6712,-6.6712,-6.6712,-6.6712,-6.6712,-6.6712,-6.6712,-6.6712,-6.6712,-6.6653,-6.6537,-6.6069,-6.5455,-6.4664,-6.4232,-6.3767,-6.3318,-6.2862,-6.2398,-6.1949,-6.1701,-6.1701,-6.1701,-6.1701,-6.1701,-6.1701,-6.1701,-6.6795,-6.6795,-6.6795,-6.6795,-6.6795,-6.6795,-6.6795,-6.6795,-6.6795,-6.6795,-6.6795,-6.6795,-6.6795,-6.6795,-6.6795,-6.6795,-6.6795,-6.6795,-6.6795,-6.6795,-6.6795,-6.6795,-6.6795,-6.6795,-6.6795,-6.6795,-6.6795,-6.6795,-6.6815,-6.6873,-6.6907,-6.6887,-6.6893,-6.6895,-6.6893,-6.6844,-6.6803,-6.6775,-6.6741,-6.6712,-6.6712,-6.6712,-6.6712,-6.6712,-6.6712,-6.6712,-6.6712,-6.6712,-6.6712,-6.6712,-6.6712,-6.6712,-6.6712,-6.6712,-6.6712,-6.6712,-6.6712,-6.6712,-6.6712,-6.6712,-6.6712,-6.6712,-6.6712,-6.6712,-6.6712,-6.6712,-6.6712,-6.6712,-6.6712,-6.6712,-6.6712,-6.6712,-6.6712,-6.6712,-6.6712,-6.6712,-6.6712,-6.6712,-6.6712,-6.6712,-6.6712,-6.6712,-6.6712,-6.6712,-6.6712,-6.6712,-6.6712,-6.6712,-6.6712,-6.6712,-6.6712,-6.6712,-6.6712,-6.6712,-6.6712,-6.6712,-6.6712,-6.6692,-6.6692,-6.64,-6.603,-6.5445,-6.5082,-6.4669,-6.4262,-6.3617,-6.2881,-6.2457,-6.2027,-6.1701,-6.1701,-6.1701,-6.1701,-6.1701,-6.1701,-6.6795,-6.6795,-6.6795,-6.6795,-6.6795,-6.6795,-6.6795,-6.6795,-6.6795,-6.6795,-6.6795,-6.6795,-6.6795,-6.6795,-6.6795,-6.6795,-6.6795,-6.6795,-6.6795,-6.6795,-6.6795,-6.6795,-6.6795,-6.6795,-6.6795,-6.6795,-6.6795,-6.6795,-6.6815,-6.6859,-6.6907,-6.6906,-6.6894,-6.6895,-6.6893,-6.6844,-6.6803,-6.6795,-6.6741,-6.6712,-6.6712,-6.6712,-6.6712,-6.6712,-6.6712,-6.6712,-6.6712,-6.6712,-6.6712,-6.6712,-6.6712,-6.6712,-6.6712,-6.6712,-6.6712,-6.6712,-6.6712,-6.6712,-6.6712,-6.6712,-6.6712,-6.6712,-6.6712,-6.6712,-6.6712,-6.6712,-6.6712,-6.6712,-6.6712,-6.6712,-6.6712,-6.6712,-6.6712,-6.6712,-6.6712,-6.6712,-6.6712,-6.6712,-6.6712,-6.6712,-6.6712,-6.6712,-6.6712,-6.6712,-6.6712,-6.6712,-6.6712,-6.6712,-6.6712,-6.6712,-6.6712,-6.6712,-6.6712,-6.6712,-6.6712,-6.6712,-6.6712,-6.6712,-6.6712,-6.6692,-6.6342,-6.6176,-6.5786,-6.55,-6.523,-6.4444,-6.3461,-6.2925,-6.2496,-6.2106,-6.1701,-6.1701,-6.1701,-6.1701,-6.1701,-6.6795,-6.6795,-6.6795,-6.6795,-6.6795,-6.6795,-6.6795,-6.6795,-6.6795,-6.6795,-6.6795,-6.6795,-6.6795,-6.6795,-6.6795,-6.6795,-6.6795,-6.6795,-6.6795,-6.6795,-6.6795,-6.6795,-6.6795,-6.6795,-6.6795,-6.6795,-6.6795,-6.6795,-6.6815,-6.6878,-6.6907,-6.6904,-6.6893,-6.6898,-6.6893,-6.6844,-6.6803,-6.6795,-6.6741,-6.6712,-6.6712,-6.6712,-6.6712,-6.6712,-6.6712,-6.6712,-6.6712,-6.6712,-6.6712,-6.6712,-6.6712,-6.6712,-6.6712,-6.6712,-6.6712,-6.6712,-6.6712,-6.6712,-6.6712,-6.6712,-6.6712,-6.6712,-6.6712,-6.6712,-6.6712,-6.6712,-6.6712,-6.6712,-6.6712,-6.6712,-6.6712,-6.6712,-6.6712,-6.6712,-6.6712,-6.6712,-6.6712,-6.6712,-6.6712,-6.6712,-6.6712,-6.6712,-6.6712,-6.6712,-6.6712,-6.6712,-6.6712,-6.6712,-6.6712,-6.6712,-6.6712,-6.6712,-6.6712,-6.6712,-6.6712,-6.6712,-6.6712,-6.6712,-6.6712,-6.6712,-6.6576,-6.6527,-6.6498,-6.6154,-6.5742,-6.4899,-6.4015,-6.35,-6.2789,-6.2086,-6.1701,-6.1701,-6.1701,-6.1701,-6.1701,-6.6795,-6.6795,-6.6795,-6.6795,-6.6795,-6.6795,-6.6795,-6.6795,-6.6795,-6.6795,-6.6795,-6.6795,-6.6795,-6.6795,-6.6795,-6.6795,-6.6795,-6.6795,-6.6795,-6.6795,-6.6795,-6.6795,-6.6795,-6.6795,-6.6795,-6.6795,-6.6795,-6.6795,-6.6815,-6.6878,-6.6887,-6.6906,-6.6893,-6.6898,-6.6873,-6.6844,-6.6803,-6.6795,-6.6741,-6.6712,-6.6712,-6.6712,-6.6712,-6.6712,-6.6712,-6.6712,-6.6712,-6.6712,-6.6712,-6.6712,-6.6712,-6.6712,-6.6712,-6.6712,-6.6712,-6.6712,-6.6712,-6.6712,-6.6712,-6.6712,-6.6712,-6.6712,-6.6712,-6.6712,-6.6712,-6.6712,-6.6712,-6.6712,-6.6712,-6.6712,-6.6712,-6.6712,-6.6712,-6.6712,-6.6712,-6.6712,-6.6712,-6.6712,-6.6712,-6.6712,-6.6712,-6.6712,-6.6712,-6.6712,-6.6712,-6.6712,-6.6712,-6.6712,-6.6712,-6.6712,-6.6712,-6.6712,-6.6712,-6.6712,-6.6712,-6.6712,-6.6712,-6.6712,-6.6712,-6.6712,-6.6712,-6.6673,-6.6625,-6.6537,-6.6057,-6.5254,-6.4496,-6.3826,-6.3051,-6.2125,-6.1701,-6.1701,-6.1701,-6.1701,-6.1701,-6.6795,-6.6795,-6.6795,-6.6795,-6.6795,-6.6795,-6.6795,-6.6795,-6.6795,-6.6795,-6.6795,-6.6795,-6.6795,-6.6795,-6.6795,-6.6795,-6.6795,-6.6795,-6.6795,-6.6795,-6.6795,-6.6795,-6.6795,-6.6795,-6.6795,-6.6795,-6.6795,-6.6795,-6.6815,-6.6878,-6.6887,-6.6906,-6.6893,-6.6895,-6.6873,-6.6824,-6.6803,-6.6795,-6.6741,-6.6712,-6.6712,-6.6712,-6.6712,-6.6712,-6.6712,-6.6712,-6.6712,-6.6712,-6.6712,-6.6712,-6.6712,-6.6712,-6.6712,-6.6712,-6.6712,-6.6712,-6.6712,-6.6712,-6.6712,-6.6712,-6.6712,-6.6712,-6.6712,-6.6712,-6.6712,-6.6712,-6.6712,-6.6712,-6.6712,-6.6712,-6.6712,-6.6712,-6.6712,-6.6712,-6.6712,-6.6712,-6.6712,-6.6712,-6.6712,-6.6712,-6.6712,-6.6712,-6.6712,-6.6712,-6.6712,-6.6712,-6.6712,-6.6712,-6.6712,-6.6712,-6.6712,-6.6712,-6.6712,-6.6712,-6.6712,-6.6712,-6.6712,-6.6712,-6.6712,-6.6712,-6.6712,-6.6712,-6.6653,-6.6586,-6.6351,-6.5726,-6.4989,-6.4164,-6.3149,-6.2106,-6.1871,-6.172,-6.1701,-6.1701,-6.1701,-6.6795,-6.6795,-6.6795,-6.6795,-6.6795,-6.6795,-6.6795,-6.6795,-6.6795,-6.6795,-6.6795,-6.6795,-6.6795,-6.6795,-6.6795,-6.6795,-6.6795,-6.6795,-6.6795,-6.6795,-6.6795,-6.6795,-6.6795,-6.6795,-6.6795,-6.6795,-6.6795,-6.6795,-6.6815,-6.6854,-6.6887,-6.6906,-6.6893,-6.6895,-6.6873,-6.6844,-6.6803,-6.6787,-6.6732,-6.6712,-6.6712,-6.6712,-6.6712,-6.6712,-6.6712,-6.6712,-6.6712,-6.6712,-6.6712,-6.6712,-6.6712,-6.6712,-6.6712,-6.6712,-6.6712,-6.6712,-6.6712,-6.6712,-6.6712,-6.6712,-6.6712,-6.6712,-6.6712,-6.6712,-6.6712,-6.6712,-6.6712,-6.6712,-6.6712,-6.6712,-6.6712,-6.6712,-6.6712,-6.6712,-6.6712,-6.6712,-6.6712,-6.6712,-6.6712,-6.6712,-6.6712,-6.6712,-6.6712,-6.6712,-6.6712,-6.6712,-6.6712,-6.6712,-6.6712,-6.6712,-6.6712,-6.6712,-6.6712,-6.6712,-6.6712,-6.6712,-6.6712,-6.6712,-6.6712,-6.6712,-6.6712,-6.6712,-6.6712,-6.6673,-6.6361,-6.5931,-6.5032,-6.404,-6.3065,-6.2159,-6.191,-6.1701,-6.1701,-6.1701,-6.1701,-6.6795,-6.6795,-6.6795,-6.6795,-6.6795,-6.6795,-6.6795,-6.6795,-6.6795,-6.6795,-6.6795,-6.6795,-6.6795,-6.6795,-6.6795,-6.6795,-6.6795,-6.6795,-6.6795,-6.6795,-6.6795,-6.6795,-6.6795,-6.6795,-6.6795,-6.6795,-6.6795,-6.6795,-6.6795,-6.6854,-6.6887,-6.6906,-6.6894,-6.6898,-6.6873,-6.6831,-6.681,-6.6778,-6.6732,-6.6722,-6.6712,-6.6712,-6.6712,-6.6712,-6.6712,-6.6712,-6.6712,-6.6712,-6.6712,-6.6712,-6.6712,-6.6712,-6.6712,-6.6712,-6.6712,-6.6712,-6.6712,-6.6712,-6.6712,-6.6712,-6.6712,-6.6712,-6.6712,-6.6712,-6.6712,-6.6712,-6.6712,-6.6712,-6.6712,-6.6712,-6.6712,-6.6712,-6.6712,-6.6712,-6.6712,-6.6712,-6.6712,-6.6712,-6.6712,-6.6712,-6.6712,-6.6712,-6.6712,-6.6712,-6.6712,-6.6712,-6.6712,-6.6712,-6.6712,-6.6712,-6.6712,-6.6712,-6.6712,-6.6712,-6.6712,-6.6712,-6.6712,-6.6712,-6.6712,-6.6712,-6.6712,-6.6712,-6.6634,-6.6439,-6.6254,-6.5756,-6.4837,-6.3916,-6.2961,-6.2212,-6.1891,-6.1701,-6.1701,-6.1701,-6.1701,-6.6795,-6.6795,-6.6795,-6.6795,-6.6795,-6.6795,-6.6795,-6.6795,-6.6795,-6.6795,-6.6795,-6.6795,-6.6795,-6.6795,-6.6795,-6.6795,-6.6795,-6.6795,-6.6795,-6.6795,-6.6795,-6.6795,-6.6795,-6.6795,-6.6795,-6.6795,-6.6795,-6.6795,-6.6815,-6.6854,-6.6907,-6.6904,-6.6894,-6.6889,-6.6898,-6.6848,-6.6811,-6.6767,-6.6731,-6.6712,-6.6712,-6.6712,-6.6712,-6.6712,-6.6712,-6.6712,-6.6712,-6.6712,-6.6712,-6.6712,-6.6712,-6.6712,-6.6712,-6.6712,-6.6712,-6.6712,-6.6712,-6.6712,-6.6712,-6.6712,-6.6712,-6.6712,-6.6712,-6.6712,-6.6712,-6.6712,-6.6712,-6.6712,-6.6712,-6.6712,-6.6712,-6.6712,-6.6712,-6.6712,-6.6712,-6.6712,-6.6712,-6.6712,-6.6712,-6.6712,-6.6712,-6.6712,-6.6712,-6.6712,-6.6712,-6.6712,-6.6712,-6.6712,-6.6712,-6.6712,-6.6712,-6.6712,-6.6712,-6.6712,-6.6712,-6.6712,-6.6712,-6.6712,-6.6712,-6.6712,-6.6653,-6.6556,-6.6166,-6.5981,-6.5796,-6.5307,-6.4338,-6.3462,-6.2727,-6.2212,-6.1813,-6.1701,-6.1701,-6.1701,-6.1701,-6.6795,-6.6795,-6.6795,-6.6795,-6.6795,-6.6795,-6.6795,-6.6795,-6.6795,-6.6795,-6.6795,-6.6795,-6.6795,-6.6795,-6.6795,-6.6795,-6.6795,-6.6795,-6.6795,-6.6795,-6.6795,-6.6795,-6.6795,-6.6795,-6.6795,-6.6795,-6.6795,-6.6795,-6.6815,-6.6839,-6.6848,-6.6904,-6.6894,-6.689,-6.6878,-6.6834,-6.6809,-6.6785,-6.6736,-6.6722,-6.6722,-6.6712,-6.6712,-6.6712,-6.6712,-6.6712,-6.6712,-6.6712,-6.6712,-6.6712,-6.6712,-6.6712,-6.6712,-6.6712,-6.6712,-6.6712,-6.6712,-6.6712,-6.6712,-6.6712,-6.6712,-6.6712,-6.6712,-6.6712,-6.6712,-6.6712,-6.6712,-6.6712,-6.6712,-6.6712,-6.6712,-6.6712,-6.6712,-6.6712,-6.6712,-6.6712,-6.6712,-6.6712,-6.6712,-6.6712,-6.6712,-6.6712,-6.6712,-6.6712,-6.6712,-6.6712,-6.6712,-6.6712,-6.6712,-6.6712,-6.6712,-6.6712,-6.6712,-6.6712,-6.6712,-6.6712,-6.6712,-6.6712,-6.6712,-6.6673,-6.6537,-6.6342,-6.5845,-6.5153,-6.4597,-6.4115,-6.3572,-6.3176,-6.2596,-6.2139,-6.172,-6.1701,-6.1701,-6.1701,-6.1701,-6.6795,-6.6795,-6.6795,-6.6795,-6.6795,-6.6795,-6.6795,-6.6795,-6.6795,-6.6795,-6.6795,-6.6795,-6.6795,-6.6795,-6.6795,-6.6795,-6.6795,-6.6795,-6.6795,-6.6795,-6.6795,-6.6795,-6.6795,-6.6795,-6.6795,-6.6795,-6.6795,-6.6795,-6.6795,-6.682,-6.6844,-6.6898,-6.6893,-6.689,-6.6867,-6.6854,-6.6829,-6.6804,-6.6756,-6.6741,-6.6732,-6.6722,-6.6722,-6.6712,-6.6712,-6.6712,-6.6712,-6.6712,-6.6712,-6.6712,-6.6712,-6.6712,-6.6712,-6.6712,-6.6712,-6.6712,-6.6712,-6.6712,-6.6712,-6.6712,-6.6712,-6.6712,-6.6712,-6.6712,-6.6712,-6.6712,-6.6712,-6.6712,-6.6712,-6.6712,-6.6712,-6.6712,-6.6712,-6.6712,-6.6712,-6.6712,-6.6712,-6.6712,-6.6712,-6.6712,-6.6712,-6.6712,-6.6712,-6.6722,-6.6722,-6.6712,-6.6712,-6.6712,-6.6722,-6.6722,-6.6732,-6.6741,-6.6741,-6.6741,-6.6741,-6.6732,-6.6732,-6.6683,-6.6683,-6.6478,-6.6244,-6.5844,-6.5346,-6.4547,-6.3678,-6.3168,-6.2805,-6.2675,-6.2524,-6.2061,-6.1701,-6.1701,-6.1701,-6.1701,-6.1701,-6.6795,-6.6795,-6.6795,-6.6795,-6.6795,-6.6795,-6.6795,-6.6795,-6.6795,-6.6795,-6.6795,-6.6795,-6.6795,-6.6795,-6.6795,-6.6795,-6.6795,-6.6795,-6.6795,-6.6795,-6.6795,-6.6795,-6.6795,-6.6795,-6.6795,-6.6795,-6.6795,-6.6795,-6.6795,-6.6795,-6.6859,-6.6902,-6.689,-6.689,-6.6891,-6.6878,-6.6829,-6.6817,-6.6795,-6.6778,-6.6778,-6.6741,-6.6712,-6.6722,-6.6702,-6.6712,-6.6712,-6.6712,-6.6712,-6.6712,-6.6712,-6.6712,-6.6712,-6.6712,-6.6712,-6.6712,-6.6712,-6.6712,-6.6712,-6.6712,-6.6712,-6.6712,-6.6712,-6.6712,-6.6712,-6.6712,-6.6712,-6.6712,-6.6712,-6.6712,-6.6712,-6.6712,-6.6712,-6.6712,-6.6712,-6.6712,-6.6712,-6.6712,-6.6712,-6.6712,-6.6712,-6.6722,-6.6732,-6.6722,-6.6712,-6.6702,-6.6732,-6.6741,-6.675,-6.6759,-6.6787,-6.6795,-6.6795,-6.6795,-6.6795,-6.6787,-6.6759,-6.6642,-6.6544,-6.6174,-6.5773,-6.5285,-6.4544,-6.3909,-6.3038,-6.2525,-6.2128,-6.2134,-6.2081,-6.1852,-6.1701,-6.1701,-6.1701,-6.1701,-6.1701,-6.6795,-6.6795,-6.6795,-6.6795,-6.6795,-6.6795,-6.6795,-6.6795,-6.6795,-6.6795,-6.6795,-6.6795,-6.6795,-6.6795,-6.6795,-6.6795,-6.6795,-6.6795,-6.6795,-6.6795,-6.6795,-6.6795,-6.6795,-6.6795,-6.6795,-6.6795,-6.6795,-6.6795,-6.6795,-6.6795,-6.6795,-6.6828,-6.6869,-6.6894,-6.6889,-6.6891,-6.6854,-6.6829,-6.6805,-6.6798,-6.6795,-6.6803,-6.6767,-6.6767,-6.6711,-6.6722,-6.6722,-6.6722,-6.6712,-6.6712,-6.6712,-6.6712,-6.6712,-6.6712,-6.6712,-6.6712,-6.6712,-6.6712,-6.6712,-6.6712,-6.6712,-6.6712,-6.6712,-6.6712,-6.6712,-6.6712,-6.6712,-6.6712,-6.6712,-6.6712,-6.6712,-6.6712,-6.6712,-6.6712,-6.6712,-6.6712,-6.6712,-6.6712,-6.6722,-6.6722,-6.6712,-6.6722,-6.6731,-6.6739,-6.6731,-6.6722,-6.675,-6.6778,-6.6767,-6.6783,-6.6791,-6.681,-6.6817,-6.681,-6.681,-6.681,-6.6803,-6.6588,-6.6354,-6.5796,-6.5172,-6.4111,-6.3409,-6.287,-6.2551,-6.2148,-6.188,-6.1769,-6.1715,-6.1715,-6.1701,-6.1701,-6.1701,-6.1701,-6.1705,-6.6795,-6.6795,-6.6795,-6.6795,-6.6795,-6.6795,-6.6795,-6.6795,-6.6795,-6.6795,-6.6795,-6.6795,-6.6795,-6.6795,-6.6795,-6.6795,-6.6795,-6.6795,-6.6795,-6.6795,-6.6795,-6.6795,-6.6795,-6.6795,-6.6795,-6.6795,-6.6795,-6.6795,-6.6795,-6.6795,-6.6795,-6.6809,-6.6842,-6.6872,-6.6894,-6.6887,-6.6871,-6.6848,-6.6834,-6.6829,-6.6844,-6.6811,-6.6811,-6.6798,-6.6756,-6.675,-6.6731,-6.6741,-6.6712,-6.6712,-6.6702,-6.6722,-6.6712,-6.6712,-6.6712,-6.6712,-6.6712,-6.6712,-6.6712,-6.6712,-6.6712,-6.6712,-6.6712,-6.6712,-6.6712,-6.6712,-6.6712,-6.6712,-6.6712,-6.6712,-6.6712,-6.6712,-6.6712,-6.6712,-6.6712,-6.6712,-6.6702,-6.6712,-6.6732,-6.6741,-6.6731,-6.6739,-6.6748,-6.6775,-6.6756,-6.6756,-6.6783,-6.6783,-6.6791,-6.6798,-6.6811,-6.6811,-6.6811,-6.6805,-6.6805,-6.6805,-6.6714,-6.6167,-6.5855,-6.5224,-6.4483,-6.3423,-6.2662,-6.2343,-6.2056,-6.1788,-6.1715,-6.1715,-6.1715,-6.1701,-6.1701,-6.1701,-6.1709,-6.1713,-6.1717,-6.6795,-6.6795,-6.6795,-6.6795,-6.6795,-6.6795,-6.6795,-6.6795,-6.6795,-6.6795,-6.6795,-6.6795,-6.6795,-6.6795,-6.6795,-6.6795,-6.6795,-6.6795,-6.6795,-6.6795,-6.6795,-6.6795,-6.6795,-6.6795,-6.6795,-6.6795,-6.6795,-6.6795,-6.6795,-6.6795,-6.6795,-6.6795,-6.6809,-6.6842,-6.6894,-6.6894,-6.6893,-6.6904,-6.6887,-6.6902,-6.6893,-6.6854,-6.6834,-6.6823,-6.6798,-6.6775,-6.6775,-6.6767,-6.6759,-6.6739,-6.6711,-6.6722,-6.6702,-6.6702,-6.6722,-6.6722,-6.6712,-6.6712,-6.6712,-6.6712,-6.6712,-6.6712,-6.6712,-6.6712,-6.6712,-6.6712,-6.6712,-6.6712,-6.6712,-6.6712,-6.6712,-6.6712,-6.6722,-6.6722,-6.6722,-6.6732,-6.6741,-6.6731,-6.6759,-6.6759,-6.6795,-6.6803,-6.6791,-6.6798,-6.6798,-6.6798,-6.6805,-6.6811,-6.6811,-6.6798,-6.6804,-6.6804,-6.6804,-6.6804,-6.6804,-6.6809,-6.66,-6.5995,-6.5346,-6.4716,-6.3974,-6.3076,-6.2413,-6.1949,-6.1798,-6.1729,-6.1705,-6.1701,-6.1713,-6.1701,-6.1705,-6.1701,-6.1713,-6.1707,-6.1715,-6.6795,-6.6795,-6.6795,-6.6795,-6.6795,-6.6795,-6.6795,-6.6795,-6.6795,-6.6795,-6.6795,-6.6795,-6.6795,-6.6795,-6.6795,-6.6795,-6.6795,-6.6795,-6.6795,-6.6795,-6.6795,-6.6795,-6.6795,-6.6795,-6.6795,-6.6795,-6.6795,-6.6795,-6.6795,-6.6795,-6.6795,-6.6795,-6.68,-6.6832,-6.6869,-6.6893,-6.6894,-6.6893,-6.689,-6.6887,-6.6898,-6.6875,-6.6871,-6.6878,-6.6823,-6.6811,-6.6811,-6.6817,-6.6791,-6.6771,-6.6744,-6.6748,-6.6759,-6.6759,-6.6759,-6.6759,-6.677,-6.6761,-6.677,-6.6778,-6.6731,-6.6732,-6.6712,-6.6712,-6.6712,-6.6712,-6.6712,-6.6712,-6.6712,-6.6712,-6.6722,-6.675,-6.6778,-6.6787,-6.6787,-6.6787,-6.6795,-6.6775,-6.6775,-6.6783,-6.681,-6.6805,-6.6798,-6.6817,-6.6837,-6.6823,-6.6823,-6.6804,-6.6809,-6.6809,-6.6809,-6.6815,-6.6815,-6.6815,-6.6795,-6.6663,-6.6253,-6.5609,-6.4921,-6.4219,-6.3438,-6.2623,-6.2232,-6.1787,-6.1737,-6.1701,-6.1704,-6.1709,-6.1713,-6.1713,-6.1709,-6.1707,-6.1713,-6.1699,-6.1711,-6.6795,-6.6795,-6.6795,-6.6795,-6.6795,-6.6795,-6.6795,-6.6795,-6.6795,-6.6795,-6.6795,-6.6795,-6.6795,-6.6795,-6.6795,-6.6795,-6.6795,-6.6795,-6.6795,-6.6795,-6.6795,-6.6795,-6.6795,-6.6795,-6.6795,-6.6795,-6.6795,-6.6795,-6.6795,-6.6795,-6.6795,-6.6795,-6.6795,-6.6805,-6.6859,-6.6884,-6.689,-6.6892,-6.6894,-6.6894,-6.6892,-6.6889,-6.6887,-6.6898,-6.6867,-6.6834,-6.6829,-6.6843,-6.6837,-6.6811,-6.6805,-6.6798,-6.681,-6.6803,-6.6803,-6.6803,-6.6803,-6.6803,-6.6817,-6.681,-6.6775,-6.675,-6.6722,-6.6741,-6.6741,-6.6741,-6.6741,-6.6731,-6.6731,-6.6739,-6.6739,-6.6803,-6.6803,-6.6803,-6.6803,-6.6803,-6.6791,-6.6791,-6.6778,-6.6805,-6.6811,-6.6804,-6.6815,-6.6834,-6.6848,-6.6834,-6.6844,-6.6824,-6.6824,-6.682,-6.682,-6.682,-6.682,-6.68,-6.6648,-6.6379,-6.5911,-6.5247,-6.4466,-6.3689,-6.2888,-6.2094,-6.1857,-6.1701,-6.1711,-6.1716,-6.1698,-6.1699,-6.1698,-6.1698,-6.1698,-6.1698,-6.1717,-6.1709,-6.1709,-6.6795,-6.6795,-6.6795,-6.6795,-6.6795,-6.6795,-6.6795,-6.6795,-6.6795,-6.6795,-6.6795,-6.6795,-6.6795,-6.6795,-6.6795,-6.6795,-6.6795,-6.6795,-6.6795,-6.6795,-6.6795,-6.6795,-6.6795,-6.6795,-6.6795,-6.6795,-6.6795,-6.6795,-6.6795,-6.6795,-6.6795,-6.6795,-6.6795,-6.68,-6.6844,-6.6867,-6.6875,-6.6881,-6.6904,-6.6889,-6.6893,-6.6894,-6.6894,-6.6893,-6.6884,-6.6871,-6.6887,-6.6883,-6.6863,-6.6839,-6.6815,-6.6798,-6.6798,-6.6803,-6.6803,-6.681,-6.6817,-6.6811,-6.6823,-6.6817,-6.6824,-6.6791,-6.6783,-6.6803,-6.6795,-6.6787,-6.6787,-6.6787,-6.6775,-6.6795,-6.6803,-6.683,-6.683,-6.681,-6.681,-6.6798,-6.6811,-6.6798,-6.6798,-6.6809,-6.6834,-6.6839,-6.6863,-6.6883,-6.6871,-6.6878,-6.6862,-6.6865,-6.6862,-6.6867,-6.6867,-6.6867,-6.6848,-6.6805,-6.6559,-6.61,-6.5266,-6.4506,-6.3842,-6.3061,-6.2281,-6.1814,-6.1757,-6.1699,-6.1699,-6.1717,-6.1711,-6.1704,-6.1681,-6.1681,-6.1678,-6.1701,-6.1701,-6.1713,-6.171,-6.6795,-6.6795,-6.6795,-6.6795,-6.6795,-6.6795,-6.6795,-6.6795,-6.6795,-6.6795,-6.6795,-6.6795,-6.6795,-6.6795,-6.6795,-6.6795,-6.6795,-6.6795,-6.6795,-6.6795,-6.6795,-6.6795,-6.6795,-6.6795,-6.6795,-6.6795,-6.6795,-6.6795,-6.6795,-6.6795,-6.6795,-6.6795,-6.6795,-6.6795,-6.6815,-6.6834,-6.6844,-6.6844,-6.6887,-6.6891,-6.6898,-6.6906,-6.6889,-6.6893,-6.6894,-6.6892,-6.689,-6.689,-6.6889,-6.6878,-6.6863,-6.6868,-6.6868,-6.6862,-6.6882,-6.6882,-6.6868,-6.6868,-6.6873,-6.6868,-6.6868,-6.6848,-6.6862,-6.6824,-6.681,-6.6803,-6.6803,-6.681,-6.6817,-6.6824,-6.6811,-6.6837,-6.6843,-6.6848,-6.6829,-6.6834,-6.6839,-6.682,-6.6824,-6.6828,-6.6852,-6.6862,-6.6901,-6.6901,-6.6887,-6.689,-6.6893,-6.6894,-6.6894,-6.6889,-6.6904,-6.6904,-6.6633,-6.6518,-6.6129,-6.5663,-6.4668,-6.3769,-6.3144,-6.2616,-6.2087,-6.1752,-6.1709,-6.1707,-6.1684,-6.1694,-6.171,-6.1685,-6.1676,-6.1621,-6.1615,-6.164,-6.1685,-6.1685,-6.1679,-6.6795,-6.6795,-6.6795,-6.6795,-6.6795,-6.6795,-6.6795,-6.6795,-6.6795,-6.6795,-6.6795,-6.6795,-6.6795,-6.6795,-6.6795,-6.6795,-6.6795,-6.6795,-6.6795,-6.6795,-6.6795,-6.6795,-6.6795,-6.6795,-6.6795,-6.6795,-6.6795,-6.6795,-6.6795,-6.6795,-6.6795,-6.6795,-6.6795,-6.6795,-6.6815,-6.6815,-6.6815,-6.682,-6.6839,-6.6854,-6.6863,-6.6887,-6.6871,-6.6898,-6.6906,-6.689,-6.6893,-6.6893,-6.6894,-6.6892,-6.6901,-6.6895,-6.6891,-6.6887,-6.6898,-6.6898,-6.6883,-6.6895,-6.6881,-6.6891,-6.6875,-6.6859,-6.6859,-6.6836,-6.682,-6.6829,-6.6843,-6.6862,-6.6843,-6.6829,-6.6839,-6.6848,-6.6856,-6.6862,-6.6862,-6.6862,-6.6862,-6.6862,-6.6862,-6.6865,-6.6869,-6.6894,-6.6894,-6.6894,-6.6894,-6.6894,-6.689,-6.6906,-6.6889,-6.6893,-6.6894,-6.6894,-6.6465,-6.6092,-6.5622,-6.5016,-6.4074,-6.321,-6.2661,-6.215,-6.1791,-6.1709,-6.1686,-6.1676,-6.1646,-6.1654,-6.166,-6.166,-6.1648,-6.1607,-6.158,-6.1615,-6.1641,-6.1648,-6.1641,-6.6795,-6.6795,-6.6795,-6.6795,-6.6795,-6.6795,-6.6795,-6.6795,-6.6795,-6.6795,-6.6795,-6.6795,-6.6795,-6.6795,-6.6795,-6.6795,-6.6795,-6.6795,-6.6795,-6.6795,-6.6795,-6.6795,-6.6795,-6.6795,-6.6795,-6.6795,-6.6795,-6.6795,-6.6795,-6.6795,-6.6795,-6.6795,-6.6795,-6.6795,-6.6795,-6.6795,-6.6795,-6.6815,-6.6815,-6.6815,-6.6815,-6.682,-6.6834,-6.6898,-6.6902,-6.6907,-6.6898,-6.6904,-6.6887,-6.6893,-6.6894,-6.6894,-6.6892,-6.6889,-6.6901,-6.6898,-6.6904,-6.6893,-6.6894,-6.6893,-6.6873,-6.6836,-6.6797,-6.6816,-6.6835,-6.6842,-6.6856,-6.6859,-6.6862,-6.6867,-6.6871,-6.6853,-6.6855,-6.6875,-6.6875,-6.6875,-6.6875,-6.6875,-6.6875,-6.6874,-6.6893,-6.6889,-6.6906,-6.6887,-6.6862,-6.6875,-6.6887,-6.6873,-6.6785,-6.6777,-6.6625,-6.6608,-6.6215,-6.5586,-6.4735,-6.4106,-6.3384,-6.2652,-6.2164,-6.1925,-6.171,-6.166,-6.1687,-6.1648,-6.1628,-6.1602,-6.1615,-6.1615,-6.1627,-6.16,-6.1592,-6.1592,-6.16,-6.16,-6.16,-6.6795,-6.6795,-6.6795,-6.6795,-6.6795,-6.6795,-6.6795,-6.6795,-6.6795,-6.6795,-6.6795,-6.6795,-6.6795,-6.6795,-6.6795,-6.6795,-6.6795,-6.6795,-6.6795,-6.6795,-6.6795,-6.6795,-6.6795,-6.6795,-6.6795,-6.6795,-6.6795,-6.6795,-6.6795,-6.6795,-6.6795,-6.6795,-6.6795,-6.6795,-6.6795,-6.6795,-6.6795,-6.6795,-6.6795,-6.6795,-6.6795,-6.6795,-6.6815,-6.6834,-6.6839,-6.6839,-6.6848,-6.6887,-6.6887,-6.6891,-6.6904,-6.6889,-6.6892,-6.6892,-6.6894,-6.6894,-6.6894,-6.689,-6.6906,-6.6889,-6.689,-6.6887,-6.6862,-6.6856,-6.6862,-6.6836,-6.6835,-6.6855,-6.6875,-6.6873,-6.689,-6.6869,-6.6865,-6.6859,-6.6856,-6.6852,-6.6852,-6.6852,-6.6852,-6.6871,-6.6887,-6.6883,-6.6898,-6.6873,-6.6843,-6.6831,-6.6817,-6.6764,-6.6525,-6.6388,-6.5906,-6.5833,-6.5736,-6.512,-6.4151,-6.3351,-6.2694,-6.2278,-6.1849,-6.1687,-6.1615,-6.1634,-6.1627,-6.1615,-6.1595,-6.1588,-6.1592,-6.1592,-6.1584,-6.1584,-6.1576,-6.1595,-6.1586,-6.1595,-6.1586,-6.6795,-6.6795,-6.6795,-6.6795,-6.6795,-6.6795,-6.6795,-6.6795,-6.6795,-6.6795,-6.6795,-6.6795,-6.6795,-6.6795,-6.6795,-6.6795,-6.6795,-6.6795,-6.6795,-6.6795,-6.6795,-6.6795,-6.6795,-6.6795,-6.6795,-6.6795,-6.6795,-6.6795,-6.6795,-6.6795,-6.6795,-6.6795,-6.6795,-6.6795,-6.6795,-6.6795,-6.6795,-6.6795,-6.6795,-6.6795,-6.6795,-6.6795,-6.6795,-6.6795,-6.6795,-6.6795,-6.6815,-6.6834,-6.6854,-6.6878,-6.6887,-6.6891,-6.6895,-6.6895,-6.6898,-6.6901,-6.6898,-6.6887,-6.6902,-6.6883,-6.6895,-6.6887,-6.6859,-6.6829,-6.6823,-6.6817,-6.6813,-6.6828,-6.6824,-6.6839,-6.6834,-6.6829,-6.6823,-6.6831,-6.6837,-6.6823,-6.6817,-6.6823,-6.6823,-6.6837,-6.6837,-6.6837,-6.6831,-6.685,-6.6817,-6.6817,-6.6814,-6.6748,-6.6483,-6.5878,-6.541,-6.4903,-6.4735,-6.4372,-6.3514,-6.2772,-6.2148,-6.1797,-6.1595,-6.1588,-6.16,-6.1592,-6.1592,-6.1592,-6.1592,-6.1584,-6.1595,-6.1595,-6.1586,-6.1578,-6.1578,-6.1588,-6.1588,-6.1588,-6.1588,-6.6795,-6.6795,-6.6795,-6.6795,-6.6795,-6.6795,-6.6795,-6.6795,-6.6795,-6.6795,-6.6795,-6.6795,-6.6795,-6.6795,-6.6795,-6.6795,-6.6795,-6.6795,-6.6795,-6.6795,-6.6795,-6.6795,-6.6795,-6.6795,-6.6795,-6.6795,-6.6795,-6.6795,-6.6795,-6.6795,-6.6795,-6.6795,-6.6795,-6.6795,-6.6795,-6.6795,-6.6795,-6.6795,-6.6795,-6.6795,-6.6795,-6.6795,-6.6795,-6.6795,-6.6795,-6.6795,-6.6795,-6.6795,-6.6795,-6.6815,-6.6859,-6.6859,-6.6859,-6.6859,-6.6878,-6.6883,-6.6883,-6.6873,-6.6868,-6.6868,-6.6854,-6.6829,-6.6811,-6.6798,-6.6798,-6.6791,-6.6791,-6.6783,-6.6783,-6.6803,-6.6803,-6.6803,-6.6795,-6.6806,-6.6795,-6.6803,-6.6803,-6.6803,-6.6803,-6.6803,-6.6803,-6.6803,-6.6803,-6.6803,-6.6795,-6.6795,-6.6736,-6.6697,-6.6405,-6.5472,-6.4762,-6.404,-6.3483,-6.3062,-6.2653,-6.2341,-6.1795,-6.1717,-6.1592,-6.1592,-6.1584,-6.1595,-6.1586,-6.1578,-6.1597,-6.1578,-6.1578,-6.1578,-6.1588,-6.1588,-6.1588,-6.1588,-6.1588,-6.1588,-6.1588,-6.6795,-6.6795,-6.6795,-6.6795,-6.6795,-6.6795,-6.6795,-6.6795,-6.6795,-6.6795,-6.6795,-6.6795,-6.6795,-6.6795,-6.6795,-6.6795,-6.6795,-6.6795,-6.6795,-6.6795,-6.6795,-6.6795,-6.6795,-6.6795,-6.6795,-6.6795,-6.6795,-6.6795,-6.6795,-6.6795,-6.6795,-6.6795,-6.6795,-6.6795,-6.6795,-6.6795,-6.6795,-6.6795,-6.6795,-6.6795,-6.6795,-6.6795,-6.6795,-6.6795,-6.6795,-6.6795,-6.6795,-6.6795,-6.6795,-6.6795,-6.6795,-6.6815,-6.6834,-6.6834,-6.6834,-6.6834,-6.6854,-6.6837,-6.6831,-6.6831,-6.6817,-6.6792,-6.6791,-6.6783,-6.6775,-6.6748,-6.6739,-6.6739,-6.6748,-6.6775,-6.6775,-6.6775,-6.6787,-6.6787,-6.6775,-6.6775,-6.6775,-6.6775,-6.6775,-6.6775,-6.6775,-6.6775,-6.6775,-6.6767,-6.6739,-6.6692,-6.6566,-6.6449,-6.5864,-6.4997,-6.412,-6.336,-6.2561,-6.2084,-6.1811,-6.1976,-6.1645,-6.1606,-6.1586,-6.1586,-6.1586,-6.1578,-6.1588,-6.1588,-6.1588,-6.1588,-6.1588,-6.1588,-6.1588,-6.1588,-6.1588,-6.1588,-6.1588,-6.1588,-6.1588]}]]